[[{"header":{"parameterUnit":"m.s-1","parameterCategory":1,"la1":31.0,"la2":29.5877,"lo1":-88.7671,"lo2":-86.6584,"dy":0.0162,"dx":0.0185,"nx":115,"ny":88,"refTime":"2024-03-25T00:00:00:Z","depth":0,"parameterNumber":2,"parameterNumberName":"U-component_of_WINDS"},"data":[0.0,0.0,0.0,0.0,0.0,0.0,0.0,0.0,0.0,0.0,0.0,0.0,0.0,0.0,0.0,0.0,0.0,0.0,0.0,0.0,0.0,0.0,0.0,0.0,0.0,0.0,0.0,0.0,0.0,0.0,0.0,0.0,0.0,0.0,0.0,0.0,0.0,0.0,0.0,0.0,0.0,0.0,0.0,0.0,0.0,0.0,0.0,0.0,0.0,0.0,0.0,0.0,0.0,0.0,0.0,0.0,0.0,0.0,0.0,0.0,0.0,0.0,0.0,0.0,0.0,0.0,0.0,0.0,0.0,0.0,0.0,0.0,0.0,0.0,0.0,0.0,0.0,0.0,0.0,0.0,0.0,0.0,0.0,0.0,0.0,0.0,0.0,0.0,0.0,0.0,0.0,0.0,0.0,0.0,0.0,0.0,0.0,0.0,0.0,0.0,0.0,0.0,0.0,0.0,0.0,0.0,0.0,0.0,0.0,0.0,0.0,0.0,0.0,0.0,0.0,0.0,0.0,0.0,0.0,0.0,0.0,0.0,0.0,0.0,0.0,0.0,0.0,0.0,0.0,0.0,0.0,0.0,0.0,0.0,0.0,0.0,0.0,0.0,0.0,0.0,0.0,0.0,0.0,0.0,0.0,0.0,0.0,0.0,0.0,0.0,0.0,0.0,0.0,0.0,0.0,0.0,0.0,0.0,0.0,0.0,0.0,0.0,0.0,0.0,0.0,0.0,0.0,0.0,0.0,0.0,0.0,0.0,0.0,0.0,0.0,0.0,0.0,0.0,0.0,0.0,0.0,0.0,0.0,0.0,0.0,0.0,0.0,0.0,0.0,0.0,0.0,0.0,0.0,0.0,0.0,0.0,0.0,0.0,0.0,0.0,0.0,0.0,0.0,0.0,0.0,0.0,0.0,0.0,0.0,0.0,0.0,0.0,0.0,0.0,0.0,0.0,0.0,0.0,0.0,0.0,0.0,0.0,0.0,0.0,0.0,0.0,0.0,0.0,0.0,0.0,0.0,0.0,0.0,0.0,0.0,0.0,0.0,0.0,0.0,0.0,0.0,0.0,0.0,0.0,0.0,0.0,0.0,0.0,0.0,0.0,0.0,0.0,0.0,0.0,0.0,0.0,0.0,0.0,0.0,0.0,0.0,0.0,0.0,0.0,0.0,0.0,0.0,0.0,0.0,0.0,0.0,0.0,0.0,0.0,0.0,0.0,0.0,0.0,0.0,0.0,0.0,0.0,0.0,0.0,0.0,0.0,0.0,0.0,0.0,0.0,0.0,0.0,0.0,0.0,0.0,0.0,0.0,0.0,0.0,0.0,0.0,0.0,0.0,0.0,0.0,0.0,0.0,0.0,0.0,0.0,0.0,0.0,0.0,0.0,0.0,0.0,0.0,0.0,0.0,0.0,0.0,0.0,0.0,0.0,0.0,0.0,0.0,0.0,0.0,0.0,0.0,0.0,0.0,0.0,0.0,0.0,0.0,0.0,0.0,0.0,0.0,0.0,0.0,0.0,0.0,0.0,0.0,0.0,0.0,0.0,0.0,0.0,0.0,0.0,0.0,0.0,0.0,0.0,0.0,0.0,0.0,0.0,0.0,0.0,0.0,0.0,0.0,0.0,0.0,0.0,0.0,0.0,0.0,0.0,0.0,0.0,0.0,0.0,0.0,0.0,0.0,0.0,0.0,0.0,0.0,0.0,0.0,0.0,0.0,0.0,0.0,0.0,0.0,0.0,0.0,0.0,0.0,0.0,0.0,0.0,0.0,0.0,0.0,0.0,0.0,0.0,0.0,0.0,0.0,0.0,0.0,0.0,0.0,0.0,0.0,0.0,0.0,0.0,0.0,0.0,0.0,0.0,0.0,0.0,0.0,0.0,0.0,0.0,0.0,0.0,0.0,0.0,0.0,0.0,0.0,0.0,0.0,0.0,0.0,0.0,0.0,0.0,0.0,0.0,0.0,0.0,0.0,0.0,0.0,0.0,0.0,0.0,0.0,0.0,0.0,0.0,0.0,0.0,0.0,0.0,0.0,0.0,0.0,0.0,0.0,0.0,0.0,0.0,0.0,0.0,0.0,0.0,0.0,0.0,0.0,0.0,0.0,0.0,0.0,0.0,0.0,0.0,0.0,0.0,0.0,0.0,0.0,0.0,0.0,0.0,0.0,0.0,0.0,0.0,0.0,0.0,0.0,0.0,0.0,0.0,0.0,0.0,0.0,0.0,0.0,0.0,0.0,0.0,0.0,0.0,0.0,0.0,0.0,0.0,0.0,0.0,0.0,0.0,0.0,0.0,0.0,0.0,0.0,0.0,0.0,0.0,0.0,0.0,0.0,0.0,0.0,0.0,0.0,0.0,0.0,0.0,0.0,0.0,0.0,0.0,0.0,0.0,0.0,0.0,0.0,0.0,0.0,0.0,0.0,0.0,0.0,0.0,0.0,0.0,0.0,0.0,0.0,0.0,0.0,0.0,0.0,0.0,0.0,0.0,0.0,0.0,0.0,0.0,0.0,0.0,0.0,0.0,0.0,0.0,0.0,0.0,0.0,0.0,0.0,0.0,0.0,0.0,0.0,0.0,0.0,0.0,0.0,0.0,0.0,0.0,0.0,0.0,0.0,0.0,0.0,0.0,0.0,0.0,0.0,0.0,0.0,0.0,0.0,0.0,0.0,0.0,0.0,0.0,0.0,0.0,0.0,0.0,0.0,0.0,0.0,0.0,0.0,0.0,0.0,0.0,0.0,0.0,0.0,0.0,0.0,0.0,0.0,0.0,0.0,0.0,0.0,0.0,0.0,0.0,0.0,0.0,0.0,0.0,0.0,0.0,0.0,0.0,0.0,0.0,0.0,0.0,0.0,0.0,0.0,0.0,0.0,0.0,0.0,0.0,0.0,0.0,0.0,0.0,0.0,0.0,0.0,0.0,0.0,0.0,0.0,0.0,0.0,0.0,0.0,0.0,0.0,0.0,0.0,0.0,0.0,0.0,0.0,0.0,0.0,0.0,0.0,0.0,0.0,0.0,0.0,0.0,0.0,0.0,0.0,0.0,0.0,0.0,0.0,0.0,0.0,0.0,0.0,0.0,0.0,0.0,0.0,0.0,0.0,0.0,0.0,0.0,0.0,0.0,0.0,0.0,0.0,0.0,0.0,0.0,0.0,0.0,0.0,0.0,0.0,0.0,0.0,0.0,0.0,0.0,0.0,0.0,0.0,0.0,0.0,0.0,0.0,0.0,0.0,0.0,0.0,0.0,0.0,0.0,0.0,0.0,0.0,0.0,0.0,0.0,0.0,0.0,0.0,0.0,0.0,0.0,0.0,0.0,0.0,0.0,0.0,0.0,0.0,0.0,0.0,0.0,0.0,0.0,0.0,0.0,0.0,0.0,0.0,0.0,0.0,0.0,0.0,0.0,0.0,0.0,0.0,0.0,0.0,0.0,0.0,0.0,0.0,0.0,0.0,0.0,0.0,0.0,0.0,0.0,0.0,0.0,0.0,0.0,0.0,0.0,0.0,0.0,0.0,0.0,0.0,0.0,0.0,0.0,0.0,0.0,0.0,0.0,0.0,0.0,0.0,0.0,0.0,0.0,0.0,0.0,0.0,0.0,0.0,0.0,0.0,0.0,0.0,0.0,0.0,0.0,0.0,0.0,0.0,0.0,0.0,0.0,0.0,0.0,0.0,0.0,0.0,0.0,0.0,0.0,0.0,0.0,0.0,0.0,0.0,0.0,0.0,0.0,0.0,0.0,0.0,0.0,0.0,0.0,0.0,0.0,0.0,0.0,0.0,0.0,0.0,0.0,0.0,0.0,0.0,0.0,0.0,0.0,0.0,0.0,0.0,0.0,0.0,0.0,0.0,0.0,0.0,0.0,0.0,0.0,0.0,0.0,0.0,0.0,0.0,0.0,0.0,0.0,0.0,0.0,0.0,0.0,0.0,0.0,0.0,0.0,0.0,0.0,0.0,0.0,0.0,0.0,0.0,0.0,0.0,0.0,0.0,0.0,0.0,0.0,0.0,0.0,0.0,0.0,0.0,0.0,0.0,0.0,0.0,0.0,0.0,0.0,0.0,0.0,0.0,0.0,0.0,0.0,0.0,0.0,0.0,0.0,0.0,0.0,0.0,0.0,0.0,0.0,0.0,0.0,0.0,0.0,0.0,0.0,0.0,0.0,0.0,0.0,0.0,0.0,0.0,0.0,0.0,0.0,0.0,0.0,0.0,0.0,0.0,0.0,0.0,0.0,0.0,0.0,0.0,0.0,0.0,0.0,-3.8044,0.0,0.0,0.0,0.0,0.0,0.0,0.0,0.0,0.0,0.0,0.0,0.0,0.0,0.0,0.0,0.0,0.0,0.0,0.0,0.0,0.0,0.0,0.0,0.0,0.0,0.0,0.0,0.0,0.0,0.0,0.0,0.0,0.0,0.0,0.0,0.0,0.0,0.0,0.0,0.0,0.0,0.0,0.0,0.0,0.0,0.0,0.0,0.0,0.0,0.0,0.0,0.0,0.0,0.0,0.0,0.0,0.0,0.0,0.0,0.0,0.0,0.0,0.0,0.0,0.0,0.0,0.0,0.0,0.0,0.0,0.0,0.0,0.0,0.0,0.0,0.0,0.0,0.0,0.0,0.0,0.0,0.0,0.0,0.0,0.0,0.0,0.0,0.0,0.0,0.0,0.0,0.0,0.0,0.0,0.0,0.0,0.0,0.0,0.0,0.0,0.0,0.0,0.0,0.0,0.0,0.0,0.0,0.0,0.0,0.0,-3.9927,-3.8597,-3.9863,-3.9636,-3.7645,0.0,0.0,0.0,0.0,0.0,0.0,0.0,0.0,0.0,0.0,0.0,0.0,0.0,0.0,0.0,0.0,0.0,0.0,0.0,0.0,0.0,0.0,0.0,0.0,0.0,0.0,0.0,0.0,0.0,0.0,0.0,0.0,0.0,0.0,0.0,0.0,0.0,0.0,0.0,0.0,0.0,0.0,0.0,0.0,0.0,0.0,0.0,0.0,0.0,0.0,0.0,0.0,0.0,0.0,0.0,0.0,0.0,0.0,0.0,0.0,0.0,0.0,0.0,0.0,0.0,0.0,0.0,0.0,0.0,0.0,0.0,0.0,0.0,0.0,0.0,0.0,0.0,0.0,0.0,0.0,0.0,0.0,0.0,0.0,0.0,0.0,0.0,0.0,0.0,0.0,0.0,0.0,0.0,0.0,0.0,0.0,0.0,0.0,0.0,0.0,0.0,0.0,0.0,0.0,0.0,0.0,0.0,0.0,0.0,0.0,0.0,0.0,-4.0207,-3.992,-3.744,0.0,0.0,0.0,0.0,0.0,0.0,0.0,0.0,0.0,0.0,0.0,0.0,0.0,0.0,0.0,0.0,0.0,0.0,0.0,0.0,0.0,0.0,0.0,0.0,0.0,0.0,0.0,0.0,0.0,0.0,0.0,0.0,0.0,0.0,0.0,0.0,0.0,0.0,0.0,0.0,0.0,0.0,0.0,0.0,0.0,0.0,0.0,0.0,0.0,0.0,0.0,0.0,0.0,0.0,0.0,0.0,0.0,0.0,0.0,0.0,0.0,0.0,0.0,0.0,0.0,0.0,0.0,0.0,0.0,0.0,0.0,0.0,0.0,0.0,0.0,0.0,0.0,0.0,0.0,0.0,0.0,0.0,0.0,0.0,0.0,0.0,0.0,0.0,0.0,0.0,0.0,0.0,0.0,0.0,0.0,0.0,0.0,0.0,0.0,0.0,0.0,0.0,0.0,0.0,0.0,0.0,0.0,0.0,0.0,0.0,-4.0019,-4.0098,-3.9785,0.0,-3.7954,0.0,0.0,0.0,0.0,0.0,0.0,0.0,0.0,0.0,0.0,0.0,0.0,0.0,0.0,0.0,0.0,0.0,0.0,0.0,0.0,0.0,0.0,0.0,0.0,0.0,0.0,0.0,0.0,0.0,0.0,0.0,0.0,0.0,0.0,0.0,0.0,0.0,0.0,0.0,0.0,0.0,0.0,0.0,0.0,0.0,0.0,0.0,0.0,0.0,0.0,0.0,0.0,0.0,0.0,0.0,0.0,0.0,0.0,0.0,0.0,0.0,0.0,0.0,0.0,0.0,0.0,0.0,0.0,0.0,0.0,0.0,0.0,0.0,0.0,0.0,0.0,0.0,0.0,0.0,0.0,0.0,0.0,0.0,0.0,0.0,0.0,0.0,0.0,0.0,0.0,0.0,0.0,0.0,0.0,0.0,0.0,0.0,0.0,0.0,0.0,0.0,0.0,0.0,0.0,0.0,0.0,0.0,0.0,0.0,0.0,-3.9819,-4.1374,-4.1214,-3.9503,0.0,0.0,0.0,0.0,0.0,0.0,0.0,0.0,0.0,0.0,0.0,0.0,0.0,0.0,0.0,0.0,0.0,0.0,0.0,0.0,0.0,0.0,0.0,0.0,0.0,0.0,0.0,0.0,0.0,0.0,0.0,0.0,0.0,0.0,0.0,0.0,0.0,0.0,0.0,0.0,0.0,0.0,0.0,0.0,0.0,0.0,0.0,0.0,0.0,0.0,0.0,0.0,0.0,0.0,0.0,0.0,0.0,0.0,0.0,0.0,0.0,0.0,0.0,0.0,0.0,0.0,0.0,0.0,0.0,0.0,0.0,0.0,0.0,0.0,0.0,0.0,0.0,0.0,0.0,0.0,0.0,0.0,0.0,0.0,0.0,0.0,0.0,0.0,0.0,0.0,0.0,0.0,0.0,0.0,0.0,0.0,0.0,0.0,0.0,0.0,0.0,0.0,0.0,0.0,0.0,0.0,0.0,0.0,0.0,0.0,-3.7413,-3.8944,-4.0127,-4.0855,-3.8942,-3.4361,0.0,0.0,0.0,0.0,0.0,0.0,0.0,0.0,0.0,0.0,0.0,0.0,0.0,0.0,0.0,0.0,0.0,0.0,0.0,0.0,0.0,0.0,0.0,0.0,0.0,0.0,0.0,0.0,0.0,0.0,0.0,0.0,0.0,0.0,0.0,0.0,0.0,0.0,0.0,0.0,0.0,0.0,0.0,0.0,0.0,0.0,0.0,0.0,0.0,0.0,0.0,0.0,0.0,0.0,0.0,0.0,0.0,0.0,0.0,0.0,0.0,0.0,0.0,0.0,0.0,0.0,0.0,0.0,0.0,0.0,0.0,0.0,0.0,0.0,0.0,0.0,0.0,0.0,0.0,0.0,0.0,0.0,0.0,0.0,0.0,0.0,0.0,0.0,0.0,0.0,0.0,0.0,0.0,0.0,0.0,0.0,0.0,0.0,0.0,0.0,0.0,0.0,0.0,0.0,0.0,0.0,0.0,0.0,-3.648,-3.761,-3.7126,-3.5409,-3.7301,-3.6803,0.0,0.0,0.0,0.0,0.0,0.0,0.0,0.0,0.0,0.0,0.0,0.0,0.0,0.0,0.0,0.0,0.0,0.0,0.0,0.0,0.0,0.0,0.0,0.0,0.0,0.0,0.0,0.0,0.0,0.0,0.0,0.0,0.0,0.0,0.0,0.0,0.0,0.0,0.0,0.0,0.0,0.0,0.0,0.0,0.0,0.0,0.0,0.0,0.0,0.0,0.0,0.0,0.0,0.0,0.0,0.0,0.0,0.0,0.0,0.0,0.0,0.0,0.0,0.0,0.0,0.0,0.0,0.0,0.0,0.0,0.0,0.0,0.0,0.0,0.0,0.0,0.0,0.0,0.0,0.0,0.0,0.0,0.0,0.0,0.0,0.0,0.0,0.0,0.0,0.0,0.0,0.0,0.0,0.0,0.0,0.0,0.0,0.0,0.0,0.0,0.0,0.0,0.0,0.0,0.0,0.0,0.0,0.0,0.0,-3.3058,-3.7217,-3.743,-3.3795,-3.8234,-3.7633,0.0,0.0,0.0,0.0,0.0,0.0,0.0,0.0,0.0,0.0,0.0,0.0,0.0,0.0,0.0,0.0,0.0,0.0,0.0,0.0,0.0,0.0,0.0,0.0,0.0,0.0,0.0,0.0,0.0,0.0,0.0,0.0,0.0,0.0,0.0,0.0,0.0,0.0,0.0,0.0,0.0,0.0,0.0,0.0,0.0,0.0,0.0,0.0,0.0,0.0,0.0,0.0,0.0,0.0,0.0,0.0,0.0,0.0,0.0,0.0,0.0,0.0,0.0,0.0,0.0,0.0,0.0,0.0,0.0,0.0,0.0,0.0,0.0,0.0,0.0,0.0,0.0,0.0,0.0,0.0,0.0,0.0,0.0,0.0,0.0,0.0,0.0,0.0,0.0,0.0,0.0,0.0,0.0,0.0,0.0,0.0,0.0,0.0,0.0,0.0,0.0,0.0,0.0,0.0,0.0,0.0,0.0,0.0,0.0,-3.2866,0.0,-3.737,-3.3323,-3.7762,-3.6999,0.0,0.0,0.0,0.0,0.0,0.0,0.0,0.0,0.0,0.0,0.0,0.0,0.0,0.0,0.0,0.0,0.0,0.0,0.0,0.0,0.0,0.0,0.0,0.0,0.0,0.0,0.0,0.0,0.0,0.0,0.0,0.0,0.0,0.0,0.0,0.0,0.0,0.0,0.0,0.0,0.0,0.0,0.0,0.0,0.0,0.0,0.0,0.0,0.0,0.0,0.0,0.0,0.0,0.0,0.0,0.0,0.0,0.0,0.0,0.0,0.0,0.0,0.0,0.0,0.0,0.0,0.0,0.0,0.0,0.0,0.0,0.0,0.0,0.0,0.0,0.0,0.0,0.0,0.0,0.0,0.0,0.0,0.0,0.0,0.0,0.0,0.0,0.0,0.0,0.0,0.0,0.0,0.0,0.0,0.0,0.0,0.0,0.0,0.0,0.0,0.0,0.0,0.0,0.0,0.0,0.0,0.0,0.0,-2.9983,-3.6472,-3.762,-3.6458,-3.367,-3.5473,-3.4534,0.0,0.0,0.0,0.0,0.0,0.0,0.0,0.0,0.0,0.0,0.0,0.0,0.0,0.0,0.0,0.0,0.0,0.0,0.0,0.0,0.0,0.0,0.0,0.0,0.0,0.0,0.0,0.0,0.0,0.0,0.0,0.0,0.0,0.0,0.0,0.0,0.0,0.0,0.0,0.0,0.0,0.0,0.0,0.0,0.0,0.0,0.0,0.0,0.0,0.0,0.0,0.0,0.0,0.0,0.0,0.0,0.0,0.0,0.0,0.0,0.0,0.0,0.0,0.0,0.0,0.0,0.0,0.0,0.0,0.0,0.0,0.0,0.0,0.0,0.0,0.0,0.0,0.0,0.0,0.0,0.0,0.0,0.0,0.0,0.0,0.0,0.0,0.0,0.0,0.0,0.0,0.0,0.0,0.0,0.0,0.0,0.0,0.0,0.0,0.0,0.0,0.0,0.0,0.0,0.0,0.0,0.0,0.0,0.0,-3.4864,-3.4993,-3.2474,-2.7747,-3.338,-3.3249,0.0,0.0,0.0,0.0,0.0,0.0,0.0,0.0,0.0,0.0,0.0,0.0,0.0,0.0,0.0,0.0,0.0,0.0,0.0,0.0,0.0,0.0,0.0,0.0,0.0,0.0,0.0,0.0,0.0,0.0,0.0,0.0,0.0,0.0,0.0,0.0,0.0,0.0,0.0,0.0,0.0,0.0,0.0,0.0,0.0,0.0,0.0,0.0,0.0,0.0,0.0,0.0,0.0,0.0,0.0,0.0,0.0,0.0,0.0,0.0,0.0,0.0,0.0,0.0,0.0,0.0,0.0,0.0,0.0,0.0,0.0,0.0,0.0,0.0,0.0,0.0,0.0,0.0,0.0,0.0,0.0,0.0,0.0,0.0,0.0,0.0,0.0,0.0,0.0,0.0,0.0,0.0,0.0,0.0,0.0,0.0,0.0,0.0,0.0,0.0,0.0,0.0,0.0,0.0,0.0,0.0,0.0,0.0,0.0,-3.429,-3.3372,-3.125,-2.8055,-3.2883,-3.3067,-2.8154,0.0,0.0,0.0,0.0,0.0,0.0,0.0,0.0,0.0,0.0,0.0,0.0,0.0,0.0,0.0,0.0,0.0,0.0,0.0,0.0,0.0,0.0,0.0,0.0,0.0,0.0,0.0,0.0,0.0,0.0,0.0,0.0,0.0,0.0,0.0,0.0,0.0,0.0,0.0,0.0,0.0,0.0,0.0,0.0,0.0,0.0,0.0,0.0,0.0,0.0,0.0,0.0,0.0,0.0,0.0,0.0,0.0,0.0,0.0,0.0,0.0,0.0,0.0,0.0,0.0,0.0,0.0,0.0,0.0,0.0,0.0,0.0,0.0,0.0,0.0,0.0,0.0,0.0,0.0,0.0,0.0,0.0,0.0,0.0,0.0,0.0,0.0,0.0,0.0,0.0,0.0,0.0,0.0,0.0,0.0,0.0,0.0,0.0,0.0,0.0,0.0,0.0,0.0,0.0,0.0,0.0,0.0,0.0,-3.4788,-3.2679,-3.2159,-3.3405,-3.338,-3.3599,0.0,0.0,0.0,0.0,0.0,0.0,0.0,0.0,0.0,0.0,0.0,0.0,0.0,0.0,0.0,0.0,0.0,0.0,0.0,0.0,0.0,0.0,0.0,0.0,0.0,0.0,0.0,0.0,0.0,0.0,0.0,0.0,0.0,0.0,0.0,0.0,0.0,0.0,0.0,0.0,0.0,0.0,0.0,0.0,0.0,0.0,0.0,0.0,0.0,0.0,0.0,0.0,0.0,0.0,0.0,0.0,0.0,0.0,0.0,0.0,0.0,0.0,0.0,0.0,0.0,0.0,0.0,0.0,0.0,0.0,0.0,0.0,0.0,0.0,0.0,0.0,0.0,0.0,0.0,0.0,0.0,0.0,0.0,0.0,0.0,0.0,0.0,0.0,0.0,0.0,0.0,0.0,0.0,0.0,0.0,0.0,0.0,0.0,0.0,0.0,0.0,0.0,0.0,0.0,0.0,0.0,0.0,0.0,0.0,-3.4129,-3.1909,-3.0135,-2.9203,-3.1849,-3.2572,0.0,0.0,0.0,0.0,0.0,0.0,0.0,0.0,0.0,0.0,0.0,0.0,0.0,0.0,0.0,0.0,0.0,0.0,0.0,0.0,0.0,0.0,0.0,0.0,0.0,0.0,0.0,0.0,0.0,0.0,0.0,0.0,0.0,0.0,0.0,0.0,0.0,0.0,0.0,0.0,0.0,0.0,0.0,0.0,0.0,0.0,0.0,0.0,0.0,0.0,0.0,0.0,0.0,0.0,0.0,0.0,0.0,0.0,0.0,0.0,0.0,0.0,0.0,0.0,0.0,0.0,0.0,0.0,0.0,0.0,0.0,0.0,0.0,0.0,0.0,0.0,0.0,0.0,0.0,0.0,0.0,0.0,0.0,0.0,0.0,0.0,0.0,0.0,0.0,0.0,0.0,0.0,0.0,0.0,0.0,0.0,0.0,0.0,0.0,0.0,0.0,0.0,0.0,0.0,0.0,0.0,0.0,0.0,-3.2238,-3.5329,-3.377,-3.255,-3.1868,-3.2857,-3.3012,0.0,0.0,0.0,0.0,0.0,0.0,0.0,0.0,0.0,0.0,0.0,0.0,0.0,0.0,0.0,0.0,0.0,0.0,0.0,0.0,0.0,0.0,0.0,0.0,0.0,0.0,0.0,0.0,0.0,0.0,0.0,0.0,0.0,0.0,0.0,0.0,0.0,0.0,0.0,0.0,0.0,0.0,0.0,0.0,0.0,0.0,0.0,0.0,0.0,0.0,0.0,0.0,0.0,0.0,0.0,0.0,0.0,0.0,0.0,0.0,0.0,0.0,0.0,0.0,0.0,0.0,0.0,0.0,0.0,0.0,0.0,0.0,0.0,0.0,0.0,0.0,0.0,0.0,0.0,0.0,0.0,0.0,0.0,0.0,0.0,0.0,0.0,0.0,0.0,0.0,0.0,0.0,0.0,0.0,0.0,0.0,0.0,0.0,0.0,0.0,0.0,0.0,0.0,0.0,0.0,0.0,0.0,0.0,-3.4511,-3.7183,-3.6612,-3.6825,-3.7993,-3.5314,-3.4412,0.0,0.0,0.0,0.0,0.0,0.0,0.0,0.0,0.0,0.0,0.0,0.0,0.0,0.0,0.0,0.0,0.0,0.0,0.0,0.0,0.0,0.0,0.0,0.0,0.0,0.0,0.0,0.0,0.0,0.0,0.0,0.0,0.0,0.0,0.0,0.0,0.0,0.0,0.0,0.0,0.0,0.0,0.0,0.0,0.0,0.0,0.0,0.0,0.0,0.0,0.0,0.0,0.0,0.0,0.0,0.0,0.0,0.0,0.0,0.0,0.0,0.0,0.0,0.0,0.0,0.0,0.0,0.0,0.0,0.0,0.0,0.0,0.0,0.0,0.0,0.0,0.0,0.0,0.0,0.0,0.0,0.0,0.0,0.0,0.0,0.0,0.0,0.0,0.0,0.0,0.0,0.0,0.0,0.0,0.0,0.0,0.0,0.0,0.0,0.0,0.0,0.0,0.0,0.0,0.0,0.0,0.0,0.0,-3.5287,-3.821,-3.6367,-3.6206,-3.8156,-3.6666,-3.6837,0.0,0.0,0.0,0.0,0.0,0.0,0.0,0.0,0.0,0.0,0.0,0.0,0.0,0.0,0.0,0.0,0.0,0.0,0.0,0.0,0.0,0.0,0.0,0.0,0.0,0.0,0.0,0.0,0.0,0.0,0.0,0.0,0.0,0.0,0.0,0.0,0.0,0.0,0.0,0.0,0.0,0.0,0.0,0.0,0.0,0.0,0.0,0.0,-5.0967,0.0,0.0,0.0,0.0,0.0,0.0,0.0,0.0,0.0,0.0,0.0,0.0,0.0,0.0,0.0,0.0,0.0,0.0,0.0,0.0,0.0,0.0,0.0,0.0,0.0,0.0,0.0,0.0,0.0,0.0,0.0,0.0,0.0,0.0,0.0,0.0,0.0,0.0,0.0,0.0,0.0,0.0,0.0,0.0,0.0,0.0,0.0,0.0,0.0,0.0,0.0,0.0,0.0,0.0,0.0,0.0,0.0,0.0,0.0,-3.6646,-3.8323,-3.7685,-3.7964,-3.9349,-3.8748,-3.812,0.0,0.0,0.0,0.0,0.0,0.0,0.0,0.0,0.0,0.0,0.0,0.0,0.0,0.0,0.0,0.0,0.0,0.0,0.0,0.0,0.0,0.0,0.0,0.0,0.0,0.0,0.0,0.0,0.0,0.0,0.0,0.0,0.0,0.0,0.0,0.0,0.0,0.0,0.0,0.0,0.0,0.0,0.0,0.0,0.0,0.0,0.0,0.0,0.0,0.0,0.0,0.0,0.0,0.0,0.0,0.0,0.0,0.0,0.0,0.0,0.0,0.0,0.0,0.0,0.0,0.0,0.0,0.0,0.0,0.0,0.0,0.0,0.0,0.0,0.0,0.0,0.0,0.0,0.0,0.0,0.0,0.0,0.0,0.0,0.0,0.0,0.0,0.0,0.0,0.0,0.0,0.0,0.0,0.0,0.0,0.0,0.0,0.0,0.0,0.0,0.0,0.0,0.0,0.0,0.0,0.0,0.0,-3.8567,-3.8267,-3.8561,-3.9223,-4.0019,-4.1037,-4.033,-3.8444,-3.5317,0.0,0.0,0.0,0.0,0.0,0.0,0.0,0.0,0.0,0.0,0.0,0.0,0.0,0.0,0.0,0.0,0.0,0.0,0.0,0.0,0.0,0.0,0.0,0.0,0.0,0.0,0.0,0.0,0.0,0.0,0.0,0.0,0.0,0.0,0.0,0.0,0.0,0.0,-4.1087,-4.4365,0.0,0.0,0.0,0.0,0.0,0.0,0.0,0.0,-5.7664,0.0,0.0,0.0,0.0,0.0,0.0,0.0,0.0,0.0,0.0,0.0,0.0,0.0,0.0,0.0,0.0,0.0,0.0,0.0,0.0,0.0,0.0,0.0,0.0,0.0,0.0,0.0,0.0,0.0,0.0,0.0,0.0,0.0,0.0,0.0,0.0,0.0,0.0,0.0,0.0,0.0,0.0,0.0,0.0,0.0,0.0,0.0,0.0,0.0,0.0,0.0,0.0,0.0,0.0,0.0,0.0,-3.8231,-3.9224,-3.9903,-4.0382,-3.9197,-3.9637,-4.1788,-3.9312,-3.6889,-3.4757,0.0,0.0,0.0,0.0,0.0,0.0,0.0,0.0,0.0,0.0,0.0,0.0,0.0,0.0,0.0,0.0,0.0,0.0,0.0,0.0,0.0,0.0,0.0,0.0,0.0,0.0,0.0,0.0,0.0,0.0,0.0,0.0,0.0,0.0,0.0,0.0,0.0,0.0,0.0,-4.3464,-4.4048,0.0,0.0,0.0,0.0,0.0,0.0,0.0,0.0,-6.1709,0.0,0.0,0.0,0.0,0.0,0.0,0.0,0.0,0.0,0.0,0.0,0.0,0.0,0.0,0.0,0.0,0.0,0.0,0.0,0.0,0.0,0.0,0.0,0.0,0.0,0.0,0.0,0.0,0.0,0.0,0.0,0.0,0.0,0.0,0.0,0.0,0.0,0.0,0.0,0.0,0.0,0.0,0.0,0.0,0.0,0.0,0.0,0.0,0.0,0.0,0.0,0.0,0.0,0.0,0.0,-3.8454,-3.9374,-3.9986,-4.0673,-3.9882,-4.023,-4.1762,-3.9662,-3.7569,0.0,0.0,0.0,0.0,0.0,0.0,0.0,0.0,0.0,0.0,0.0,0.0,0.0,0.0,0.0,0.0,0.0,0.0,0.0,0.0,0.0,0.0,0.0,0.0,0.0,0.0,0.0,0.0,0.0,0.0,0.0,0.0,0.0,0.0,0.0,0.0,0.0,0.0,0.0,0.0,-4.3602,-4.5108,-4.198,0.0,0.0,0.0,0.0,0.0,0.0,-5.8759,-6.2774,0.0,0.0,0.0,0.0,0.0,0.0,0.0,0.0,0.0,0.0,0.0,0.0,0.0,0.0,0.0,0.0,0.0,0.0,0.0,0.0,0.0,0.0,0.0,0.0,0.0,0.0,0.0,0.0,0.0,0.0,0.0,0.0,0.0,0.0,0.0,0.0,0.0,0.0,0.0,0.0,0.0,0.0,0.0,0.0,0.0,0.0,0.0,0.0,0.0,0.0,0.0,0.0,0.0,0.0,0.0,-3.9161,-3.9644,-4.0114,-4.0674,-4.0798,-4.1266,-4.2112,-4.0606,-3.8866,0.0,0.0,0.0,0.0,0.0,0.0,0.0,0.0,0.0,0.0,0.0,0.0,0.0,0.0,0.0,0.0,0.0,0.0,0.0,0.0,0.0,0.0,0.0,0.0,0.0,0.0,0.0,0.0,0.0,0.0,0.0,0.0,0.0,0.0,0.0,0.0,0.0,0.0,0.0,0.0,0.0,-4.6028,-4.3877,-4.6488,0.0,0.0,0.0,0.0,-5.7418,-6.0907,0.0,0.0,0.0,0.0,0.0,0.0,0.0,0.0,0.0,0.0,0.0,0.0,0.0,0.0,0.0,0.0,0.0,0.0,0.0,0.0,0.0,0.0,0.0,0.0,0.0,0.0,0.0,0.0,0.0,0.0,0.0,0.0,0.0,0.0,0.0,0.0,0.0,0.0,0.0,0.0,0.0,0.0,0.0,0.0,0.0,0.0,0.0,0.0,0.0,0.0,0.0,0.0,0.0,0.0,0.0,0.0,-3.84,-4.0615,-4.1474,-4.1493,-4.1763,-4.2643,-4.4078,-4.1948,-4.0117,0.0,0.0,0.0,0.0,0.0,0.0,0.0,0.0,0.0,0.0,0.0,0.0,0.0,0.0,0.0,0.0,0.0,0.0,0.0,0.0,0.0,0.0,0.0,0.0,0.0,0.0,0.0,0.0,0.0,0.0,0.0,0.0,0.0,0.0,0.0,0.0,0.0,0.0,0.0,0.0,0.0,-4.4811,-4.4125,-4.7543,-5.0879,0.0,0.0,-5.9953,-6.3937,-6.6833,0.0,0.0,0.0,0.0,0.0,0.0,0.0,0.0,0.0,0.0,0.0,0.0,0.0,0.0,0.0,0.0,0.0,0.0,0.0,0.0,0.0,0.0,0.0,0.0,0.0,0.0,0.0,0.0,0.0,0.0,0.0,0.0,0.0,0.0,0.0,0.0,0.0,0.0,0.0,0.0,0.0,0.0,0.0,0.0,0.0,0.0,0.0,0.0,0.0,0.0,0.0,0.0,0.0,0.0,0.0,-3.156,-4.0731,-4.1707,-4.2416,-4.3219,-4.341,-4.3784,-4.4358,-4.1401,-3.9083,0.0,0.0,0.0,0.0,0.0,0.0,0.0,0.0,0.0,0.0,0.0,0.0,0.0,0.0,0.0,0.0,0.0,0.0,0.0,0.0,0.0,0.0,0.0,0.0,0.0,0.0,0.0,0.0,0.0,0.0,0.0,0.0,0.0,0.0,0.0,0.0,0.0,0.0,0.0,0.0,0.0,0.0,-4.7066,-4.9642,0.0,0.0,0.0,-6.3346,-6.4886,0.0,0.0,0.0,0.0,0.0,0.0,0.0,0.0,0.0,0.0,0.0,0.0,0.0,0.0,0.0,0.0,0.0,0.0,0.0,0.0,0.0,0.0,0.0,0.0,0.0,0.0,0.0,0.0,0.0,0.0,0.0,0.0,0.0,0.0,0.0,0.0,0.0,0.0,0.0,0.0,0.0,0.0,0.0,0.0,0.0,0.0,0.0,0.0,0.0,0.0,0.0,0.0,0.0,0.0,0.0,0.0,0.0,-4.1684,-4.1715,-4.2462,-4.4136,-4.4631,-4.484,-4.4706,-4.1663,0.0,0.0,0.0,0.0,0.0,0.0,0.0,0.0,0.0,0.0,0.0,0.0,0.0,0.0,0.0,0.0,0.0,0.0,0.0,0.0,0.0,0.0,0.0,0.0,0.0,0.0,0.0,-3.9657,0.0,0.0,0.0,0.0,0.0,0.0,0.0,0.0,0.0,0.0,0.0,0.0,0.0,0.0,-4.6606,-4.9769,-5.246,-5.5721,0.0,0.0,-6.7035,-6.6797,-7.0611,-7.328,0.0,0.0,0.0,0.0,0.0,0.0,0.0,0.0,0.0,0.0,0.0,0.0,0.0,0.0,0.0,0.0,0.0,0.0,0.0,0.0,0.0,0.0,0.0,0.0,0.0,0.0,0.0,0.0,0.0,0.0,0.0,0.0,0.0,0.0,0.0,0.0,0.0,0.0,0.0,0.0,0.0,0.0,0.0,0.0,0.0,0.0,0.0,0.0,0.0,0.0,0.0,0.0,0.0,0.0,-3.2234,-3.8723,-3.9847,-4.1302,-4.3247,-4.4834,-4.5753,-4.6021,-4.4014,-4.2136,0.0,0.0,0.0,0.0,0.0,0.0,0.0,0.0,0.0,0.0,0.0,0.0,0.0,0.0,0.0,0.0,0.0,0.0,0.0,0.0,0.0,0.0,0.0,0.0,0.0,0.0,0.0,0.0,0.0,0.0,0.0,0.0,0.0,0.0,0.0,0.0,0.0,0.0,0.0,0.0,0.0,-4.8212,-5.106,-5.6178,-6.1004,0.0,-6.9051,-7.1885,-7.2263,-7.3973,-7.496,-7.3814,0.0,0.0,0.0,0.0,0.0,0.0,0.0,0.0,0.0,0.0,0.0,0.0,0.0,0.0,0.0,0.0,0.0,0.0,0.0,0.0,0.0,0.0,0.0,0.0,0.0,0.0,0.0,0.0,0.0,0.0,0.0,0.0,0.0,0.0,0.0,0.0,0.0,0.0,0.0,0.0,0.0,0.0,0.0,0.0,0.0,0.0,0.0,0.0,0.0,0.0,0.0,0.0,0.0,-3.2877,-3.9309,-4.1014,-4.2709,-4.4448,-4.5648,-4.6406,-4.668,-4.4245,-4.1905,0.0,0.0,0.0,0.0,0.0,0.0,0.0,0.0,0.0,0.0,0.0,0.0,0.0,0.0,0.0,0.0,0.0,0.0,0.0,0.0,0.0,0.0,0.0,0.0,0.0,0.0,0.0,0.0,-4.3059,-4.4814,-4.6091,0.0,0.0,0.0,0.0,0.0,0.0,0.0,0.0,0.0,0.0,-4.8505,-5.4175,-5.7464,0.0,0.0,-7.0148,-7.1724,-7.1825,-7.3009,-7.3354,-7.1819,-7.128,0.0,0.0,0.0,0.0,0.0,0.0,0.0,0.0,0.0,0.0,0.0,0.0,0.0,0.0,0.0,0.0,0.0,0.0,0.0,0.0,0.0,0.0,0.0,0.0,0.0,0.0,0.0,0.0,0.0,0.0,0.0,0.0,0.0,0.0,0.0,0.0,0.0,0.0,0.0,0.0,0.0,0.0,0.0,0.0,0.0,0.0,0.0,0.0,0.0,0.0,0.0,0.0,-3.3361,-3.9921,-4.1558,-4.3254,-4.5082,-4.6167,-4.6886,-4.7177,-4.4601,-4.189,0.0,0.0,0.0,0.0,0.0,0.0,0.0,0.0,0.0,0.0,0.0,0.0,0.0,0.0,0.0,0.0,0.0,0.0,0.0,0.0,0.0,0.0,0.0,0.0,0.0,0.0,0.0,0.0,-4.2339,-4.4268,-4.6422,0.0,0.0,0.0,0.0,0.0,0.0,0.0,0.0,0.0,0.0,-4.9868,-5.6178,-5.8666,-6.2008,-6.7898,-7.011,-7.1299,-7.1852,-7.2393,-7.2385,-7.1355,0.0,0.0,0.0,0.0,0.0,0.0,0.0,0.0,0.0,0.0,0.0,0.0,0.0,0.0,0.0,0.0,0.0,0.0,0.0,0.0,0.0,0.0,0.0,0.0,0.0,0.0,0.0,1.107,0.0,0.0,1.2792,0.0,0.0,0.0,0.0,0.0,0.0,0.0,0.0,0.0,0.0,0.0,0.0,0.0,0.0,0.0,0.0,0.0,0.0,0.0,0.0,0.0,0.0,-3.3212,-4.002,-4.0844,-4.2335,-4.464,-4.6192,-4.7241,-4.7804,-4.5492,-4.2532,-3.9061,0.0,0.0,0.0,0.0,0.0,0.0,0.0,0.0,0.0,0.0,0.0,0.0,0.0,0.0,0.0,0.0,0.0,0.0,0.0,0.0,0.0,0.0,0.0,0.0,0.0,0.0,-4.0485,-4.2086,-4.3881,0.0,0.0,0.0,0.0,0.0,0.0,0.0,0.0,0.0,-5.0798,-5.1118,-5.2812,-5.6631,-6.0106,-6.3415,-6.6869,-6.9164,-7.1247,-7.3157,-7.2902,-7.2684,0.0,0.0,0.0,0.0,0.0,0.0,0.0,0.0,0.0,0.0,0.0,0.0,0.0,0.0,0.0,0.0,0.0,0.0,0.0,0.0,0.0,0.0,0.0,0.0,0.0,0.0,0.0,0.7217,0.7797,0.0,0.0,0.0,0.0,0.0,0.0,0.0,0.0,0.0,0.0,0.0,-2.0487,-2.0151,0.0,0.0,0.0,0.0,0.0,0.0,0.0,0.0,0.0,0.0,0.0,0.0,-3.1999,-3.7527,-4.0511,-4.2615,-4.3929,-4.5349,-4.6647,-4.7828,-4.6722,-4.3258,-3.7341,0.0,0.0,0.0,0.0,0.0,0.0,0.0,0.0,0.0,0.0,0.0,0.0,0.0,0.0,0.0,0.0,0.0,0.0,0.0,0.0,0.0,0.0,0.0,0.0,0.0,-3.9748,0.0,0.0,0.0,0.0,0.0,0.0,0.0,0.0,0.0,0.0,-5.3644,-5.2846,-5.402,-5.2977,-5.3546,-5.7528,-6.0593,-6.364,0.0,0.0,0.0,0.0,0.0,0.0,0.0,0.0,0.0,0.0,0.0,0.0,0.0,-7.665,-7.6387,-7.5764,-7.6229,-7.684,-7.7326,0.0,0.0,0.0,0.0,0.0,0.0,0.0,0.0,0.0,0.0,0.0,0.0,0.0,0.0,0.0793,0.1773,0.2817,0.0,0.0,0.0,0.0,0.0,0.0,0.0,0.0,-3.135,-3.2819,-2.7651,-2.6349,-2.5934,0.0,-2.3143,-1.9569,0.0,0.0,0.0,0.0,0.0,0.0,0.0,0.0,-3.3779,-3.8264,-4.1016,-4.2675,-4.3236,-4.4372,-4.5844,-4.763,-4.6185,-4.2394,-3.6208,-3.0655,-2.6445,0.0,0.0,0.0,0.0,0.0,0.0,0.0,0.0,0.0,0.0,0.0,0.0,0.0,0.0,0.0,0.0,0.0,0.0,0.0,0.0,0.0,0.0,0.0,-3.9625,0.0,0.0,0.0,0.0,0.0,0.0,0.0,0.0,0.0,-5.7506,-5.6148,-5.6035,-5.8064,-5.6658,-5.6661,-6.0309,0.0,0.0,0.0,0.0,0.0,0.0,0.0,-7.3471,-7.3319,-7.3316,-7.3751,-7.5172,-7.6045,-7.6623,-7.7116,0.0,0.0,-7.6866,-7.6916,-7.7279,-7.8113,-7.8775,-7.9406,-8.009,-8.1007,-8.2012,0.0,0.0,0.0,0.0,0.0,0.0,0.0,0.0,-0.8444,-0.8179,0.0,-0.3876,0.0,0.0,0.0,0.0,-0.3918,-1.6379,0.0,0.0,-3.5086,-3.6171,-3.2533,-3.1671,-2.9869,-2.7337,-2.7811,-2.7399,-2.5948,-1.9795,0.0,0.0,0.0,0.0,0.0,0.0,-3.8312,-4.1553,-4.2138,-4.2412,-4.2398,-4.3175,-4.4792,-4.7136,-4.4075,-4.0304,-3.598,-3.0934,-2.6724,-2.358,-2.3781,0.0,0.0,0.0,0.0,0.0,0.0,0.0,0.0,0.0,0.0,0.0,0.0,0.0,0.0,0.0,0.0,0.0,0.0,0.0,0.0,-3.9737,0.0,0.0,0.0,0.0,0.0,0.0,0.0,0.0,0.0,-5.7529,-5.807,-5.9371,-6.1057,-6.2623,0.0,0.0,0.0,0.0,-6.6546,-6.9145,-6.9614,-7.0886,-7.4355,-7.4182,-7.3928,-7.4808,0.0,0.0,-7.539,-7.5312,-7.5459,-7.6127,-7.6717,-7.7513,-7.916,-7.9131,-7.8989,-7.8989,-7.9804,-8.0421,-8.039,-8.2158,-8.3847,-1.1235,0.0,0.0,0.0,0.0,-0.9461,-1.0679,-1.0018,-1.375,-1.4345,-1.2506,-1.1964,0.0,0.0,0.0,0.0,0.0,0.0,-3.3829,-3.6464,-4.103,-4.1622,-3.8829,-3.7352,-3.6264,-3.5379,-3.2201,-3.153,-3.2984,-2.9346,-2.5977,-2.2974,0.0,0.0,0.0,0.0,-3.7553,-3.8632,-4.1015,-4.1583,-4.0244,-4.1251,-4.323,-4.6048,-4.4261,-4.1834,-3.8854,-3.293,-2.8503,-2.6123,-2.4015,0.0,0.0,0.0,0.0,0.0,0.0,0.0,0.0,0.0,0.0,0.0,0.0,0.0,0.0,0.0,0.0,0.0,0.0,0.0,-3.8251,-3.9421,-4.0261,0.0,0.0,0.0,0.0,0.0,0.0,0.0,0.0,0.0,-6.1671,-6.1404,-6.1712,0.0,0.0,-6.2973,-6.4315,-6.5642,-6.712,-6.896,-7.0585,0.0,-7.4565,-7.5237,-7.5425,-7.5178,-7.5702,-7.6037,-7.5585,-7.6459,-7.7252,-7.7246,-7.793,-7.8786,-7.97,-7.9896,-7.9916,-8.004,-7.9999,-8.0311,-8.1528,-8.3171,-8.4266,-1.4991,-1.3,-1.0895,-1.074,-1.2204,-1.5473,-1.7004,-1.7279,-2.0635,-2.1049,-1.9373,-1.937,-1.801,-1.5579,-1.4212,0.0,0.0,0.0,-3.6972,-4.0775,-4.3062,-4.3679,-4.2686,-4.103,-4.0224,-4.0182,-3.7073,-3.635,-3.7858,-3.5572,-3.3447,-3.1408,0.0,-2.9862,-3.3469,-3.6666,-3.8369,-3.8608,-4.0253,-4.037,-3.8741,-4.0838,-4.31,-4.5294,-4.3968,-4.1886,-3.8989,-3.3103,-2.8635,-2.5985,-2.3551,-2.1784,0.0,0.0,0.0,0.0,0.0,0.0,0.0,0.0,0.0,0.0,0.0,-2.7185,-2.7383,0.0,0.0,0.0,-3.6187,-3.7925,-3.8723,-4.0092,0.0,0.0,0.0,0.0,0.0,0.0,0.0,-5.6233,-5.8625,-6.0987,-6.3596,-6.343,-6.363,-6.5374,-6.5572,-6.5884,-6.6548,0.0,-6.8954,-7.0405,-7.1858,-7.3358,-7.485,-7.5857,-7.6349,-7.5989,-7.6223,-7.6294,-7.5776,-7.6504,-7.7053,-7.7071,-7.8088,-7.9287,-7.968,-8.0491,-8.103,-8.0796,-8.0773,-8.1203,-8.2314,-8.3657,-8.4616,-1.6766,-1.8074,-1.4151,-1.5726,-2.0512,-1.8225,-2.0681,-2.6421,-2.7773,-2.7687,-2.6437,-2.6019,-2.3634,-1.9994,-1.961,0.0,-2.6375,-3.0689,-3.6009,-4.1957,-4.2289,-4.2987,-4.3874,-4.2462,-4.1852,-4.194,-4.1417,-4.1043,-4.0766,-3.9174,-3.9095,-4.0391,-3.7271,-3.5741,-3.6048,-3.8555,-4.0034,-4.0268,-3.9776,-3.8944,-3.7885,-4.1358,-4.3823,-4.4956,-4.3159,-4.0706,-3.7614,-3.2139,-2.7656,-2.4447,-2.2737,-2.1762,-2.1502,0.0,0.0,0.0,0.0,0.0,0.0,0.0,0.0,0.0,0.0,0.0,0.0,0.0,0.0,-3.5453,-3.8482,0.0,-4.0653,-4.1334,0.0,0.0,0.0,-4.7302,-4.9086,-5.2295,-5.5227,-5.7514,0.0,0.0,-6.4253,-6.5274,-6.6328,-6.7851,-6.8867,-6.9674,-7.0303,-7.0586,-7.1412,-7.2569,-7.3135,-7.3812,-7.4907,-7.5921,-7.6634,-7.6896,-7.6483,-7.6014,-7.5845,-7.5918,-7.5824,-7.5775,-7.7657,-7.9233,-7.9214,-8.0957,-8.2223,-8.1162,-8.1831,-8.2646,-8.2754,-8.3815,-8.481,-1.6031,-1.3598,-1.8524,-2.1145,-2.1835,-2.1165,-2.2154,-2.45,-2.7279,-2.8802,-2.9453,-3.1232,-3.1558,-3.0815,-3.2319,-3.3595,-3.4771,-3.7422,-3.9317,-4.0613,-4.172,-4.0917,-3.8629,-3.8861,-3.8815,-3.8469,-3.8783,-4.0312,-4.2752,-4.2159,-4.2304,-4.3153,-4.2472,-4.0966,-3.8862,-4.0033,-3.9662,-3.7507,-3.8397,-3.8719,-3.8622,-4.0623,-4.2288,-4.3464,-4.138,-3.9899,-3.909,-3.2255,-2.8001,-2.7011,-2.3259,-2.1104,-2.1016,-2.1902,0.0,0.0,0.0,0.0,0.0,0.0,0.0,0.0,0.0,-2.8481,-2.911,0.0,-3.2445,0.0,-3.8446,-4.0661,-4.0894,-4.2126,0.0,0.0,-4.6647,-4.9028,-5.1348,-5.386,-5.6063,-5.7777,-6.0024,-6.2251,-6.4433,-6.6255,-6.7636,-6.8428,-6.9379,-7.0075,-7.024,-7.0935,-7.1783,-7.2704,-7.3494,-7.4052,-7.4356,-7.5218,-7.6219,-7.699,-7.6914,-7.6601,-7.5919,-7.6314,-7.6496,-7.5947,-7.7702,-7.9174,-7.9214,-8.0806,-8.1873,-8.1577,-8.2082,-8.2736,-8.2986,-8.3639,-8.4158,-0.9921,-0.865,-1.4532,-1.7605,-1.8661,-2.0275,-2.1245,-2.201,-2.4942,-2.743,-2.973,-3.4154,-3.6068,-3.6141,-3.7184,-3.7427,-3.7136,-3.7691,-3.7714,-3.7266,-3.7407,-3.6343,-3.4235,-3.4485,-3.4622,-3.4586,-3.5525,-3.7674,-4.0682,-4.0991,-4.1849,-4.3324,-4.2885,-4.1783,-4.0021,-4.0254,-3.9182,-3.6785,-3.7151,-3.8124,-3.9608,-3.9909,-4.1079,-4.3045,-4.0026,-3.8243,-3.8175,-3.2359,-2.8649,-2.7598,-2.4675,-2.2838,-2.2617,-2.3405,-2.3989,0.0,0.0,0.0,0.0,0.0,0.0,0.0,0.0,0.0,0.0,0.0,-3.4909,-3.6939,-3.9482,-4.1114,-4.1396,-4.3202,-4.4493,-4.4904,-4.8022,-5.0691,-5.2068,-5.5156,-5.7659,-5.8957,-6.0863,-6.2954,-6.5143,-6.597,-6.6897,-6.8357,-6.915,-6.9741,-7.0263,-7.106,-7.1874,-7.2366,-7.3173,-7.3898,-7.4143,-7.5048,-7.574,-7.597,-7.6587,-7.6551,-7.4999,-7.6004,-7.6521,-7.5113,-7.6965,-7.8932,-7.8893,-8.0201,-8.1431,-8.1757,-8.2172,-8.2738,-8.3259,-8.3815,-8.4289,-0.2081,-0.321,-0.6996,-1.0716,-1.419,-1.6792,-1.8546,-1.9837,-2.2204,-2.5369,-2.9204,-3.5366,-3.79,-3.7644,-3.7471,-3.6931,-3.5925,-3.4742,-3.3848,-3.3108,-3.1799,-3.1126,-3.1006,-3.027,-3.0397,-3.1308,-3.2217,-3.4292,-3.7354,-3.8036,-3.9715,-4.2165,-4.1221,-4.0469,-4.0046,-3.9544,-3.8369,-3.6658,-3.6048,-3.7361,-4.0639,-3.9415,-4.0149,-4.2799,-3.9061,-3.6645,-3.6194,-3.2319,-2.9387,-2.7839,-2.6345,-2.551,-2.5376,-2.5814,-2.6527,0.0,-2.9374,0.0,0.0,0.0,0.0,0.0,0.0,0.0,0.0,-3.696,-3.8233,-3.9804,-4.1018,-4.1885,-4.23,-4.4417,-4.579,-4.5808,-4.9605,-5.2265,-5.2568,-5.633,-5.9348,-6.0286,-6.1798,-6.3686,-6.5607,-6.5229,-6.5804,-6.7952,-6.8935,-6.9663,-7.0512,-7.1464,-7.2023,-7.1858,-7.2505,-7.3281,-7.4201,-7.4913,-7.5092,-7.4753,-7.5787,-7.5943,-7.3697,-7.5389,-7.6286,-7.4218,-7.6074,-7.8214,-7.8165,-7.9517,-8.0935,-8.154,-8.2182,-8.2844,-8.3441,-8.4138,-8.4669,0.0605,0.2937,-0.3322,-0.9262,-1.4191,-1.0584,-1.3179,-2.006,-2.2143,-2.6045,-3.125,-3.4759,-3.6094,-3.5779,-3.6185,-3.5483,-3.3827,-3.2617,-3.1487,-3.0413,-2.8948,-2.9121,-3.0359,-2.8266,-2.8798,-3.1375,-2.9903,-3.2192,-3.7978,-3.6958,-3.8495,-4.2408,-4.1144,-4.003,-3.9108,0.0,0.0,0.0,-3.4771,-3.6722,-4.0169,-3.9664,-3.9929,-4.1246,-3.8538,0.0,-3.5768,-3.1483,-2.9588,-3.0403,-2.77,0.0,0.0,0.0,0.0,0.0,0.0,0.0,0.0,0.0,0.0,0.0,-3.9377,-3.9031,-3.7987,-3.9344,-4.0483,-4.0988,-4.2284,-4.3376,-4.3939,-4.6022,-4.7623,-4.8321,-5.1255,-5.3744,-5.4912,-5.7897,-5.9969,-6.0408,-6.2798,-6.4398,-6.4593,-6.6053,-6.7505,-6.8112,-6.9515,-7.095,-7.1952,-7.2587,-7.2692,-7.201,-7.2059,-7.2653,-7.4101,-7.3939,-7.3952,-7.4414,-7.5272,-7.517,-7.3817,-7.5308,-7.6132,-7.3744,-7.5972,-7.8079,-7.7395,-7.9164,-8.0826,-8.0935,-8.1911,-8.2907,-8.3432,-8.3999,-8.448,0.7719,0.8867,0.2622,-0.2319,0.0,-0.7605,-1.2603,-1.9745,-2.0561,-2.4936,-3.1671,-3.4294,-3.5235,-3.4914,-3.5671,-3.4167,-3.0998,-3.0936,-2.8527,-2.4353,-2.5186,-2.4822,-2.3455,-2.3667,-2.4308,-2.5375,-2.5841,-2.9418,-3.5471,-3.52,-3.7761,-4.3099,-4.0924,-3.9638,-3.918,-3.6483,-3.4755,-3.4133,-3.5939,-3.7849,-3.9804,-3.9328,-3.9434,-4.0164,-3.7041,0.0,0.0,0.0,0.0,0.0,0.0,0.0,0.0,-3.1022,0.0,-3.3213,-3.4024,-3.5152,-3.681,-3.8702,-4.0356,-4.1731,-4.2774,-4.2812,-4.1573,-4.1797,-4.2215,-4.273,-4.3271,-4.3989,-4.5049,-4.6872,-4.8363,-4.9326,-5.2452,-5.4858,-5.5738,-5.8702,-6.0951,-6.1456,-6.3313,-6.496,-6.5786,-6.6636,-6.7911,-6.8902,-6.9783,-7.0921,-7.225,-7.292,-7.3005,-7.2539,-7.2064,-7.2124,-7.2861,-7.3133,-7.2974,-7.331,-7.4197,-7.4381,-7.3416,-7.4985,-7.585,-7.4375,-7.6015,-7.7539,-7.7295,-7.8796,-8.036,-8.0775,-8.1898,-8.2859,-8.3154,-8.3611,-8.4134,1.4942,1.4013,0.8756,0.5479,0.3144,-0.5671,-1.3711,-2.0665,-2.074,0.0,0.0,-3.3526,-3.4253,-3.3564,-3.4404,-3.2331,-2.8169,-2.8253,-2.4949,-1.9069,-2.1538,-2.0928,-1.7768,-1.9965,-2.0761,-2.0215,-2.2495,-2.6909,-3.2923,-3.3438,-3.6907,-4.2601,-4.0516,-3.9138,-3.9039,-3.6432,-3.4794,-3.4628,-3.707,-3.8834,-3.9554,-3.8869,-3.8568,-3.8717,-3.5433,-3.3166,-3.2252,-3.1888,-3.1135,-2.9848,-3.0956,-3.183,-3.2186,-3.3661,-3.4896,-3.5739,-3.8172,-3.9658,-3.9565,-4.1819,-4.3403,-4.3933,-4.4878,-4.5161,-4.4606,-4.3764,-4.3535,-4.4236,-4.3948,-4.4356,-4.5917,-4.7543,-4.8886,-4.9882,-5.3363,-5.5686,-5.5963,-5.9316,-6.1955,-6.25,-6.3916,-6.554,-6.7236,-6.7379,-6.7821,-6.9518,-7.0105,-7.0683,-7.221,-7.2952,-7.3204,-7.3231,-7.2478,-7.1809,-7.1828,-7.2186,-7.2337,-7.2055,-7.3055,-7.3639,-7.3406,-7.4374,-7.5052,-7.4062,-7.5622,-7.6597,-7.6797,-7.8235,-7.9728,-8.0454,-8.1858,-8.2958,-8.2854,-8.3141,-8.3702,1.7058,1.7296,1.3307,0.9676,0.5775,-0.3433,-1.4497,-2.5979,-2.7303,-2.7875,-2.8126,-3.1938,-3.1942,-2.9173,-3.0202,-2.8926,-2.5716,-2.2408,-2.0411,-1.961,-1.9322,-2.0393,-2.2564,-2.1796,-2.2547,-2.4414,-2.3328,-2.618,-3.1991,-3.2192,-3.5321,-4.0938,-3.9756,-3.8302,-3.7521,-3.8461,-3.7936,-3.5718,-3.5754,-3.7116,-3.9685,-3.8608,-3.6967,-3.4987,-3.4333,-3.3057,-3.0903,-3.0949,-3.1334,-3.1938,-3.2001,-3.288,-3.4753,-3.5581,-3.6828,-3.8499,-3.9671,-4.0949,-4.2391,-4.4056,-4.5179,-4.5734,-4.5631,-4.5214,-4.4597,-4.4064,-4.3889,-4.4236,-4.4316,-4.5056,-4.6968,-4.848,-4.9805,-5.1131,-5.4133,-5.6437,-5.7181,-6.0191,-6.2551,-6.3236,-6.4926,-6.6049,-6.6768,-6.7783,-6.8612,-6.9327,-7.0486,-7.198,-7.3016,-7.3161,-7.3276,-7.3574,-7.2585,-7.1669,-7.1403,-7.1378,-7.1455,-7.1564,-7.2168,-7.2563,-7.2149,-7.3477,-7.4122,-7.2713,-7.4591,-7.5638,-7.5254,-7.7473,-7.9295,-7.992,-8.1435,-8.2844,-8.2862,-8.2979,-8.3347,1.7458,1.7564,1.383,1.0793,0.7509,-0.7493,-1.8404,-2.5872,-2.9113,-3.0202,-2.9762,-3.0974,-3.0766,-2.9671,-2.9709,-2.7293,-2.3014,-2.2433,-2.0068,-1.6652,-1.8254,-1.9063,-1.9295,-2.0112,-2.1059,-2.1955,-2.2195,-2.5851,-3.2194,-3.2074,-3.559,-4.25,-4.0997,-3.9313,-3.8109,-3.7836,-3.7617,-3.7489,-3.8286,-3.8163,-3.7083,-3.7015,-3.5723,-3.306,-3.2111,-3.1236,-3.0266,-3.0559,-3.105,-3.1856,-3.2533,-3.3875,-3.5875,-3.6043,-3.7336,-4.0101,-4.0765,-4.1784,-4.3495,-4.4788,-4.5667,-4.5854,-4.5563,-4.5001,-4.4259,-4.3798,-4.3856,-4.4541,-4.4507,-4.5554,-4.8134,-4.9126,-5.0308,-5.2113,-5.4828,-5.6781,-5.7903,-6.0559,-6.2724,-6.3562,-6.5004,-6.6248,-6.6954,-6.8054,-6.9005,-6.9535,-7.0872,-7.2293,-7.3514,-7.2905,-7.2517,-7.2967,-7.2189,-7.1299,-7.0777,-7.056,-7.0367,-7.0021,-7.0583,-7.1219,-7.1485,-7.2791,-7.3553,-7.4011,-7.5059,-7.567,-7.567,-7.7804,-7.9191,-7.968,-8.1092,-8.2332,-8.2474,-8.2876,-8.3502,1.7546,1.8059,1.4417,1.0225,0.4544,-1.2455,-2.2137,-2.6103,-2.9699,-3.1274,-3.1185,-3.0363,-2.9964,-2.9789,-2.9187,-2.6441,-2.2723,-2.2655,-2.0094,-1.5857,-1.8765,-1.9334,-1.7803,-1.9959,-2.0975,-2.0952,-2.2698,-2.6931,-3.2537,-3.3125,-3.6671,-4.285,-4.1692,-4.0061,-3.8691,-3.7006,-3.6716,-3.786,-3.9282,-3.8218,-3.4727,-3.5021,-3.3758,-3.0665,-2.9479,-2.8831,-2.8694,-2.9526,-3.0366,-3.1214,-3.251,-3.4209,-3.6369,-3.6305,-3.7593,-4.0639,-4.1362,-4.2261,-4.3968,-4.5146,-4.5649,-4.5459,-4.523,-4.4652,-4.3914,-4.3562,-4.3764,-4.4618,-4.4674,-4.5872,-4.8515,-4.9482,-5.0543,-5.2711,-5.5129,-5.6968,-5.8165,-6.0707,-6.2871,-6.3789,-6.5197,-6.6521,-6.7385,-6.8365,-6.9315,-7.0228,-7.1121,-7.2062,-7.2838,-7.2215,-7.1803,-7.1621,-7.1255,-7.0583,-6.9903,-6.9586,-6.9262,-6.859,-6.9308,-7.0194,-7.1021,-7.1909,-7.2938,-7.4195,-7.4987,-7.5406,-7.6386,-7.8043,-7.9119,-7.9509,-8.0914,-8.203,-8.2104,-8.2815,-8.3683,1.8017,1.9502,1.7125,0.7401,-0.6099,-1.5501,-2.3151,-2.9242,-3.0324,-3.0468,-3.0377,-3.0503,-2.9231,-2.73,-2.6841,-2.6213,-2.5135,-2.0597,-1.9059,-2.0135,-2.2042,-2.2945,-2.2936,-2.4528,-2.5647,-2.6222,-2.781,-3.0201,-3.3619,-3.5989,-3.8672,-4.1208,-4.0234,-3.9048,-3.8113,-3.7204,-3.623,-3.5027,-3.5168,-3.4814,-3.3991,-3.2638,-3.0069,-2.6095,-2.6816,-2.6266,-2.4767,-2.7024,-2.9114,-3.0237,-3.1477,-3.3522,-3.6237,-3.6654,-3.7808,-4.0453,-4.1222,-4.2387,-4.4337,-4.5182,-4.5407,-4.5001,-4.4708,-4.4202,-4.3323,-4.3476,-4.3856,-4.4485,-4.4947,-4.6239,-4.8443,-4.9329,-5.0488,-5.2372,-5.4814,-5.6966,-5.8689,-6.0976,-6.3031,-6.4623,-6.5878,-6.7202,-6.7607,-6.8785,-7.0004,-7.0953,-7.0914,-7.118,-7.1441,-7.0873,-7.0498,-7.0004,-6.942,-6.912,-6.8977,-6.8548,-6.7974,-6.8109,-6.8921,-6.945,-6.9959,-7.0753,-7.1792,-7.2885,-7.3481,-7.4353,-7.5431,-7.6894,-7.9135,-7.9555,-8.0608,-8.1858,-8.2076,-8.2637,-8.3396,1.8312,1.934,1.735,0.8516,-0.4266,-1.1233,-1.827,-2.5255,-2.7933,-2.8666,-2.8259,-2.8697,-2.8556,-2.8112,-2.8442,-2.744,-2.5328,-2.4336,-2.3353,-2.2704,-2.369,-2.4624,-2.5517,-2.6214,-2.686,-2.7512,-2.9113,-3.1155,-3.3709,-3.7077,-3.9229,-3.9676,-3.8673,-3.7356,-3.5836,-3.3768,-3.231,-3.1515,-3.045,-2.9663,-2.9164,-2.8724,-2.7246,-2.4988,-2.4346,-2.443,-2.501,-2.7041,-2.9151,-3.1076,-3.2848,-3.4949,-3.7402,-3.7095,-3.8193,-4.112,-4.2625,-4.389,-4.5196,-4.5425,-4.5249,-4.4708,-4.4519,-4.4064,-4.3416,-4.3831,-4.4259,-4.4597,-4.5108,-4.6377,-4.8558,-4.9329,-5.0315,-5.219,-5.4479,-5.6459,-5.7732,-5.9928,-6.203,-6.3727,-6.5122,-6.6404,-6.7464,-6.8641,-6.996,-7.0901,-7.0272,-6.9444,-7.0789,-6.9532,-6.8208,-6.8107,-6.6883,-6.6267,-6.7083,-6.6446,-6.5804,-6.5615,-6.6217,-6.7169,-6.8416,-6.9037,-6.9997,-7.1879,-7.2598,-7.3762,-7.5603,-7.6979,-7.8733,-7.9409,-8.0278,-8.1384,-8.2028,-8.2853,-8.3714,1.9364,1.9616,1.7119,0.9432,-0.1326,-0.7481,-1.4786,-2.2386,-2.6265,-2.7336,-2.6805,-2.7569,-2.8253,-2.8873,-2.9943,-2.9308,-2.7954,-2.8886,-2.8573,-2.6969,-2.6838,-2.7552,-2.8817,-2.8633,-2.9031,-2.9984,-3.1086,-3.2739,-3.4963,-3.7674,-3.902,-3.827,-3.6935,-3.5179,-3.3051,-3.0482,-2.9056,-2.8515,-2.7008,-2.5833,-2.5222,-2.4945,-2.4445,-2.3535,-2.2559,-2.2834,-2.4669,-2.6729,-2.8976,-3.1441,-3.3446,-3.5419,-3.7402,-3.7105,-3.8222,-4.1249,-4.3097,-4.4138,-4.4628,-4.4803,-4.4619,-4.4103,-4.4102,-4.3981,-4.3713,-4.4088,-4.4597,-4.4872,-4.532,-4.6615,-4.8473,-4.9447,-5.0474,-5.2138,-5.4219,-5.5882,-5.7322,-5.9275,-6.1318,-6.3238,-6.4697,-6.5891,-6.7384,-6.8222,-6.8875,-6.9442,-6.8194,-6.7004,-6.8653,-6.6812,-6.5475,-6.5939,-6.3815,-6.3396,-6.5201,-6.4768,-6.3689,-6.3725,-6.4494,-6.579,-6.6895,-6.7572,-6.8675,-7.0825,-7.1372,-7.2659,-7.4904,-7.67,-7.8423,-7.946,-8.0381,-8.1116,-8.199,-8.294,-8.3635,2.1384,2.1774,1.6947,0.9503,0.0332,-0.6651,-1.5204,-2.3534,-2.6133,-2.6919,-2.6715,-2.8076,-2.8514,-2.8326,-2.999,-3.2249,-3.4094,-3.3009,-3.3175,-3.3931,-3.2405,-3.2581,-3.4269,-3.3072,-3.3346,-3.4533,-3.4545,-3.5936,-3.8455,-3.8403,-3.8055,-3.7108,-3.4786,-3.2468,-3.0115,-2.8498,-2.7406,-2.6268,-2.5348,-2.4445,-2.3347,-2.1884,-2.1568,-2.1873,-2.1789,-2.2119,-2.2988,-2.5376,-2.812,-3.0607,-3.2445,-3.4121,-3.5931,-3.6551,-3.7951,-4.0466,-4.1843,-4.2327,-4.2208,-4.3132,-4.3559,-4.3126,-4.3614,-4.3864,-4.3713,-4.4316,-4.4818,-4.5054,-4.5873,-4.6976,-4.8223,-4.9472,-5.0809,-5.2271,-5.394,-5.5759,-5.7703,-5.9319,-6.1382,-6.3568,-6.4916,-6.617,-6.7924,-6.7617,-6.6884,-6.6482,-6.5815,-6.5043,-6.3694,-6.3332,-6.2896,-6.2118,-6.1011,-6.051,-6.3494,-6.3143,-6.2681,-6.2803,-6.3272,-6.4953,-6.6051,-6.716,-6.8411,-6.9763,-7.0612,-7.2052,-7.419,-7.6125,-7.7934,-7.9225,-8.023,-8.1095,-8.187,-8.2412,-8.32,2.1633,2.1009,1.7103,1.1002,0.3578,-0.2267,-0.9533,-1.7475,-2.1174,-2.3052,-2.4079,-2.6385,-2.7248,-2.6861,-2.9762,-3.24,-3.457,-3.5323,-3.6107,-3.6669,-3.5816,-3.593,-3.6659,-3.5989,-3.5356,-3.5219,-3.5816,-3.6408,-3.6555,-3.4905,-3.3759,-3.3077,-3.0839,-2.8514,-2.6681,-2.5547,-2.4317,-2.2998,-2.2972,-2.2616,-2.169,-2.1325,-2.1429,-2.18,-2.1579,-2.2518,-2.4724,-2.7174,-2.9822,-3.2695,-3.4554,-3.6088,-3.7155,-3.8104,-3.9132,-4.0446,-4.1704,-4.2265,-4.2124,-4.2988,-4.3348,-4.2765,-4.3605,-4.4097,-4.4064,-4.4652,-4.5249,-4.5719,-4.7202,-4.8296,-4.8448,-4.8972,-5.0171,-5.2408,-5.4011,-5.5599,-5.7364,-5.9512,-6.1559,-6.294,-6.4778,-6.6494,-6.6462,-6.6344,-6.5448,-6.4009,-6.2529,-6.1357,-6.0717,-5.9651,-5.859,-5.8323,-5.7286,-5.6832,-5.8173,-5.9598,-6.0107,-6.0769,-6.1524,-6.2875,-6.4124,-6.4451,-6.5459,-6.7926,-6.9207,-7.1107,-7.3208,-7.6224,-7.7874,-7.932,-8.035,-8.0729,-8.1738,-8.2523,-8.3386,2.2988,2.1584,1.8544,1.3085,0.6339,0.119,-0.5757,-1.3608,-1.8554,-2.1436,-2.3224,-2.6835,-2.8243,-2.8232,-3.1106,-3.3695,-3.5567,-3.6848,-3.777,-3.8489,-3.8206,-3.8189,-3.8296,-3.7926,-3.6953,-3.5721,-3.5835,-3.5667,-3.4592,-3.236,-3.0566,-2.9312,-2.7314,-2.5335,-2.3509,-2.2835,-2.1931,-2.09,-2.1022,-2.1033,-2.0642,-2.0587,-2.11,-2.1826,-2.1958,-2.3246,-2.595,-2.8248,-3.0815,-3.3532,-3.546,-3.6685,-3.7378,-3.8854,-3.9754,-3.9997,-4.0891,-4.1408,-4.1365,-4.224,-4.2702,-4.2375,-4.3322,-4.4064,-4.4212,-4.4797,-4.5302,-4.6063,-4.7442,-4.8608,-4.8776,-4.8921,-5.0171,-5.2818,-5.4267,-5.5633,-5.7562,-5.9838,-6.1655,-6.321,-6.5014,-6.5806,-6.492,-6.3752,-6.209,-6.0407,-5.8204,-5.6994,-5.6528,-5.5311,-5.3917,-5.4022,-5.3363,-5.3304,-5.4311,-5.5473,-5.7599,-5.8502,-5.9417,-6.0771,-6.1876,-6.2069,-6.3253,-6.5778,-6.8078,-7.0054,-7.2669,-7.5841,-7.7871,-7.9358,-7.9858,-8.0116,-8.1337,-8.2766,-8.3662,2.5492,2.4185,2.1273,1.548,0.8596,0.3302,-0.4523,-1.2679,-1.8623,-2.1522,-2.3816,-2.9166,-3.0757,-3.1773,-3.359,-3.6294,-3.7691,-3.7372,-3.8227,-3.9994,-3.952,-3.9051,-3.8902,-3.8369,-3.7537,-3.6425,-3.53,-3.3978,-3.253,-3.0717,-2.8359,-2.5702,-2.4629,-2.282,-2.0318,-2.0763,-2.0483,-1.9765,-1.9557,-1.9742,-2.0291,-1.937,-1.9797,-2.1786,-2.2591,-2.3917,-2.5846,-2.8338,-3.0771,-3.2998,-3.4515,-3.5432,-3.6588,-3.8254,-3.9209,-3.8807,-3.9327,-3.9506,-3.9541,-4.0768,-4.1766,-4.2009,-4.2949,-4.3948,-4.4236,-4.4652,-4.5196,-4.6079,-4.7146,-4.8084,-4.8947,-4.9674,-5.1175,-5.3774,-5.4613,-5.5948,-5.841,-6.0088,-6.1858,-6.4339,-6.5363,-6.4733,-6.2718,-6.0393,-5.79,-5.5586,-5.3567,-5.1995,-5.144,-5.0546,-4.9799,-4.9576,-4.9688,-5.0049,-5.0767,-5.1796,-5.4231,-5.6364,-5.7417,-5.8552,-5.9706,-6.0254,-6.1523,-6.3859,-6.672,-6.8809,-7.2001,-7.497,-7.7064,-7.8417,-7.8812,-7.9761,-8.1362,-8.2832,-8.3755,2.5411,2.4034,2.0682,1.6559,1.1766,0.6716,0.0388,-0.6331,-1.1401,-1.6565,-2.1629,-2.5473,-2.8926,-3.1913,-3.346,-3.5465,-3.8125,-3.7432,-3.7971,-3.9519,-3.9141,-3.8284,-3.7567,-3.7301,-3.6548,-3.491,-3.258,-3.0707,-2.895,-2.6054,-2.3417,-2.2105,-2.0876,-1.965,-1.8651,-1.9174,-1.9083,-1.7997,-1.824,-1.8088,-1.7312,-1.7552,-1.8683,-2.0386,-2.1453,-2.3268,-2.6214,-2.8626,-3.0786,-3.2779,-3.4644,-3.6132,-3.7098,-3.7378,-3.7642,-3.8005,-3.8739,-3.9325,-3.9719,-4.0956,-4.1866,-4.2261,-4.3642,-4.4395,-4.4463,-4.5015,-4.5858,-4.6871,-4.7964,-4.8976,-5.0076,-5.1185,-5.2677,-5.4758,-5.5098,-5.6294,-5.897,-6.0805,-6.281,-6.4649,-6.4337,-6.2851,-6.0808,-5.8052,-5.511,-5.2444,-5.0656,-4.9351,-4.8,-4.7445,-4.6882,-4.6433,-4.6696,-4.717,-4.8169,-4.9174,-5.0952,-5.3195,-5.4728,-5.6129,-5.733,-5.8831,-6.0088,-6.2522,-6.5395,-6.8217,-7.1375,-7.3977,-7.6133,-7.7819,-7.8754,-8.0068,-8.1624,-8.2806,-8.3656,2.5577,2.4319,2.1478,1.7843,1.3941,1.0154,0.4389,-0.2718,-0.8538,-1.4731,-2.089,-2.5756,-2.9555,-3.2729,-3.365,-3.5546,-3.8086,-3.7196,-3.7522,-3.8818,-3.8567,-3.7599,-3.6133,-3.4256,-3.3577,-3.2358,-2.8841,-2.6552,-2.5677,-2.2236,-1.9985,-1.9243,-1.7912,-1.7204,-1.69,-1.7255,-1.7079,-1.6677,-1.6921,-1.6417,-1.5599,-1.5891,-1.7171,-1.8836,-2.0179,-2.2532,-2.567,-2.7475,-2.9503,-3.2099,-3.4589,-3.6137,-3.639,-3.663,-3.6942,-3.7229,-3.7922,-3.8748,-3.9609,-4.0922,-4.1988,-4.2551,-4.3968,-4.4763,-4.472,-4.5455,-4.6516,-4.7442,-4.8714,-4.9906,-5.0959,-5.1912,-5.3455,-5.5409,-5.5869,-5.7113,-5.9382,-6.0668,-6.1691,-6.2437,-6.162,-5.9928,-5.7924,-5.5043,-5.2358,-4.9711,-4.8142,-4.6949,-4.5547,-4.5086,-4.4497,-4.4003,-4.4227,-4.4939,-4.5693,-4.6628,-4.7782,-4.9776,-5.1786,-5.3411,-5.4906,-5.6852,-5.8429,-6.2347,-6.5534,-6.8218,-7.1251,-7.347,-7.5552,-7.7002,-7.8618,-7.9924,-8.1224,-8.249,-8.3556,2.5903,2.5051,2.3251,1.9507,1.5084,1.3014,0.6857,-0.2093,-0.9182,-1.5699,-2.2159,-2.7948,-3.2089,-3.377,-3.4697,-3.6377,-3.7888,-3.7214,-3.7063,-3.7789,-3.7652,-3.6829,-3.5111,-3.1029,-2.9562,-2.9386,-2.4546,-2.2043,-2.1823,-1.9125,-1.7809,-1.6682,-1.5533,-1.52,-1.5001,-1.4972,-1.5102,-1.5301,-1.5431,-1.5008,-1.4043,-1.3997,-1.5097,-1.7066,-1.8807,-2.1145,-2.4067,-2.5565,-2.7575,-3.1029,-3.3922,-3.4818,-3.4638,-3.6105,-3.6785,-3.651,-3.7074,-3.8334,-3.9502,-4.0786,-4.1853,-4.2856,-4.4002,-4.4631,-4.4899,-4.5868,-4.6795,-4.7588,-4.9038,-5.046,-5.1241,-5.2042,-5.3379,-5.5444,-5.6404,-5.773,-5.9357,-5.9643,-5.97,-5.9226,-5.7932,-5.6433,-5.451,-5.122,-4.8866,-4.7077,-4.5597,-4.4521,-4.3778,-4.3302,-4.2546,-4.242,-4.25,-4.313,-4.3979,-4.4988,-4.615,-4.7263,-4.92,-5.088,-5.3032,-5.5129,-5.7731,-6.1649,-6.5515,-6.8256,-7.0769,-7.3048,-7.5146,-7.6985,-7.8329,-7.9472,-8.0794,-8.2223,-8.3394,2.5713,2.4235,2.2299,2.0096,1.7357,1.3287,0.717,0.0074,-0.586,-1.3937,-2.1509,-2.594,-2.997,-3.2985,-3.5085,-3.6551,-3.7214,-3.7187,-3.7109,-3.7204,-3.6228,-3.4808,-3.2794,-2.9177,-2.6634,-2.5348,-2.0637,-1.8259,-1.7586,-1.4765,-1.3368,-1.3052,-1.186,-1.1476,-1.1805,-1.2372,-1.244,-1.2551,-1.3424,-1.277,-1.1199,-1.0341,-1.1432,-1.4615,-1.6493,-1.914,-2.2495,-2.4978,-2.7566,-3.0511,-3.1272,-3.2513,-3.374,-3.4662,-3.5494,-3.6477,-3.7402,-3.8613,-3.9941,-4.1106,-4.2199,-4.3331,-4.4517,-4.5123,-4.4865,-4.6132,-4.7161,-4.7876,-4.8907,-4.9835,-5.064,-5.1546,-5.2846,-5.4125,-5.5516,-5.7012,-5.7673,-5.7986,-5.7577,-5.6348,-5.5504,-5.3733,-5.1343,-4.905,-4.6933,-4.5718,-4.4422,-4.32,-4.242,-4.1783,-4.1271,-4.1013,-4.1119,-4.1761,-4.25,-4.3529,-4.4497,-4.5352,-4.6837,-4.8516,-5.1058,-5.3905,-5.6992,-6.0606,-6.4724,-6.783,-7.0434,-7.2869,-7.4875,-7.7084,-7.8238,-7.9472,-8.087,-8.2261,-8.3163,2.5741,2.4349,2.2774,2.1076,1.8676,1.2298,0.6397,0.0647,-0.6188,-1.4188,-2.222,-2.6443,-2.9903,-3.3406,-3.483,-3.6102,-3.704,-3.6891,-3.6879,-3.6822,-3.5484,-3.2894,-2.9416,-2.5604,-2.2163,-1.9013,-1.4746,-1.2596,-1.1652,-0.9555,-0.8708,-0.8734,-0.8169,-0.8273,-0.9383,-1.0493,-1.0778,-1.0395,-1.0229,-0.9076,-0.7563,-0.8319,-0.9388,-1.197,-1.4447,-1.8253,-2.1743,-2.449,-2.6978,-2.8639,-2.9604,-3.0844,-3.2596,-3.3309,-3.4476,-3.6374,-3.7404,-3.8529,-4.0405,-4.1609,-4.2712,-4.3729,-4.4961,-4.549,-4.5868,-4.6864,-4.7752,-4.7885,-4.9236,-4.9838,-4.9882,-5.056,-5.088,-5.1025,-5.2562,-5.4063,-5.4886,-5.4401,-5.368,-5.2653,-5.1599,-5.0434,-4.8186,-4.6493,-4.5255,-4.4251,-4.3004,-4.2016,-4.1248,-4.0625,-3.9953,-3.9561,-3.9713,-4.0344,-4.1119,-4.2016,-4.3529,-4.4302,-4.6239,-4.7536,-5.0889,-5.3901,-5.7182,-6.0825,-6.4281,-6.755,-7.0434,-7.3155,-7.537,-7.7206,-7.8346,-7.9547,-8.0912,-8.1793,-8.2717,2.6016,2.5245,2.4105,2.2266,1.9097,1.1532,0.5597,0.0071,-0.8537,-1.678,-2.361,-2.8608,-3.1729,-3.4527,-3.504,-3.5834,-3.7413,-3.7042,-3.5904,-3.4808,-3.248,-2.8625,-2.2448,-1.938,-1.5652,-1.1832,-0.7379,-0.5756,-0.5094,-0.3789,-0.3559,-0.3721,-0.4,-0.4976,-0.5894,-0.796,-0.8885,-0.7873,-0.6643,-0.5214,-0.4571,-0.6158,-0.7628,-0.8773,-1.3755,-1.7702,-2.0926,-2.3567,-2.55,-2.6577,-2.8518,-3.019,-3.1421,-3.2255,-3.4,-3.6297,-3.7258,-3.8552,-4.045,-4.1651,-4.2932,-4.3829,-4.4708,-4.5715,-4.6335,-4.7133,-4.7567,-4.7547,-4.9742,-4.9869,-4.9094,-4.9125,-4.8226,-4.7541,-4.7865,-4.9098,-5.0064,-4.9809,-4.8985,-4.8294,-4.6882,-4.5867,-4.4817,-4.3931,-4.273,-4.1752,-4.0751,-3.9845,-3.9103,-3.8576,-3.8067,-3.7688,-3.8109,-3.8925,-3.9713,-4.0625,-4.227,-4.3683,-4.6162,-4.84,-5.2336,-5.5511,-5.8355,-6.1513,-6.4771,-6.798,-7.1206,-7.3653,-7.5923,-7.7349,-7.8416,-7.9575,-8.0732,-8.1162,-8.1926,2.7394,2.6773,2.5004,2.3301,2.0525,1.2828,0.5669,-0.0636,-0.9839,-1.7658,-2.4165,-2.9258,-3.2337,-3.424,-3.586,-3.7591,-3.7731,-3.7358,-3.5768,-2.9365,-2.4652,-1.8423,-1.2885,-1.0805,-0.9238,-0.5549,-0.1889,0.0418,0.1406,0.1611,0.2069,0.2648,0.1469,0.0349,-0.0349,-0.2998,-0.4018,-0.349,-0.3898,-0.2989,-0.1403,-0.2607,-0.479,-0.6848,-1.2416,-1.6508,-1.914,-2.1909,-2.4089,-2.5785,-2.7851,-2.9905,-3.1268,-3.3131,-3.4668,-3.5846,-3.7443,-3.8544,-3.9499,-4.0984,-4.2234,-4.331,-4.4236,-4.4992,-4.5762,-4.6418,-4.6802,-4.7091,-4.8131,-4.8702,-4.7915,-4.652,-4.5298,-4.4354,-4.4286,-4.4173,-4.3698,-4.5152,-4.5411,-4.4345,-4.35,-4.2673,-4.1302,-4.0985,-3.9975,-3.9018,-3.8208,-3.7432,-3.6938,-3.642,-3.6169,-3.5937,-3.6764,-3.7739,-3.8961,-4.0236,-4.2234,-4.3879,-4.6264,-4.9171,-5.3114,-5.6388,-5.9015,-6.1917,-6.5091,-6.8292,-7.1611,-7.4221,-7.649,-7.7467,-7.8499,-7.9479,-8.0354,-8.0722,-8.1659,2.8485,2.773,2.7058,2.5648,2.2624,1.4728,0.8494,0.2564,-0.8537,-1.6701,-2.244,-2.8152,-3.2044,-3.4129,-3.5093,-3.5752,-3.579,-3.3951,-2.9247,-2.2627,-1.7511,-1.0911,-0.2908,-0.0613,0.0933,0.1525,0.3043,0.5377,0.6887,0.7506,0.7939,0.88,0.7625,0.6171,0.4459,0.1827,-0.0,-0.0853,-0.1373,-0.0904,0.0201,-0.0703,-0.3788,-0.734,-1.1849,-1.5166,-1.8926,-2.1154,-2.3403,-2.5544,-2.8046,-3.007,-3.1334,-3.3093,-3.4637,-3.6288,-3.7122,-3.881,-3.9831,-4.0864,-4.2007,-4.3108,-4.3798,-4.4666,-4.5454,-4.5912,-4.6019,-4.6385,-4.6949,-4.7324,-4.5958,-4.4137,-4.2435,-4.1417,-4.1389,-4.0623,-3.951,-4.0853,-4.243,-4.1281,-4.0738,-3.9941,-3.9042,-3.8381,-3.7473,-3.6629,-3.5103,-3.4321,-3.4496,-3.4121,-3.4277,-3.4515,-3.5413,-3.6569,-3.8048,-4.0126,-4.2754,-4.4546,-4.6611,-4.9747,-5.3406,-5.647,-5.9306,-6.2563,-6.5969,-6.8725,-7.1832,-7.4359,-7.6619,-7.7599,-7.8499,-7.9335,-8.0354,-8.1377,-8.2406,2.9654,2.887,2.9307,2.8025,2.4556,1.6674,1.1573,0.7605,-0.4772,-1.3528,-1.9452,-2.6055,-3.0281,-3.3415,-3.3382,-3.3438,-3.2056,-2.7707,-2.2046,-1.6048,-1.0715,-0.4267,0.3028,0.7029,0.9,0.8074,0.8761,1.0397,1.2201,1.2998,1.3183,1.3788,1.3323,1.1272,0.8558,0.6116,0.404,0.2187,0.1575,0.1306,0.141,0.0201,-0.3183,-0.753,-1.06,-1.3745,-1.7721,-2.0619,-2.3054,-2.5574,-2.8477,-3.0457,-3.1852,-3.2856,-3.4421,-3.6953,-3.7011,-3.8068,-3.9862,-4.0912,-4.166,-4.3019,-4.3608,-4.4357,-4.5317,-4.5469,-4.54,-4.5268,-4.5418,-4.5022,-4.3544,-4.1828,-4.0354,-3.922,-3.8966,-3.782,-3.6717,-3.7122,-3.7979,-3.9143,-3.8018,-3.7061,-3.6716,-3.6169,-3.5218,-3.4102,-3.2577,-3.1597,-3.1772,-3.1772,-3.207,-3.291,-3.3991,-3.6689,-3.8574,-4.0104,-4.2754,-4.5576,-4.7313,-5.0685,-5.4171,-5.7332,-6.0509,-6.3848,-6.6997,-6.9659,-7.2369,-7.5105,-7.692,-7.7731,-7.8929,-8.0098,-8.1147,-8.2207,-8.3178,3.1414,3.1607,3.0323,2.8291,2.4977,1.8022,1.2684,0.7328,0.0398,-0.8741,-1.7088,-2.1899,-2.7245,-3.143,-3.3378,-3.2163,-2.8397,-2.2536,-1.6627,-1.0507,-0.4205,0.3193,0.6645,1.0419,1.2767,1.4817,1.4984,1.5629,1.7006,1.7598,1.7439,1.7581,1.5989,1.4085,1.2707,1.058,0.793,0.5847,0.4736,0.4011,0.3419,0.2111,-0.0501,-0.5083,-0.8192,-1.1873,-1.5729,-1.9638,-2.2749,-2.5234,-2.825,-3.0715,-3.2281,-3.3075,-3.4285,-3.5767,-3.6297,-3.7317,-3.9182,-4.0063,-4.0961,-4.2043,-4.304,-4.3911,-4.4626,-4.4837,-4.4566,-4.3801,-4.2738,-4.192,-4.2933,-4.0871,-3.9338,-3.8313,-3.6959,-3.5707,-3.4758,-3.4173,-3.4558,-3.6131,-3.531,-3.4566,-3.4776,-3.4277,-3.317,-3.2193,-3.0785,-2.9949,-2.9965,-2.9965,-2.9822,-3.0943,-3.2455,-3.5957,-3.9298,-4.0781,-4.2962,-4.6309,-4.8938,-5.1983,-5.5377,-5.8687,-6.1939,-6.5262,-6.8108,-7.0569,-7.3262,-7.5846,-7.7558,-7.8697,-7.9804,-8.0921,-8.1789,-8.269,-8.3754,3.255,3.2575,3.1516,2.998,2.7485,2.284,1.8807,1.4815,0.7474,0.0543,-0.6843,-1.4722,-2.0983,-2.4956,-2.8669,-2.7048,-2.1676,-1.6042,-1.0375,-0.4682,0.1927,0.6827,0.9537,1.2449,1.5049,1.7235,1.8497,1.965,2.0742,2.0426,2.043,2.008,1.8254,1.6734,1.5619,1.3363,1.1086,0.9275,0.7583,0.6299,0.5318,0.392,0.1003,-0.2611,-0.6263,-1.0222,-1.4595,-1.8536,-2.2302,-2.5312,-2.7772,-2.9958,-3.1528,-3.2559,-3.3532,-3.5609,-3.5975,-3.6773,-3.868,-3.9868,-4.0578,-4.1484,-4.2452,-4.2928,-4.3363,-4.3631,-4.3686,-4.2965,-4.1654,-4.0593,-4.1428,-3.9685,-3.8684,-3.792,-3.6144,-3.4819,-3.4138,-3.2727,-3.2838,-3.3557,-3.3387,-3.336,-3.3835,-3.3067,-3.1525,-3.0124,-2.8835,-2.8547,-2.8418,-2.832,-2.8335,-3.0893,-3.2914,-3.6269,-3.9643,-4.1461,-4.3425,-4.6849,-4.9979,-5.3034,-5.6688,-6.0039,-6.3429,-6.686,-6.9411,-7.1791,-7.3547,-7.5877,-7.773,-7.948,-8.0451,-8.142,-8.2253,-8.3141,-8.4195,3.3522,3.2983,3.2696,3.1611,2.9877,2.7367,2.5314,2.263,1.5169,0.9112,0.4263,-0.7001,-1.4286,-1.7398,-2.0646,-2.0828,-1.4379,-0.9265,-0.4182,0.0511,0.6257,0.9997,1.1921,1.4351,1.6847,1.8266,2.0175,2.2128,2.2377,2.2109,2.206,2.149,1.9998,1.8549,1.7196,1.5583,1.3332,1.1616,1.0043,0.8689,0.6725,0.4935,0.221,-0.1603,-0.4702,-0.8729,-1.4283,-1.8134,-2.173,-2.4755,-2.717,-2.9012,-3.0668,-3.1089,-3.2759,-3.5514,-3.546,-3.6785,-3.8703,-3.9768,-4.0362,-4.1153,-4.1935,-4.2278,-4.2386,-4.2788,-4.2708,-4.2306,-4.113,-4.0045,-3.9928,-3.8812,-3.8045,-3.7281,-3.567,-3.4023,-3.3572,-3.2554,-3.0906,-3.1185,-3.1488,-3.1986,-3.2435,-3.1477,-3.0069,-2.9297,-2.8151,-2.7186,-2.707,-2.7408,-2.8082,-3.1176,-3.4015,-3.7193,-3.9897,-4.1838,-4.4253,-4.7399,-5.0443,-5.3514,-5.7507,-6.1524,-6.4872,-6.8056,-7.0895,-7.3152,-7.4614,-7.6221,-7.8382,-8.0097,-8.1036,-8.2032,-8.3058,-8.377,-8.456,3.4641,3.3523,3.3651,3.2142,2.9807,2.8729,2.8053,2.6658,2.1221,1.4847,0.8404,-0.0774,-0.8308,-1.3602,-1.6377,-1.4932,-0.982,-0.4107,0.0711,0.4887,1.0063,1.3213,1.4431,1.6267,1.7738,1.8887,2.0582,2.2049,2.2832,2.2736,2.257,2.2178,2.1146,1.9862,1.8353,1.7386,1.6077,1.4218,1.2834,1.058,0.7782,0.6471,0.3141,-0.0706,-0.3865,-0.7629,-1.3926,-1.7754,-2.1098,-2.4091,-2.628,-2.8396,-3.0336,-3.0955,-3.2081,-3.3483,-3.4364,-3.5405,-3.8355,-3.932,-4.0071,-4.0993,-4.214,-4.2864,-4.2572,-4.196,-4.159,-4.0569,-3.9802,-3.9345,-3.8995,-3.8113,-3.7599,-3.6267,-3.4595,-3.3387,-3.272,-3.1045,-2.9423,-2.8791,-2.9104,-3.0203,-3.0915,-2.9672,-2.8601,-2.7983,-2.7356,-2.6532,-2.6371,-2.7041,-2.8052,-3.1076,-3.4287,-3.7429,-4.0202,-4.2171,-4.5191,-4.8197,-5.1223,-5.4219,-5.8481,-6.2579,-6.5755,-6.8898,-7.1903,-7.4655,-7.6393,-7.8053,-7.957,-8.0763,-8.1763,-8.2904,-8.4092,-8.4648,-8.5148,3.551,3.4088,3.3789,3.2714,3.1173,3.0767,2.9675,2.7655,2.4484,2.0641,1.4734,0.3726,-0.5739,-1.1701,-1.1934,-0.803,-0.343,0.1654,0.5888,0.8959,1.3352,1.5622,1.5748,1.7372,1.8869,1.9461,2.0348,2.1663,2.2554,2.3103,2.2982,2.2597,2.1712,2.0544,1.9262,1.8856,1.7624,1.5856,1.3883,1.1262,0.8526,0.6326,0.3226,-0.2,-0.4452,-0.8686,-1.3164,-1.7,-2.0456,-2.3332,-2.5528,-2.7045,-2.8858,-2.995,-3.097,-3.2081,-3.3225,-3.5035,-3.7624,-3.8413,-3.9505,-4.0771,-4.1873,-4.2198,-4.206,-4.1506,-4.0921,-4.052,-3.9755,-3.9101,-3.857,-3.7803,-3.6959,-3.5638,-3.3644,-3.2143,-3.1063,-2.9087,-2.7729,-2.7102,-2.6725,-2.7726,-2.8428,-2.7681,-2.7093,-2.7212,-2.6707,-2.6022,-2.6675,-2.8176,-2.9356,-3.0843,-3.4142,-3.75,-4.0161,-4.2592,-4.591,-4.9096,-5.2342,-5.5626,-5.9747,-6.3512,-6.6899,-7.0303,-7.3557,-7.6087,-7.8068,-7.9129,-7.9978,-8.1275,-8.2595,-8.359,-8.4588,-8.5621,-8.601,3.6167,3.4898,3.4431,3.3604,3.2579,3.228,3.1005,2.8966,2.6519,2.4747,2.0229,0.8913,-0.2322,-0.7869,-0.5448,-0.1521,0.2442,0.6864,0.9852,1.301,1.5451,1.6785,1.7293,1.8619,1.9574,1.9916,2.078,2.1709,2.2577,2.3076,2.2972,2.2722,2.1858,2.0997,2.0086,1.9288,1.8267,1.6473,1.4424,1.1991,0.9108,0.5487,0.1305,-0.3094,-0.6802,-0.997,-1.3468,-1.6268,-1.9803,-2.2403,-2.4221,-2.5717,-2.7225,-2.8401,-2.9623,-3.0691,-3.1772,-3.3809,-3.6369,-3.8127,-3.9252,-4.0377,-4.113,-4.1312,-4.1511,-4.0907,-4.0305,-4.0107,-3.9406,-3.8919,-3.8478,-3.7399,-3.6359,-3.4984,-3.327,-3.145,-2.9587,-2.7535,-2.613,-2.5665,-2.5135,-2.4918,-2.5413,-2.5305,-2.5458,-2.5994,-2.5904,-2.5359,-2.6495,-2.8163,-2.9577,-3.0628,-3.4144,-3.7455,-4.0013,-4.286,-4.6335,-5.0201,-5.3358,-5.6844,-6.0772,-6.4861,-6.8614,-7.1978,-7.4997,-7.7305,-7.9311,-7.9781,-8.0302,-8.1956,-8.3482,-8.4015,-8.4928,-8.6037,-8.6544,3.6552,3.6112,3.6256,3.5111,3.3251,3.2595,3.1909,3.073,2.8296,2.6104,2.2789,1.3586,0.4313,0.0224,0.082,0.3958,0.6699,1.0437,1.2164,1.3573,1.5397,1.7666,1.8611,1.945,2.0188,2.0905,2.1477,2.2013,2.2476,2.2824,2.2698,2.2385,2.1698,2.102,2.0289,1.9415,1.8125,1.6539,1.4773,1.2741,0.9153,0.4712,-0.1008,-0.5703,-0.9418,-1.2516,-1.4887,-1.6684,-1.8721,-2.123,-2.2973,-2.4342,-2.569,-2.6857,-2.8212,-2.9195,-3.0349,-3.2561,-3.5219,-3.7799,-3.9694,-4.0157,-4.0518,-4.0914,-4.0979,-4.0494,-3.9944,-3.9243,-3.8575,-3.8166,-3.7587,-3.6697,-3.5533,-3.4017,-3.2194,-3.0183,-2.8147,-2.6039,-2.4631,-2.4036,-2.3721,-2.3373,-2.3392,-2.3417,-2.4156,-2.4837,-2.4784,-2.4245,-2.5378,-2.6837,-2.855,-3.0469,-3.407,-3.7171,-3.9758,-4.3241,-4.7813,-5.1646,-5.5126,-5.8317,-6.1777,-6.5763,-6.9755,-7.2649,-7.5534,-7.7952,-8.0166,-8.0664,-8.1513,-8.3162,-8.421,-8.4398,-8.5113,-8.624,-8.6421,3.7326,3.6364,3.7576,3.6457,3.3829,3.3292,3.2309,3.0733,2.8151,2.3689,1.8989,1.3782,0.8674,0.5303,0.6339,0.8143,0.9306,1.223,1.418,1.6126,1.8136,1.9323,2.0029,2.0396,2.0886,2.1671,2.2187,2.2415,2.2648,2.282,2.2208,2.1879,2.1692,2.1445,2.0735,1.9423,1.7839,1.6579,1.5035,1.3088,0.9384,0.5065,-0.0499,-0.6022,-0.9485,-1.1865,-1.3913,-1.6393,-1.8478,-2.04,-2.2158,-2.3376,-2.4309,-2.547,-2.6486,-2.7564,-2.876,-3.13,-3.3792,-3.6498,-3.8453,-4.0881,-4.1389,-4.1417,-4.0822,-4.0529,-3.9395,-3.86,-3.7754,-3.7314,-3.6252,-3.536,-3.4097,-3.265,-3.0882,-2.8804,-2.6557,-2.4167,-2.2651,-2.1912,-2.1645,-2.1598,-2.1726,-2.1995,-2.2705,-2.3523,-2.3476,-2.3604,-2.4612,-2.5951,-2.782,-3.0483,-3.4049,-3.7754,-4.0541,-4.4926,-4.9536,-5.3251,-5.6906,-6.0186,-6.3476,-6.6631,-7.0391,-7.3195,-7.5822,-7.802,-7.9966,-8.1266,-8.2501,-8.3538,-8.4105,-8.4324,-8.5262,-8.6451,-8.6483,3.8026,3.6932,3.8149,3.6955,3.4338,3.3877,3.2697,3.0783,2.8894,2.3793,1.6747,1.5504,1.2711,0.9991,1.0425,1.1646,1.2018,1.3931,1.589,1.7514,1.8895,2.0263,2.0912,2.1487,2.2271,2.2745,2.3048,2.3353,2.3435,2.3183,2.2963,2.2456,2.1914,2.1674,2.0784,1.9491,1.7858,1.6688,1.5095,1.2802,0.9297,0.5161,0.0697,-0.4806,-0.8477,-1.1246,-1.3446,-1.5882,-1.7767,-1.9369,-2.0964,-2.2227,-2.3015,-2.3755,-2.4609,-2.5781,-2.7236,-2.9609,-3.2292,-3.5711,-3.8496,-4.1314,-4.1575,-4.125,-4.0665,-4.0171,-3.8565,-3.7228,-3.692,-3.6223,-3.4795,-3.3598,-3.2333,-3.0755,-2.8867,-2.6659,-2.4111,-2.1859,-2.0635,-1.9521,-1.9588,-1.9742,-2.0607,-2.1032,-2.1829,-2.2594,-2.2582,-2.3116,-2.4252,-2.5675,-2.7551,-3.0531,-3.4195,-3.796,-4.171,-4.6437,-5.0947,-5.4965,-5.8581,-6.2312,-6.5504,-6.8423,-7.1231,-7.4367,-7.6652,-7.8263,-7.9984,-8.18,-8.278,-8.3613,-8.4157,-8.4787,-8.545,-8.6556,-8.677,3.8517,3.7791,3.7791,3.6504,3.448,3.4268,3.3038,3.1094,3.0153,2.6752,2.1356,1.9426,1.706,1.447,1.4381,1.4041,1.4345,1.5336,1.6605,1.7997,1.9344,2.0571,2.1829,2.2777,2.3618,2.4545,2.4764,2.465,2.4493,2.4049,2.3805,2.3529,2.2894,2.1884,2.0799,1.9478,1.8262,1.695,1.5001,1.2343,0.908,0.5324,0.0808,-0.3299,-0.747,-1.0511,-1.2506,-1.5325,-1.6883,-1.7455,-1.9713,-2.0443,-1.9911,-2.1194,-2.2147,-2.3184,-2.3999,-2.6838,-3.1318,-3.6917,-3.9956,-4.1255,-4.091,-4.0133,-3.9948,-3.8888,-3.7205,-3.5663,-3.4971,-3.4117,-3.2934,-3.1541,-2.9829,-2.821,-2.6183,-2.4111,-2.1433,-1.9773,-1.853,-1.7898,-1.7775,-1.7876,-1.9068,-2.0092,-2.1083,-2.1685,-2.1754,-2.2433,-2.3637,-2.5438,-2.7251,-3.0463,-3.412,-3.8726,-4.2842,-4.7883,-5.2459,-5.6465,-6.0409,-6.4027,-6.7048,-6.9528,-7.2501,-7.5574,-7.7267,-7.855,-8.0541,-8.2516,-8.3168,-8.3841,-8.4881,-8.5583,-8.6184,-8.6594,-8.6909,3.905,3.8339,3.8502,3.7076,3.4906,3.421,3.2843,3.0918,2.9217,2.7302,2.5123,2.2203,2.0133,1.8583,1.642,1.5763,1.6283,1.6204,1.7203,1.9435,2.0304,2.1255,2.2613,2.3991,2.4892,2.5338,2.5722,2.5957,2.5723,2.5068,2.4722,2.4431,2.3663,2.2312,2.0937,1.9716,1.8755,1.7288,1.5335,1.2739,0.932,0.5537,0.1728,-0.2308,-0.6592,-0.9327,-1.1033,-1.4021,-1.5452,-1.5746,-1.7996,-1.8542,-1.8232,-1.9403,-1.9985,-2.1183,-2.2452,-2.6321,-3.0877,-3.5421,-3.8106,-3.9018,-3.9336,-3.8505,-3.7787,-3.6048,-3.4836,-3.3749,-3.2311,-3.1092,-2.9994,-2.7635,-2.5988,-2.4788,-2.2848,-2.0629,-1.8466,-1.758,-1.6671,-1.6519,-1.6267,-1.7652,-1.8934,-1.9201,-2.0059,-2.0803,-2.0935,-2.1597,-2.2697,-2.4927,-2.7001,-3.0495,-3.4209,-3.9029,-4.3863,-4.9273,-5.4073,-5.8207,-6.1995,-6.5807,-6.847,-7.0757,-7.2931,-7.5507,-7.7236,-7.8904,-8.0739,-8.237,-8.3276,-8.4125,-8.5082,-8.6079,-8.6846,-8.7058,-8.7126,3.9068,3.837,3.8277,3.6964,3.5009,3.4361,3.2975,3.11,2.9299,2.8139,2.6658,2.358,2.1756,2.0535,1.838,1.7398,1.8237,1.7848,1.8825,2.1089,2.1644,2.2737,2.4033,2.5189,2.6293,2.6627,2.6977,2.7194,2.6939,2.6197,2.5605,2.5121,2.444,2.3231,2.1878,2.0845,1.9568,1.8025,1.5902,1.2987,0.953,0.5916,0.2476,-0.1635,-0.5187,-0.7818,-0.9936,-1.2064,-1.4161,-1.4683,-1.5894,-1.6977,-1.7355,-1.7629,-1.8194,-1.9402,-2.1713,-2.5254,-2.9105,-3.079,-3.307,-3.498,-3.6254,-3.684,-3.5818,-3.4006,-3.2363,-3.0918,-2.9342,-2.7882,-2.6599,-2.418,-2.2686,-2.147,-1.9727,-1.747,-1.573,-1.4854,-1.4388,-1.4179,-1.4965,-1.6698,-1.8446,-1.8542,-1.8892,-1.9427,-2.0095,-2.0949,-2.2245,-2.4944,-2.7546,-3.0782,-3.5064,-4.035,-4.5691,-5.119,-5.5796,-5.9735,-6.3558,-6.726,-6.9714,-7.1892,-7.3663,-7.5454,-7.7667,-7.9548,-8.0825,-8.2165,-8.3592,-8.4476,-8.5082,-8.6197,-8.7319,-8.7483,-8.7381,3.8773,3.7887,3.7127,3.6177,3.4977,3.4574,3.3396,3.1722,3.0814,2.9223,2.7001,2.4329,2.2983,2.1991,1.9336,1.9065,2.0371,1.9845,2.1053,2.219,2.3083,2.448,2.5656,2.6735,2.7759,2.8579,2.8889,2.8522,2.8274,2.7451,2.6566,2.5856,2.543,2.427,2.3155,2.1945,2.057,1.8565,1.6064,1.3162,0.9754,0.6806,0.2854,-0.0944,-0.3966,-0.6474,-0.8791,-1.1066,-1.2314,-1.3646,-1.5399,-1.5783,-1.5997,-1.609,-1.6648,-1.7855,-2.0115,-2.286,-2.5286,-2.6367,-2.7623,-2.9939,-3.2721,-3.4358,-3.3878,-3.1329,-2.9464,-2.8129,-2.6717,-2.5009,-2.3259,-2.1577,-2.0004,-1.8358,-1.6695,-1.4694,-1.2947,-1.201,-1.1676,-1.1898,-1.2911,-1.4432,-1.6469,-1.7204,-1.7621,-1.8126,-1.915,-2.0984,-2.2545,-2.5999,-2.8585,-3.151,-3.6219,-4.2046,-4.7412,-5.2904,-5.7328,-6.1321,-6.4932,-6.8415,-7.0799,-7.3017,-7.4761,-7.6595,-7.8675,-8.049,-8.2423,-8.3636,-8.4508,-8.5177,-8.5495,-8.6124,-8.7209,-8.755,-8.7575,3.8896,3.9055,3.8109,3.7102,3.6041,3.4812,3.3417,3.1855,3.0525,2.9229,2.813,2.5827,2.4449,2.3794,2.1858,2.1281,2.1548,2.233,2.3602,2.4473,2.4864,2.5842,2.6963,2.808,2.906,2.9612,2.9945,2.9892,2.9466,2.8598,2.7577,2.6839,2.6309,2.5309,2.4099,2.3062,2.102,1.875,1.6168,1.3214,0.9977,0.6748,0.3031,-0.0,-0.3549,-0.592,-0.7861,-0.9655,-1.0933,-1.2248,-1.2635,-1.2824,-1.2876,-1.3138,-1.3684,-1.5397,-1.7358,-1.9345,-2.1274,-2.2797,-2.3819,-2.4258,-2.5967,-2.7579,-2.7921,-2.7221,-2.5594,-2.4953,-2.3551,-2.1621,-2.0466,-1.891,-1.7077,-1.5416,-1.3937,-1.2801,-1.1308,-1.0816,-1.0463,-1.1145,-1.2018,-1.3195,-1.5242,-1.5889,-1.6203,-1.6837,-1.8138,-2.0146,-2.2933,-2.6255,-2.9634,-3.2423,-3.7987,-4.4003,-4.8899,-5.4209,-5.8522,-6.2795,-6.6375,-6.9551,-7.1975,-7.4042,-7.579,-7.7815,-8.0154,-8.2486,-8.4727,-8.5372,-8.5395,-8.5549,-8.5911,-8.643,-8.6978,-8.7406,-8.784,3.9208,3.9165,3.8089,3.6964,3.5819,3.4457,3.324,3.2392,3.1122,3.0122,2.9038,2.6901,2.5634,2.4955,2.3216,2.2446,2.2886,2.3401,2.4758,2.6549,2.6508,2.7348,2.8291,2.9319,3.0132,3.0581,3.0856,3.0777,3.0216,2.9139,2.8019,2.7819,2.7232,2.5937,2.4683,2.334,2.1466,1.8816,1.5982,1.3207,0.9949,0.6473,0.3583,0.0335,-0.3561,-0.5678,-0.7276,-0.8726,-0.9653,-1.0763,-1.1025,-1.1302,-1.1277,-1.1431,-1.1407,-1.2973,-1.4149,-1.6014,-1.7756,-1.8508,-1.9389,-1.9685,-1.942,-2.0198,-2.1493,-2.1658,-2.2076,-2.2148,-2.0096,-1.8182,-1.7231,-1.6065,-1.4257,-1.2302,-1.1748,-1.1026,-1.053,-1.0167,-1.0422,-1.0986,-1.1843,-1.2725,-1.3627,-1.4378,-1.5021,-1.5949,-1.7513,-1.9933,-2.2871,-2.648,-3.0076,-3.3287,-3.9613,-4.6093,-5.0788,-5.5446,-5.9889,-6.3919,-6.762,-7.0675,-7.307,-7.5535,-7.7591,-7.9741,-8.1884,-8.3856,-8.5434,-8.5782,-8.5918,-8.6019,-8.6057,-8.6344,-8.688,-8.7533,-8.8029,3.9537,3.8707,3.7509,3.6363,3.4924,3.3881,3.3339,3.3255,3.2228,3.1161,2.9536,2.759,2.6332,2.5565,2.4192,2.3965,2.4326,2.4835,2.5991,2.8402,2.7679,2.8255,2.9715,3.0449,3.0954,3.1528,3.1574,3.1116,3.0306,2.9209,2.8357,2.8497,2.6915,2.5544,2.4619,2.3201,2.1211,1.854,1.5958,1.3223,0.9603,0.623,0.3038,-0.0467,-0.3369,-0.5681,-0.7253,-0.816,-0.8604,-0.9854,-1.0315,-1.0479,-1.0127,-0.9917,-0.9691,-1.0341,-1.1395,-1.2794,-1.4004,-1.449,-1.4848,-1.4944,-1.4585,-1.4865,-1.6022,-1.778,-1.8735,-1.8737,-1.6943,-1.564,-1.4597,-1.3915,-1.2573,-1.1509,-1.0913,-1.0643,-1.0341,-1.0252,-1.0615,-1.1047,-1.1348,-1.2397,-1.3228,-1.3931,-1.4601,-1.5278,-1.6858,-1.9399,-2.3138,-2.6841,-3.0947,-3.4762,-4.1677,-4.7909,-5.1905,-5.6451,-6.1079,-6.5106,-6.8831,-7.204,-7.478,-7.7215,-7.9569,-8.1518,-8.3368,-8.4264,-8.5434,-8.5842,-8.6207,-8.6159,-8.6177,-8.6176,-8.6737,-8.7725,-8.8323,3.9464,3.9186,3.7802,3.6821,3.6168,3.4731,3.3641,3.2895,3.1819,3.0687,2.9204,2.8052,2.6901,2.5944,2.5781,2.5803,2.5769,2.6276,2.7334,2.8411,2.8494,2.9358,3.1065,3.1148,3.1689,3.197,3.1816,3.1021,3.0033,2.9073,2.8207,2.7809,2.6366,2.5164,2.4327,2.2749,2.0482,1.829,1.6034,1.3562,1.0547,0.645,0.2888,0.0118,-0.2377,-0.5356,-0.6736,-0.7104,-0.8582,-0.9995,-0.8398,-0.7764,-0.7526,-0.733,-0.788,-0.8799,-0.9323,-1.0355,-1.0912,-1.1034,-1.1228,-1.1272,-1.1105,-1.1269,-1.214,-1.4086,-1.5025,-1.4828,-1.4043,-1.2828,-1.2064,-1.1626,-1.1175,-1.0705,-1.0381,-1.0266,-1.014,-1.0491,-1.0839,-1.0981,-1.1288,-1.1918,-1.2728,-1.3466,-1.4112,-1.5285,-1.6858,-1.9409,-2.3915,-2.8066,-3.3002,-3.7472,-4.4124,-4.977,-5.3633,-5.7938,-6.279,-6.6656,-7.0188,-7.3302,-7.6461,-7.9002,-8.1377,-8.3043,-8.4606,-8.5288,-8.5747,-8.6185,-8.6388,-8.6331,-8.6553,-8.6691,-8.7454,-8.8418,-8.8822,3.9632,3.9389,3.8456,3.7421,3.6422,3.5471,3.4345,3.3055,3.1875,3.0775,2.9771,2.8888,2.7926,2.7092,2.7376,2.7286,2.7163,2.7697,2.8341,2.9021,2.9499,3.0303,3.1095,3.1787,3.2223,3.24,3.1487,3.0608,2.9874,2.8738,2.7836,2.7556,2.6271,2.4746,2.3989,2.233,2.0141,1.8212,1.6327,1.4144,1.1297,0.694,0.3554,0.1088,-0.182,-0.4622,-0.5929,-0.6411,-0.7536,-0.8263,-0.6956,-0.6264,-0.6018,-0.5929,-0.6381,-0.7066,-0.7732,-0.8242,-0.8513,-0.8535,-0.8443,-0.8585,-0.7705,-0.7809,-0.826,-1.0147,-1.1711,-1.1518,-1.0354,-0.9265,-1.0229,-1.0203,-0.9908,-0.9573,-1.0065,-1.0422,-1.0578,-1.0987,-1.11,-1.1113,-1.123,-1.1161,-1.1983,-1.2353,-1.3107,-1.4729,-1.6291,-2.0477,-2.4814,-2.9497,-3.4323,-3.9775,-4.6211,-5.1416,-5.5332,-5.982,-6.4837,-6.8444,-7.1708,-7.5469,-7.8849,-8.1048,-8.3214,-8.4427,-8.53,-8.5806,-8.6302,-8.6575,-8.6639,-8.6594,-8.6967,-8.7361,-8.8205,-8.8993,-8.9335,3.9835,3.9451,3.9094,3.7884,3.6302,3.5954,3.4988,3.3455,3.2074,3.1279,3.0802,2.9904,2.9468,2.8853,2.846,2.8499,2.8524,2.8494,2.9123,2.9704,2.9854,3.108,3.188,3.2184,3.2516,3.2166,3.1351,3.0678,3.0147,2.8873,2.8057,2.7902,2.6408,2.4579,2.4278,2.2745,2.02,1.8865,1.7025,1.4887,1.1161,0.703,0.438,0.159,-0.1232,-0.3601,-0.5035,-0.5492,-0.609,-0.6532,-0.6031,-0.5476,-0.4819,-0.4717,-0.5162,-0.573,-0.6297,-0.6556,-0.6685,-0.6677,-0.692,-0.6779,-0.5222,-0.4888,-0.5411,-0.6585,-0.8159,-0.8198,-0.7187,-0.7341,-0.8282,-0.8817,-0.8644,-0.8918,-0.9726,-1.0554,-1.1011,-1.1306,-1.1308,-1.1318,-1.1089,-1.0997,-1.1188,-1.1544,-1.2644,-1.4277,-1.74,-2.1758,-2.6287,-3.1163,-3.6079,-4.1755,-4.784,-5.2563,-5.6594,-6.1272,-6.6132,-6.989,-7.3306,-7.7562,-8.1091,-8.287,-8.4263,-8.5189,-8.6028,-8.6354,-8.6676,-8.699,-8.7017,-8.7019,-8.7332,-8.7828,-8.8809,-8.9527,-8.9758,3.9791,3.9388,3.926,3.8186,3.6586,3.6072,3.4971,3.3414,3.1962,3.1249,3.1335,3.1083,3.0256,2.8605,2.8363,2.8448,2.8824,2.9046,2.9982,3.0724,3.0931,3.2149,3.2958,3.2946,3.2726,3.219,3.1408,3.073,3.0033,2.9054,2.8172,2.7767,2.6015,2.4616,2.399,2.2282,2.0648,1.9387,1.7456,1.5084,1.3159,0.9271,0.5569,0.2437,-0.0616,-0.2734,-0.3902,-0.3065,-0.3757,-0.4714,-0.5537,-0.4873,-0.4094,-0.3585,-0.4021,-0.4448,-0.5153,-0.515,-0.5137,-0.4977,-0.5215,-0.5082,-0.3775,-0.2997,-0.3744,-0.4774,-0.5806,-0.6342,-0.5754,-0.6312,-0.7234,-0.7606,-0.7703,-0.8711,-0.9796,-1.0618,-1.1276,-1.1531,-1.1493,-1.1486,-1.1611,-1.1611,-1.1833,-1.2264,-1.3075,-1.5056,-1.7965,-2.2517,-2.7687,-3.2775,-3.7806,-4.3739,-4.9646,-5.3459,-5.742,-6.2295,-6.6912,-7.0884,-7.4917,-7.8784,-8.1987,-8.4139,-8.5423,-8.606,-8.6429,-8.679,-8.7112,-8.7325,-8.7512,-8.7535,-8.7761,-8.8249,-8.9211,-8.9752,-8.9679]},{"header":{"parameterUnit":"m.s-1","parameterCategory":1,"la1":31.0,"la2":29.5877,"lo1":-88.7671,"lo2":-86.6584,"dy":0.0162,"dx":0.0185,"nx":115,"ny":88,"refTime":"2024-03-25T00:00:00:Z","depth":0,"parameterNumber":3,"parameterNumberName":"V-component_of_WINDS"},"data":[0.0,0.0,0.0,0.0,0.0,0.0,0.0,0.0,0.0,0.0,0.0,0.0,0.0,0.0,0.0,0.0,0.0,0.0,0.0,0.0,0.0,0.0,0.0,0.0,0.0,0.0,0.0,0.0,0.0,0.0,0.0,0.0,0.0,0.0,0.0,0.0,0.0,0.0,0.0,0.0,0.0,0.0,0.0,0.0,0.0,0.0,0.0,0.0,0.0,0.0,0.0,0.0,0.0,0.0,0.0,0.0,0.0,0.0,0.0,0.0,0.0,0.0,0.0,0.0,0.0,0.0,0.0,0.0,0.0,0.0,0.0,0.0,0.0,0.0,0.0,0.0,0.0,0.0,0.0,0.0,0.0,0.0,0.0,0.0,0.0,0.0,0.0,0.0,0.0,0.0,0.0,0.0,0.0,0.0,0.0,0.0,0.0,0.0,0.0,0.0,0.0,0.0,0.0,0.0,0.0,0.0,0.0,0.0,0.0,0.0,0.0,0.0,0.0,0.0,0.0,0.0,0.0,0.0,0.0,0.0,0.0,0.0,0.0,0.0,0.0,0.0,0.0,0.0,0.0,0.0,0.0,0.0,0.0,0.0,0.0,0.0,0.0,0.0,0.0,0.0,0.0,0.0,0.0,0.0,0.0,0.0,0.0,0.0,0.0,0.0,0.0,0.0,0.0,0.0,0.0,0.0,0.0,0.0,0.0,0.0,0.0,0.0,0.0,0.0,0.0,0.0,0.0,0.0,0.0,0.0,0.0,0.0,0.0,0.0,0.0,0.0,0.0,0.0,0.0,0.0,0.0,0.0,0.0,0.0,0.0,0.0,0.0,0.0,0.0,0.0,0.0,0.0,0.0,0.0,0.0,0.0,0.0,0.0,0.0,0.0,0.0,0.0,0.0,0.0,0.0,0.0,0.0,0.0,0.0,0.0,0.0,0.0,0.0,0.0,0.0,0.0,0.0,0.0,0.0,0.0,0.0,0.0,0.0,0.0,0.0,0.0,0.0,0.0,0.0,0.0,0.0,0.0,0.0,0.0,0.0,0.0,0.0,0.0,0.0,0.0,0.0,0.0,0.0,0.0,0.0,0.0,0.0,0.0,0.0,0.0,0.0,0.0,0.0,0.0,0.0,0.0,0.0,0.0,0.0,0.0,0.0,0.0,0.0,0.0,0.0,0.0,0.0,0.0,0.0,0.0,0.0,0.0,0.0,0.0,0.0,0.0,0.0,0.0,0.0,0.0,0.0,0.0,0.0,0.0,0.0,0.0,0.0,0.0,0.0,0.0,0.0,0.0,0.0,0.0,0.0,0.0,0.0,0.0,0.0,0.0,0.0,0.0,0.0,0.0,0.0,0.0,0.0,0.0,0.0,0.0,0.0,0.0,0.0,0.0,0.0,0.0,0.0,0.0,0.0,0.0,0.0,0.0,0.0,0.0,0.0,0.0,0.0,0.0,0.0,0.0,0.0,0.0,0.0,0.0,0.0,0.0,0.0,0.0,0.0,0.0,0.0,0.0,0.0,0.0,0.0,0.0,0.0,0.0,0.0,0.0,0.0,0.0,0.0,0.0,0.0,0.0,0.0,0.0,0.0,0.0,0.0,0.0,0.0,0.0,0.0,0.0,0.0,0.0,0.0,0.0,0.0,0.0,0.0,0.0,0.0,0.0,0.0,0.0,0.0,0.0,0.0,0.0,0.0,0.0,0.0,0.0,0.0,0.0,0.0,0.0,0.0,0.0,0.0,0.0,0.0,0.0,0.0,0.0,0.0,0.0,0.0,0.0,0.0,0.0,0.0,0.0,0.0,0.0,0.0,0.0,0.0,0.0,0.0,0.0,0.0,0.0,0.0,0.0,0.0,0.0,0.0,0.0,0.0,0.0,0.0,0.0,0.0,0.0,0.0,0.0,0.0,0.0,0.0,0.0,0.0,0.0,0.0,0.0,0.0,0.0,0.0,0.0,0.0,0.0,0.0,0.0,0.0,0.0,0.0,0.0,0.0,0.0,0.0,0.0,0.0,0.0,0.0,0.0,0.0,0.0,0.0,0.0,0.0,0.0,0.0,0.0,0.0,0.0,0.0,0.0,0.0,0.0,0.0,0.0,0.0,0.0,0.0,0.0,0.0,0.0,0.0,0.0,0.0,0.0,0.0,0.0,0.0,0.0,0.0,0.0,0.0,0.0,0.0,0.0,0.0,0.0,0.0,0.0,0.0,0.0,0.0,0.0,0.0,0.0,0.0,0.0,0.0,0.0,0.0,0.0,0.0,0.0,0.0,0.0,0.0,0.0,0.0,0.0,0.0,0.0,0.0,0.0,0.0,0.0,0.0,0.0,0.0,0.0,0.0,0.0,0.0,0.0,0.0,0.0,0.0,0.0,0.0,0.0,0.0,0.0,0.0,0.0,0.0,0.0,0.0,0.0,0.0,0.0,0.0,0.0,0.0,0.0,0.0,0.0,0.0,0.0,0.0,0.0,0.0,0.0,0.0,0.0,0.0,0.0,0.0,0.0,0.0,0.0,0.0,0.0,0.0,0.0,0.0,0.0,0.0,0.0,0.0,0.0,0.0,0.0,0.0,0.0,0.0,0.0,0.0,0.0,0.0,0.0,0.0,0.0,0.0,0.0,0.0,0.0,0.0,0.0,0.0,0.0,0.0,0.0,0.0,0.0,0.0,0.0,0.0,0.0,0.0,0.0,0.0,0.0,0.0,0.0,0.0,0.0,0.0,0.0,0.0,0.0,0.0,0.0,0.0,0.0,0.0,0.0,0.0,0.0,0.0,0.0,0.0,0.0,0.0,0.0,0.0,0.0,0.0,0.0,0.0,0.0,0.0,0.0,0.0,0.0,0.0,0.0,0.0,0.0,0.0,0.0,0.0,0.0,0.0,0.0,0.0,0.0,0.0,0.0,0.0,0.0,0.0,0.0,0.0,0.0,0.0,0.0,0.0,0.0,0.0,0.0,0.0,0.0,0.0,0.0,0.0,0.0,0.0,0.0,0.0,0.0,0.0,0.0,0.0,0.0,0.0,0.0,0.0,0.0,0.0,0.0,0.0,0.0,0.0,0.0,0.0,0.0,0.0,0.0,0.0,0.0,0.0,0.0,0.0,0.0,0.0,0.0,0.0,0.0,0.0,0.0,0.0,0.0,0.0,0.0,0.0,0.0,0.0,0.0,0.0,0.0,0.0,0.0,0.0,0.0,0.0,0.0,0.0,0.0,0.0,0.0,0.0,0.0,0.0,0.0,0.0,0.0,0.0,0.0,0.0,0.0,0.0,0.0,0.0,0.0,0.0,0.0,0.0,0.0,0.0,0.0,0.0,0.0,0.0,0.0,0.0,0.0,0.0,0.0,0.0,0.0,0.0,0.0,0.0,0.0,0.0,0.0,0.0,0.0,0.0,0.0,0.0,0.0,0.0,0.0,0.0,0.0,0.0,0.0,0.0,0.0,0.0,0.0,0.0,0.0,0.0,0.0,0.0,0.0,0.0,0.0,0.0,0.0,0.0,0.0,0.0,0.0,0.0,0.0,0.0,0.0,0.0,0.0,0.0,0.0,0.0,0.0,0.0,0.0,0.0,0.0,0.0,0.0,0.0,0.0,0.0,0.0,0.0,0.0,0.0,0.0,0.0,0.0,0.0,0.0,0.0,0.0,0.0,0.0,0.0,0.0,0.0,0.0,0.0,0.0,0.0,0.0,0.0,0.0,0.0,0.0,0.0,0.0,0.0,0.0,0.0,0.0,0.0,0.0,0.0,0.0,0.0,0.0,0.0,0.0,0.0,0.0,0.0,0.0,0.0,0.0,0.0,0.0,0.0,0.0,0.0,0.0,0.0,0.0,0.0,0.0,0.0,0.0,0.0,0.0,0.0,0.0,0.0,0.0,0.0,0.0,0.0,0.0,0.0,0.0,0.0,0.0,0.0,0.0,0.0,0.0,0.0,0.0,0.0,0.0,0.0,0.0,0.0,0.0,0.0,0.0,0.0,0.0,0.0,0.0,0.0,0.0,0.0,0.0,0.0,0.0,0.0,0.0,0.0,0.0,0.0,0.0,0.0,0.0,0.0,0.0,0.0,0.0,0.0,0.0,0.0,0.0,0.0,0.0,0.0,0.0,0.0,0.0,0.0,0.0,0.0,0.0,0.0,0.0,0.0,0.0,0.0,0.0,0.0,0.0,0.0,0.0,0.0,0.0,0.0,0.0,0.0,0.0,0.0,0.0,0.0,0.0,0.0,0.0,0.0,0.0,0.0,0.0,0.0,0.0,0.0,0.0,0.0,0.0,-0.0498,0.0,0.0,0.0,0.0,0.0,0.0,0.0,0.0,0.0,0.0,0.0,0.0,0.0,0.0,0.0,0.0,0.0,0.0,0.0,0.0,0.0,0.0,0.0,0.0,0.0,0.0,0.0,0.0,0.0,0.0,0.0,0.0,0.0,0.0,0.0,0.0,0.0,0.0,0.0,0.0,0.0,0.0,0.0,0.0,0.0,0.0,0.0,0.0,0.0,0.0,0.0,0.0,0.0,0.0,0.0,0.0,0.0,0.0,0.0,0.0,0.0,0.0,0.0,0.0,0.0,0.0,0.0,0.0,0.0,0.0,0.0,0.0,0.0,0.0,0.0,0.0,0.0,0.0,0.0,0.0,0.0,0.0,0.0,0.0,0.0,0.0,0.0,0.0,0.0,0.0,0.0,0.0,0.0,0.0,0.0,0.0,0.0,0.0,0.0,0.0,0.0,0.0,0.0,0.0,0.0,0.0,0.0,0.0,0.0,0.0,-0.4637,-0.4227,-0.3751,-0.2685,-0.0904,0.0,0.0,0.0,0.0,0.0,0.0,0.0,0.0,0.0,0.0,0.0,0.0,0.0,0.0,0.0,0.0,0.0,0.0,0.0,0.0,0.0,0.0,0.0,0.0,0.0,0.0,0.0,0.0,0.0,0.0,0.0,0.0,0.0,0.0,0.0,0.0,0.0,0.0,0.0,0.0,0.0,0.0,0.0,0.0,0.0,0.0,0.0,0.0,0.0,0.0,0.0,0.0,0.0,0.0,0.0,0.0,0.0,0.0,0.0,0.0,0.0,0.0,0.0,0.0,0.0,0.0,0.0,0.0,0.0,0.0,0.0,0.0,0.0,0.0,0.0,0.0,0.0,0.0,0.0,0.0,0.0,0.0,0.0,0.0,0.0,0.0,0.0,0.0,0.0,0.0,0.0,0.0,0.0,0.0,0.0,0.0,0.0,0.0,0.0,0.0,0.0,0.0,0.0,0.0,0.0,0.0,0.0,0.0,0.0,0.0,0.0,0.0,-0.6819,-0.561,-0.2126,0.0,0.0,0.0,0.0,0.0,0.0,0.0,0.0,0.0,0.0,0.0,0.0,0.0,0.0,0.0,0.0,0.0,0.0,0.0,0.0,0.0,0.0,0.0,0.0,0.0,0.0,0.0,0.0,0.0,0.0,0.0,0.0,0.0,0.0,0.0,0.0,0.0,0.0,0.0,0.0,0.0,0.0,0.0,0.0,0.0,0.0,0.0,0.0,0.0,0.0,0.0,0.0,0.0,0.0,0.0,0.0,0.0,0.0,0.0,0.0,0.0,0.0,0.0,0.0,0.0,0.0,0.0,0.0,0.0,0.0,0.0,0.0,0.0,0.0,0.0,0.0,0.0,0.0,0.0,0.0,0.0,0.0,0.0,0.0,0.0,0.0,0.0,0.0,0.0,0.0,0.0,0.0,0.0,0.0,0.0,0.0,0.0,0.0,0.0,0.0,0.0,0.0,0.0,0.0,0.0,0.0,0.0,0.0,0.0,0.0,-0.2798,-0.7432,-0.9643,0.0,-0.4997,0.0,0.0,0.0,0.0,0.0,0.0,0.0,0.0,0.0,0.0,0.0,0.0,0.0,0.0,0.0,0.0,0.0,0.0,0.0,0.0,0.0,0.0,0.0,0.0,0.0,0.0,0.0,0.0,0.0,0.0,0.0,0.0,0.0,0.0,0.0,0.0,0.0,0.0,0.0,0.0,0.0,0.0,0.0,0.0,0.0,0.0,0.0,0.0,0.0,0.0,0.0,0.0,0.0,0.0,0.0,0.0,0.0,0.0,0.0,0.0,0.0,0.0,0.0,0.0,0.0,0.0,0.0,0.0,0.0,0.0,0.0,0.0,0.0,0.0,0.0,0.0,0.0,0.0,0.0,0.0,0.0,0.0,0.0,0.0,0.0,0.0,0.0,0.0,0.0,0.0,0.0,0.0,0.0,0.0,0.0,0.0,0.0,0.0,0.0,0.0,0.0,0.0,0.0,0.0,0.0,0.0,0.0,0.0,0.0,0.0,0.1391,-0.4349,-0.506,-0.5201,0.0,0.0,0.0,0.0,0.0,0.0,0.0,0.0,0.0,0.0,0.0,0.0,0.0,0.0,0.0,0.0,0.0,0.0,0.0,0.0,0.0,0.0,0.0,0.0,0.0,0.0,0.0,0.0,0.0,0.0,0.0,0.0,0.0,0.0,0.0,0.0,0.0,0.0,0.0,0.0,0.0,0.0,0.0,0.0,0.0,0.0,0.0,0.0,0.0,0.0,0.0,0.0,0.0,0.0,0.0,0.0,0.0,0.0,0.0,0.0,0.0,0.0,0.0,0.0,0.0,0.0,0.0,0.0,0.0,0.0,0.0,0.0,0.0,0.0,0.0,0.0,0.0,0.0,0.0,0.0,0.0,0.0,0.0,0.0,0.0,0.0,0.0,0.0,0.0,0.0,0.0,0.0,0.0,0.0,0.0,0.0,0.0,0.0,0.0,0.0,0.0,0.0,0.0,0.0,0.0,0.0,0.0,0.0,0.0,0.0,1.0816,0.4954,-0.3864,-0.2588,-0.3065,-0.6446,0.0,0.0,0.0,0.0,0.0,0.0,0.0,0.0,0.0,0.0,0.0,0.0,0.0,0.0,0.0,0.0,0.0,0.0,0.0,0.0,0.0,0.0,0.0,0.0,0.0,0.0,0.0,0.0,0.0,0.0,0.0,0.0,0.0,0.0,0.0,0.0,0.0,0.0,0.0,0.0,0.0,0.0,0.0,0.0,0.0,0.0,0.0,0.0,0.0,0.0,0.0,0.0,0.0,0.0,0.0,0.0,0.0,0.0,0.0,0.0,0.0,0.0,0.0,0.0,0.0,0.0,0.0,0.0,0.0,0.0,0.0,0.0,0.0,0.0,0.0,0.0,0.0,0.0,0.0,0.0,0.0,0.0,0.0,0.0,0.0,0.0,0.0,0.0,0.0,0.0,0.0,0.0,0.0,0.0,0.0,0.0,0.0,0.0,0.0,0.0,0.0,0.0,0.0,0.0,0.0,0.0,0.0,0.0,2.0639,1.6942,0.6965,-0.9571,-0.5159,-0.5336,0.0,0.0,0.0,0.0,0.0,0.0,0.0,0.0,0.0,0.0,0.0,0.0,0.0,0.0,0.0,0.0,0.0,0.0,0.0,0.0,0.0,0.0,0.0,0.0,0.0,0.0,0.0,0.0,0.0,0.0,0.0,0.0,0.0,0.0,0.0,0.0,0.0,0.0,0.0,0.0,0.0,0.0,0.0,0.0,0.0,0.0,0.0,0.0,0.0,0.0,0.0,0.0,0.0,0.0,0.0,0.0,0.0,0.0,0.0,0.0,0.0,0.0,0.0,0.0,0.0,0.0,0.0,0.0,0.0,0.0,0.0,0.0,0.0,0.0,0.0,0.0,0.0,0.0,0.0,0.0,0.0,0.0,0.0,0.0,0.0,0.0,0.0,0.0,0.0,0.0,0.0,0.0,0.0,0.0,0.0,0.0,0.0,0.0,0.0,0.0,0.0,0.0,0.0,0.0,0.0,0.0,0.0,0.0,0.0,2.2933,1.4007,0.2289,-1.1636,-0.5799,-0.5038,0.0,0.0,0.0,0.0,0.0,0.0,0.0,0.0,0.0,0.0,0.0,0.0,0.0,0.0,0.0,0.0,0.0,0.0,0.0,0.0,0.0,0.0,0.0,0.0,0.0,0.0,0.0,0.0,0.0,0.0,0.0,0.0,0.0,0.0,0.0,0.0,0.0,0.0,0.0,0.0,0.0,0.0,0.0,0.0,0.0,0.0,0.0,0.0,0.0,0.0,0.0,0.0,0.0,0.0,0.0,0.0,0.0,0.0,0.0,0.0,0.0,0.0,0.0,0.0,0.0,0.0,0.0,0.0,0.0,0.0,0.0,0.0,0.0,0.0,0.0,0.0,0.0,0.0,0.0,0.0,0.0,0.0,0.0,0.0,0.0,0.0,0.0,0.0,0.0,0.0,0.0,0.0,0.0,0.0,0.0,0.0,0.0,0.0,0.0,0.0,0.0,0.0,0.0,0.0,0.0,0.0,0.0,0.0,0.0,2.1039,0.0,-0.2613,-1.2376,-0.6743,-0.5612,0.0,0.0,0.0,0.0,0.0,0.0,0.0,0.0,0.0,0.0,0.0,0.0,0.0,0.0,0.0,0.0,0.0,0.0,0.0,0.0,0.0,0.0,0.0,0.0,0.0,0.0,0.0,0.0,0.0,0.0,0.0,0.0,0.0,0.0,0.0,0.0,0.0,0.0,0.0,0.0,0.0,0.0,0.0,0.0,0.0,0.0,0.0,0.0,0.0,0.0,0.0,0.0,0.0,0.0,0.0,0.0,0.0,0.0,0.0,0.0,0.0,0.0,0.0,0.0,0.0,0.0,0.0,0.0,0.0,0.0,0.0,0.0,0.0,0.0,0.0,0.0,0.0,0.0,0.0,0.0,0.0,0.0,0.0,0.0,0.0,0.0,0.0,0.0,0.0,0.0,0.0,0.0,0.0,0.0,0.0,0.0,0.0,0.0,0.0,0.0,0.0,0.0,0.0,0.0,0.0,0.0,0.0,0.0,2.5159,1.4735,0.2383,-0.6922,-1.2338,-0.819,-0.7183,0.0,0.0,0.0,0.0,0.0,0.0,0.0,0.0,0.0,0.0,0.0,0.0,0.0,0.0,0.0,0.0,0.0,0.0,0.0,0.0,0.0,0.0,0.0,0.0,0.0,0.0,0.0,0.0,0.0,0.0,0.0,0.0,0.0,0.0,0.0,0.0,0.0,0.0,0.0,0.0,0.0,0.0,0.0,0.0,0.0,0.0,0.0,0.0,0.0,0.0,0.0,0.0,0.0,0.0,0.0,0.0,0.0,0.0,0.0,0.0,0.0,0.0,0.0,0.0,0.0,0.0,0.0,0.0,0.0,0.0,0.0,0.0,0.0,0.0,0.0,0.0,0.0,0.0,0.0,0.0,0.0,0.0,0.0,0.0,0.0,0.0,0.0,0.0,0.0,0.0,0.0,0.0,0.0,0.0,0.0,0.0,0.0,0.0,0.0,0.0,0.0,0.0,0.0,0.0,0.0,0.0,0.0,0.0,0.0,0.9342,-0.0687,-1.0787,-2.0159,-1.0525,-0.7753,0.0,0.0,0.0,0.0,0.0,0.0,0.0,0.0,0.0,0.0,0.0,0.0,0.0,0.0,0.0,0.0,0.0,0.0,0.0,0.0,0.0,0.0,0.0,0.0,0.0,0.0,0.0,0.0,0.0,0.0,0.0,0.0,0.0,0.0,0.0,0.0,0.0,0.0,0.0,0.0,0.0,0.0,0.0,0.0,0.0,0.0,0.0,0.0,0.0,0.0,0.0,0.0,0.0,0.0,0.0,0.0,0.0,0.0,0.0,0.0,0.0,0.0,0.0,0.0,0.0,0.0,0.0,0.0,0.0,0.0,0.0,0.0,0.0,0.0,0.0,0.0,0.0,0.0,0.0,0.0,0.0,0.0,0.0,0.0,0.0,0.0,0.0,0.0,0.0,0.0,0.0,0.0,0.0,0.0,0.0,0.0,0.0,0.0,0.0,0.0,0.0,0.0,0.0,0.0,0.0,0.0,0.0,0.0,0.0,0.0673,-0.8243,-1.6528,-2.375,-1.3705,-0.9248,-1.1232,0.0,0.0,0.0,0.0,0.0,0.0,0.0,0.0,0.0,0.0,0.0,0.0,0.0,0.0,0.0,0.0,0.0,0.0,0.0,0.0,0.0,0.0,0.0,0.0,0.0,0.0,0.0,0.0,0.0,0.0,0.0,0.0,0.0,0.0,0.0,0.0,0.0,0.0,0.0,0.0,0.0,0.0,0.0,0.0,0.0,0.0,0.0,0.0,0.0,0.0,0.0,0.0,0.0,0.0,0.0,0.0,0.0,0.0,0.0,0.0,0.0,0.0,0.0,0.0,0.0,0.0,0.0,0.0,0.0,0.0,0.0,0.0,0.0,0.0,0.0,0.0,0.0,0.0,0.0,0.0,0.0,0.0,0.0,0.0,0.0,0.0,0.0,0.0,0.0,0.0,0.0,0.0,0.0,0.0,0.0,0.0,0.0,0.0,0.0,0.0,0.0,0.0,0.0,0.0,0.0,0.0,0.0,0.0,-0.9322,-1.8867,-2.3258,-2.2426,-1.6916,-1.1242,0.0,0.0,0.0,0.0,0.0,0.0,0.0,0.0,0.0,0.0,0.0,0.0,0.0,0.0,0.0,0.0,0.0,0.0,0.0,0.0,0.0,0.0,0.0,0.0,0.0,0.0,0.0,0.0,0.0,0.0,0.0,0.0,0.0,0.0,0.0,0.0,0.0,0.0,0.0,0.0,0.0,0.0,0.0,0.0,0.0,0.0,0.0,0.0,0.0,0.0,0.0,0.0,0.0,0.0,0.0,0.0,0.0,0.0,0.0,0.0,0.0,0.0,0.0,0.0,0.0,0.0,0.0,0.0,0.0,0.0,0.0,0.0,0.0,0.0,0.0,0.0,0.0,0.0,0.0,0.0,0.0,0.0,0.0,0.0,0.0,0.0,0.0,0.0,0.0,0.0,0.0,0.0,0.0,0.0,0.0,0.0,0.0,0.0,0.0,0.0,0.0,0.0,0.0,0.0,0.0,0.0,0.0,0.0,0.0,-0.9065,-1.9173,-2.4731,-2.5052,-1.4514,-0.7895,0.0,0.0,0.0,0.0,0.0,0.0,0.0,0.0,0.0,0.0,0.0,0.0,0.0,0.0,0.0,0.0,0.0,0.0,0.0,0.0,0.0,0.0,0.0,0.0,0.0,0.0,0.0,0.0,0.0,0.0,0.0,0.0,0.0,0.0,0.0,0.0,0.0,0.0,0.0,0.0,0.0,0.0,0.0,0.0,0.0,0.0,0.0,0.0,0.0,0.0,0.0,0.0,0.0,0.0,0.0,0.0,0.0,0.0,0.0,0.0,0.0,0.0,0.0,0.0,0.0,0.0,0.0,0.0,0.0,0.0,0.0,0.0,0.0,0.0,0.0,0.0,0.0,0.0,0.0,0.0,0.0,0.0,0.0,0.0,0.0,0.0,0.0,0.0,0.0,0.0,0.0,0.0,0.0,0.0,0.0,0.0,0.0,0.0,0.0,0.0,0.0,0.0,0.0,0.0,0.0,0.0,0.0,0.0,-0.1337,-1.2338,-1.7862,-2.124,-2.2522,-1.5496,-0.9155,0.0,0.0,0.0,0.0,0.0,0.0,0.0,0.0,0.0,0.0,0.0,0.0,0.0,0.0,0.0,0.0,0.0,0.0,0.0,0.0,0.0,0.0,0.0,0.0,0.0,0.0,0.0,0.0,0.0,0.0,0.0,0.0,0.0,0.0,0.0,0.0,0.0,0.0,0.0,0.0,0.0,0.0,0.0,0.0,0.0,0.0,0.0,0.0,0.0,0.0,0.0,0.0,0.0,0.0,0.0,0.0,0.0,0.0,0.0,0.0,0.0,0.0,0.0,0.0,0.0,0.0,0.0,0.0,0.0,0.0,0.0,0.0,0.0,0.0,0.0,0.0,0.0,0.0,0.0,0.0,0.0,0.0,0.0,0.0,0.0,0.0,0.0,0.0,0.0,0.0,0.0,0.0,0.0,0.0,0.0,0.0,0.0,0.0,0.0,0.0,0.0,0.0,0.0,0.0,0.0,0.0,0.0,0.0,-0.5081,-1.675,-1.6589,-1.6782,-1.7515,-1.7415,-1.1765,0.0,0.0,0.0,0.0,0.0,0.0,0.0,0.0,0.0,0.0,0.0,0.0,0.0,0.0,0.0,0.0,0.0,0.0,0.0,0.0,0.0,0.0,0.0,0.0,0.0,0.0,0.0,0.0,0.0,0.0,0.0,0.0,0.0,0.0,0.0,0.0,0.0,0.0,0.0,0.0,0.0,0.0,0.0,0.0,0.0,0.0,0.0,0.0,0.0,0.0,0.0,0.0,0.0,0.0,0.0,0.0,0.0,0.0,0.0,0.0,0.0,0.0,0.0,0.0,0.0,0.0,0.0,0.0,0.0,0.0,0.0,0.0,0.0,0.0,0.0,0.0,0.0,0.0,0.0,0.0,0.0,0.0,0.0,0.0,0.0,0.0,0.0,0.0,0.0,0.0,0.0,0.0,0.0,0.0,0.0,0.0,0.0,0.0,0.0,0.0,0.0,0.0,0.0,0.0,0.0,0.0,0.0,0.0,-0.8635,-1.5438,-2.068,-2.2405,-2.0181,-1.2536,-0.379,0.0,0.0,0.0,0.0,0.0,0.0,0.0,0.0,0.0,0.0,0.0,0.0,0.0,0.0,0.0,0.0,0.0,0.0,0.0,0.0,0.0,0.0,0.0,0.0,0.0,0.0,0.0,0.0,0.0,0.0,0.0,0.0,0.0,0.0,0.0,0.0,0.0,0.0,0.0,0.0,0.0,0.0,0.0,0.0,0.0,0.0,0.0,0.0,4.0905,0.0,0.0,0.0,0.0,0.0,0.0,0.0,0.0,0.0,0.0,0.0,0.0,0.0,0.0,0.0,0.0,0.0,0.0,0.0,0.0,0.0,0.0,0.0,0.0,0.0,0.0,0.0,0.0,0.0,0.0,0.0,0.0,0.0,0.0,0.0,0.0,0.0,0.0,0.0,0.0,0.0,0.0,0.0,0.0,0.0,0.0,0.0,0.0,0.0,0.0,0.0,0.0,0.0,0.0,0.0,0.0,0.0,0.0,0.0,-0.9477,-1.5678,-1.6386,-1.7201,-1.7932,-0.9931,-0.1831,0.0,0.0,0.0,0.0,0.0,0.0,0.0,0.0,0.0,0.0,0.0,0.0,0.0,0.0,0.0,0.0,0.0,0.0,0.0,0.0,0.0,0.0,0.0,0.0,0.0,0.0,0.0,0.0,0.0,0.0,0.0,0.0,0.0,0.0,0.0,0.0,0.0,0.0,0.0,0.0,0.0,0.0,0.0,0.0,0.0,0.0,0.0,0.0,0.0,0.0,0.0,0.0,0.0,0.0,0.0,0.0,0.0,0.0,0.0,0.0,0.0,0.0,0.0,0.0,0.0,0.0,0.0,0.0,0.0,0.0,0.0,0.0,0.0,0.0,0.0,0.0,0.0,0.0,0.0,0.0,0.0,0.0,0.0,0.0,0.0,0.0,0.0,0.0,0.0,0.0,0.0,0.0,0.0,0.0,0.0,0.0,0.0,0.0,0.0,0.0,0.0,0.0,0.0,0.0,0.0,0.0,0.0,-0.4821,-0.9275,-1.519,-1.0877,-1.0163,-1.3631,-0.8664,-0.2351,0.4963,0.0,0.0,0.0,0.0,0.0,0.0,0.0,0.0,0.0,0.0,0.0,0.0,0.0,0.0,0.0,0.0,0.0,0.0,0.0,0.0,0.0,0.0,0.0,0.0,0.0,0.0,0.0,0.0,0.0,0.0,0.0,0.0,0.0,0.0,0.0,0.0,0.0,0.0,4.1993,4.2285,0.0,0.0,0.0,0.0,0.0,0.0,0.0,0.0,3.5684,0.0,0.0,0.0,0.0,0.0,0.0,0.0,0.0,0.0,0.0,0.0,0.0,0.0,0.0,0.0,0.0,0.0,0.0,0.0,0.0,0.0,0.0,0.0,0.0,0.0,0.0,0.0,0.0,0.0,0.0,0.0,0.0,0.0,0.0,0.0,0.0,0.0,0.0,0.0,0.0,0.0,0.0,0.0,0.0,0.0,0.0,0.0,0.0,0.0,0.0,0.0,0.0,0.0,0.0,0.0,0.0,0.0918,-0.5513,-0.9488,-1.0632,-1.417,-1.3262,-0.7745,-0.7998,-0.2175,1.0296,0.0,0.0,0.0,0.0,0.0,0.0,0.0,0.0,0.0,0.0,0.0,0.0,0.0,0.0,0.0,0.0,0.0,0.0,0.0,0.0,0.0,0.0,0.0,0.0,0.0,0.0,0.0,0.0,0.0,0.0,0.0,0.0,0.0,0.0,0.0,0.0,0.0,0.0,0.0,4.3654,4.5216,0.0,0.0,0.0,0.0,0.0,0.0,0.0,0.0,2.3997,0.0,0.0,0.0,0.0,0.0,0.0,0.0,0.0,0.0,0.0,0.0,0.0,0.0,0.0,0.0,0.0,0.0,0.0,0.0,0.0,0.0,0.0,0.0,0.0,0.0,0.0,0.0,0.0,0.0,0.0,0.0,0.0,0.0,0.0,0.0,0.0,0.0,0.0,0.0,0.0,0.0,0.0,0.0,0.0,0.0,0.0,0.0,0.0,0.0,0.0,0.0,0.0,0.0,0.0,0.0,-0.2184,-0.6589,-0.8956,-0.8553,-0.9575,-0.8185,-0.4389,-0.6282,-0.082,0.0,0.0,0.0,0.0,0.0,0.0,0.0,0.0,0.0,0.0,0.0,0.0,0.0,0.0,0.0,0.0,0.0,0.0,0.0,0.0,0.0,0.0,0.0,0.0,0.0,0.0,0.0,0.0,0.0,0.0,0.0,0.0,0.0,0.0,0.0,0.0,0.0,0.0,0.0,0.0,4.4177,4.4716,4.6828,0.0,0.0,0.0,0.0,0.0,0.0,2.6008,1.9793,0.0,0.0,0.0,0.0,0.0,0.0,0.0,0.0,0.0,0.0,0.0,0.0,0.0,0.0,0.0,0.0,0.0,0.0,0.0,0.0,0.0,0.0,0.0,0.0,0.0,0.0,0.0,0.0,0.0,0.0,0.0,0.0,0.0,0.0,0.0,0.0,0.0,0.0,0.0,0.0,0.0,0.0,0.0,0.0,0.0,0.0,0.0,0.0,0.0,0.0,0.0,0.0,0.0,0.0,0.0,-0.594,-0.6634,-0.7344,-0.7539,-0.4919,-0.2886,-0.1747,-0.4178,0.0339,0.0,0.0,0.0,0.0,0.0,0.0,0.0,0.0,0.0,0.0,0.0,0.0,0.0,0.0,0.0,0.0,0.0,0.0,0.0,0.0,0.0,0.0,0.0,0.0,0.0,0.0,0.0,0.0,0.0,0.0,0.0,0.0,0.0,0.0,0.0,0.0,0.0,0.0,0.0,0.0,0.0,4.4838,4.5436,4.5485,0.0,0.0,0.0,0.0,2.3783,2.0232,0.0,0.0,0.0,0.0,0.0,0.0,0.0,0.0,0.0,0.0,0.0,0.0,0.0,0.0,0.0,0.0,0.0,0.0,0.0,0.0,0.0,0.0,0.0,0.0,0.0,0.0,0.0,0.0,0.0,0.0,0.0,0.0,0.0,0.0,0.0,0.0,0.0,0.0,0.0,0.0,0.0,0.0,0.0,0.0,0.0,0.0,0.0,0.0,0.0,0.0,0.0,0.0,0.0,0.0,0.0,0.0,-0.8162,-0.409,-0.372,-0.6944,-0.5684,-0.2795,0.1443,-0.1923,0.0175,0.0,0.0,0.0,0.0,0.0,0.0,0.0,0.0,0.0,0.0,0.0,0.0,0.0,0.0,0.0,0.0,0.0,0.0,0.0,0.0,0.0,0.0,0.0,0.0,0.0,0.0,0.0,0.0,0.0,0.0,0.0,0.0,0.0,0.0,0.0,0.0,0.0,0.0,0.0,0.0,0.0,4.8264,4.6498,4.4724,4.1941,0.0,0.0,2.3014,1.1706,0.7615,0.0,0.0,0.0,0.0,0.0,0.0,0.0,0.0,0.0,0.0,0.0,0.0,0.0,0.0,0.0,0.0,0.0,0.0,0.0,0.0,0.0,0.0,0.0,0.0,0.0,0.0,0.0,0.0,0.0,0.0,0.0,0.0,0.0,0.0,0.0,0.0,0.0,0.0,0.0,0.0,0.0,0.0,0.0,0.0,0.0,0.0,0.0,0.0,0.0,0.0,0.0,0.0,0.0,0.0,0.0,-1.5223,-0.8658,-0.6606,-0.5208,-0.4352,-0.3035,-0.0669,0.2907,-0.4809,-0.4453,0.0,0.0,0.0,0.0,0.0,0.0,0.0,0.0,0.0,0.0,0.0,0.0,0.0,0.0,0.0,0.0,0.0,0.0,0.0,0.0,0.0,0.0,0.0,0.0,0.0,0.0,0.0,0.0,0.0,0.0,0.0,0.0,0.0,0.0,0.0,0.0,0.0,0.0,0.0,0.0,0.0,0.0,4.5056,4.1839,0.0,0.0,0.0,1.4916,0.8111,0.0,0.0,0.0,0.0,0.0,0.0,0.0,0.0,0.0,0.0,0.0,0.0,0.0,0.0,0.0,0.0,0.0,0.0,0.0,0.0,0.0,0.0,0.0,0.0,0.0,0.0,0.0,0.0,0.0,0.0,0.0,0.0,0.0,0.0,0.0,0.0,0.0,0.0,0.0,0.0,0.0,0.0,0.0,0.0,0.0,0.0,0.0,0.0,0.0,0.0,0.0,0.0,0.0,0.0,0.0,0.0,0.0,-1.0586,-1.0304,-0.7966,-0.328,-0.2241,-0.0587,0.1366,-0.8193,0.0,0.0,0.0,0.0,0.0,0.0,0.0,0.0,0.0,0.0,0.0,0.0,0.0,0.0,0.0,0.0,0.0,0.0,0.0,0.0,0.0,0.0,0.0,0.0,0.0,0.0,0.0,-1.7141,0.0,0.0,0.0,0.0,0.0,0.0,0.0,0.0,0.0,0.0,0.0,0.0,0.0,0.0,4.6201,4.3073,3.8114,3.1847,0.0,0.0,0.8231,0.511,0.1387,-0.032,0.0,0.0,0.0,0.0,0.0,0.0,0.0,0.0,0.0,0.0,0.0,0.0,0.0,0.0,0.0,0.0,0.0,0.0,0.0,0.0,0.0,0.0,0.0,0.0,0.0,0.0,0.0,0.0,0.0,0.0,0.0,0.0,0.0,0.0,0.0,0.0,0.0,0.0,0.0,0.0,0.0,0.0,0.0,0.0,0.0,0.0,0.0,0.0,0.0,0.0,0.0,0.0,0.0,0.0,-2.342,-1.604,-1.4209,-1.097,-0.6078,-0.5704,-0.491,-0.3723,-1.077,-1.3792,0.0,0.0,0.0,0.0,0.0,0.0,0.0,0.0,0.0,0.0,0.0,0.0,0.0,0.0,0.0,0.0,0.0,0.0,0.0,0.0,0.0,0.0,0.0,0.0,0.0,0.0,0.0,0.0,0.0,0.0,0.0,0.0,0.0,0.0,0.0,0.0,0.0,0.0,0.0,0.0,0.0,4.5552,4.1163,3.3922,2.5738,0.0,0.9397,0.3925,0.0631,0.1291,0.3437,0.6945,0.0,0.0,0.0,0.0,0.0,0.0,0.0,0.0,0.0,0.0,0.0,0.0,0.0,0.0,0.0,0.0,0.0,0.0,0.0,0.0,0.0,0.0,0.0,0.0,0.0,0.0,0.0,0.0,0.0,0.0,0.0,0.0,0.0,0.0,0.0,0.0,0.0,0.0,0.0,0.0,0.0,0.0,0.0,0.0,0.0,0.0,0.0,0.0,0.0,0.0,0.0,0.0,0.0,-2.3996,-1.4991,-1.3326,-0.9664,-0.3791,-0.1195,0.0101,0.0,-0.5041,-0.9675,0.0,0.0,0.0,0.0,0.0,0.0,0.0,0.0,0.0,0.0,0.0,0.0,0.0,0.0,0.0,0.0,0.0,0.0,0.0,0.0,0.0,0.0,0.0,0.0,0.0,0.0,0.0,0.0,-1.8722,-1.2639,-0.3324,0.0,0.0,0.0,0.0,0.0,0.0,0.0,0.0,0.0,0.0,4.6434,3.9541,3.0877,0.0,0.0,0.6291,0.2191,0.1254,0.3347,0.5934,0.8024,0.8594,0.0,0.0,0.0,0.0,0.0,0.0,0.0,0.0,0.0,0.0,0.0,0.0,0.0,0.0,0.0,0.0,0.0,0.0,0.0,0.0,0.0,0.0,0.0,0.0,0.0,0.0,0.0,0.0,0.0,0.0,0.0,0.0,0.0,0.0,0.0,0.0,0.0,0.0,0.0,0.0,0.0,0.0,0.0,0.0,0.0,0.0,0.0,0.0,0.0,0.0,0.0,0.0,-2.4127,-1.4235,-1.2904,-0.88,-0.1771,0.2016,0.369,0.2885,-0.2045,-0.8048,0.0,0.0,0.0,0.0,0.0,0.0,0.0,0.0,0.0,0.0,0.0,0.0,0.0,0.0,0.0,0.0,0.0,0.0,0.0,0.0,0.0,0.0,0.0,0.0,0.0,0.0,0.0,0.0,-2.4322,-1.8677,-1.2983,0.0,0.0,0.0,0.0,0.0,0.0,0.0,0.0,0.0,0.0,4.5896,3.9154,3.103,2.1958,1.1972,0.7833,0.5142,0.298,0.5697,0.8567,0.9553,0.0,0.0,0.0,0.0,0.0,0.0,0.0,0.0,0.0,0.0,0.0,0.0,0.0,0.0,0.0,0.0,0.0,0.0,0.0,0.0,0.0,0.0,0.0,0.0,0.0,0.0,0.0,-3.5379,0.0,0.0,-3.6122,0.0,0.0,0.0,0.0,0.0,0.0,0.0,0.0,0.0,0.0,0.0,0.0,0.0,0.0,0.0,0.0,0.0,0.0,0.0,0.0,0.0,0.0,-2.38,-1.4764,-1.3468,-0.8999,-0.0877,0.232,0.4133,0.3972,-0.348,-1.09,-1.7904,0.0,0.0,0.0,0.0,0.0,0.0,0.0,0.0,0.0,0.0,0.0,0.0,0.0,0.0,0.0,0.0,0.0,0.0,0.0,0.0,0.0,0.0,0.0,0.0,0.0,0.0,-3.1488,-2.6043,-2.2118,0.0,0.0,0.0,0.0,0.0,0.0,0.0,0.0,0.0,3.7933,4.2326,4.3342,4.0208,3.4877,2.6755,1.5284,1.4859,1.3205,0.5437,0.7823,1.1025,0.0,0.0,0.0,0.0,0.0,0.0,0.0,0.0,0.0,0.0,0.0,0.0,0.0,0.0,0.0,0.0,0.0,0.0,0.0,0.0,0.0,0.0,0.0,0.0,0.0,0.0,0.0,-3.6281,-3.668,0.0,0.0,0.0,0.0,0.0,0.0,0.0,0.0,0.0,0.0,0.0,-3.3762,-3.4553,0.0,0.0,0.0,0.0,0.0,0.0,0.0,0.0,0.0,0.0,0.0,0.0,-2.2199,-1.1922,-1.0288,-0.58,0.2206,0.7081,0.8751,0.7148,0.378,-0.4356,-1.7711,0.0,0.0,0.0,0.0,0.0,0.0,0.0,0.0,0.0,0.0,0.0,0.0,0.0,0.0,0.0,0.0,0.0,0.0,0.0,0.0,0.0,0.0,0.0,0.0,0.0,-3.2476,0.0,0.0,0.0,0.0,0.0,0.0,0.0,0.0,0.0,0.0,1.6529,2.549,3.5586,4.1577,4.3555,3.9538,3.0707,2.2849,0.0,0.0,0.0,0.0,0.0,0.0,0.0,0.0,0.0,0.0,0.0,0.0,0.0,1.8402,1.9933,2.1904,2.3488,2.4412,2.3641,0.0,0.0,0.0,0.0,0.0,0.0,0.0,0.0,0.0,0.0,0.0,0.0,0.0,0.0,-3.6358,-3.691,-3.5788,0.0,0.0,0.0,0.0,0.0,0.0,0.0,0.0,-2.4273,-2.4731,-2.9011,-2.9783,-3.1321,0.0,-3.7036,-3.8824,0.0,0.0,0.0,0.0,0.0,0.0,0.0,0.0,-1.8341,-0.9452,-0.5947,-0.1304,0.4926,1.0448,1.2284,1.0016,0.3635,-0.6241,-1.9762,-2.7602,-3.2367,0.0,0.0,0.0,0.0,0.0,0.0,0.0,0.0,0.0,0.0,0.0,0.0,0.0,0.0,0.0,0.0,0.0,0.0,0.0,0.0,0.0,0.0,0.0,-3.281,0.0,0.0,0.0,0.0,0.0,0.0,0.0,0.0,0.0,0.2888,1.2576,2.123,2.9905,3.5232,3.6972,3.3087,0.0,0.0,0.0,0.0,0.0,0.0,0.0,1.1308,1.0467,0.8678,0.7589,0.7901,0.9843,1.2136,1.4119,0.0,0.0,2.0417,2.2419,2.3258,2.2214,2.3709,2.4846,2.3534,2.496,2.645,0.0,0.0,0.0,0.0,0.0,0.0,0.0,0.0,-3.6577,-3.6517,0.0,-3.6121,0.0,0.0,0.0,0.0,-3.1909,-2.8657,0.0,0.0,-1.9851,-2.0153,-2.3205,-2.5192,-2.7131,-2.8933,-3.0887,-3.208,-3.2767,-3.906,0.0,0.0,0.0,0.0,0.0,0.0,-1.2541,-0.7514,-0.0919,0.4177,0.7667,1.2686,1.4338,1.1971,-0.3566,-1.5775,-2.3702,-2.9484,-3.3447,-3.5124,-3.5929,0.0,0.0,0.0,0.0,0.0,0.0,0.0,0.0,0.0,0.0,0.0,0.0,0.0,0.0,0.0,0.0,0.0,0.0,0.0,0.0,-3.2612,0.0,0.0,0.0,0.0,0.0,0.0,0.0,0.0,0.0,-1.7178,-0.2535,0.6502,1.4237,2.1258,0.0,0.0,0.0,0.0,2.1462,1.2971,1.8653,2.0494,1.0947,0.9931,1.0061,0.9351,0.0,0.0,0.643,0.8414,1.0102,1.0699,1.301,1.577,1.8822,2.1018,2.2277,2.2277,2.3261,2.4204,2.3622,2.3558,2.4043,-3.733,0.0,0.0,0.0,0.0,-3.8302,-3.8507,-3.9088,-3.7021,-3.6417,-3.6841,-3.5499,0.0,0.0,0.0,0.0,0.0,0.0,-2.0226,-1.878,-1.353,-1.3223,-1.7085,-1.7318,-1.9079,-2.2108,-2.5844,-2.5306,-2.1216,-2.7008,-3.1234,-3.3742,0.0,0.0,0.0,0.0,-1.1035,-0.0253,0.3588,0.7989,1.3661,1.6981,1.4465,0.6062,-0.5239,-1.4917,-2.2546,-2.8626,-3.2933,-3.5143,-3.5772,0.0,0.0,0.0,0.0,0.0,0.0,0.0,0.0,0.0,0.0,0.0,0.0,0.0,0.0,0.0,0.0,0.0,0.0,0.0,-3.3991,-3.2932,-3.2025,0.0,0.0,0.0,0.0,0.0,0.0,0.0,0.0,0.0,-0.7027,0.0536,0.7988,0.0,0.0,2.1683,2.2933,1.8513,1.488,1.4501,1.4361,0.0,1.1643,1.0574,0.9763,0.8898,0.6457,0.515,0.6447,0.7194,0.829,0.9998,1.0779,1.195,1.3874,1.7165,1.9186,1.8663,2.0317,2.1895,2.1274,2.2091,2.3567,-3.7337,-3.6711,-3.678,-3.715,-3.7559,-3.6674,-3.6465,-3.6637,-3.4858,-3.4518,-3.513,-3.3381,-3.2491,-3.2298,-3.288,0.0,0.0,0.0,-2.0074,-1.5857,-1.2653,-1.1908,-1.3356,-1.353,-1.5441,-1.8737,-1.8788,-1.7338,-1.4627,-1.5467,-1.7042,-1.9247,0.0,-2.062,-1.243,-0.9397,-0.3779,0.4484,0.9016,1.341,1.7758,1.7757,1.2664,0.2275,-0.7062,-1.5349,-2.2624,-2.8903,-3.3232,-3.5439,-3.6266,-3.7354,0.0,0.0,0.0,0.0,0.0,0.0,0.0,0.0,0.0,0.0,0.0,-3.7417,-3.7175,0.0,0.0,0.0,-3.3014,-3.2823,-3.3513,-3.2611,0.0,0.0,0.0,0.0,0.0,0.0,0.0,-2.5627,-2.4134,-2.0851,-1.3808,-0.7788,-0.0555,0.8897,1.0973,1.1914,1.3237,0.0,0.8314,1.0679,1.0739,1.0473,1.052,0.9146,0.752,0.5814,0.3995,0.3331,0.4303,0.5182,0.6233,0.7761,0.8897,0.9735,1.0667,1.365,1.6118,1.5888,1.7907,1.9683,1.9572,2.0664,2.2278,-3.7218,-3.6252,-3.5696,-3.5116,-3.4477,-3.322,-3.2307,-3.1627,-3.1392,-3.1571,-3.2071,-3.033,-2.9316,-2.8822,-2.8801,0.0,-2.4811,-2.6678,-2.272,-1.4447,-1.5497,-1.4697,-1.2374,-1.3286,-1.544,-1.8454,-1.1876,-0.9759,-1.1305,-0.5855,-0.1878,0.0,-0.6824,-0.8416,-0.4506,0.2443,0.643,0.7372,1.4971,1.9417,2.0356,1.6083,0.9515,0.0687,-0.8879,-1.707,-2.3618,-2.9971,-3.4152,-3.5905,-3.7103,-3.8269,-3.9397,0.0,0.0,0.0,0.0,0.0,0.0,0.0,0.0,0.0,0.0,0.0,0.0,0.0,0.0,-3.3061,-3.229,0.0,-3.1335,-3.186,0.0,0.0,0.0,-3.1013,-2.834,-2.869,-2.7988,-2.4859,0.0,0.0,-2.1187,-1.6881,-1.0209,-0.0148,0.0,-0.1368,-0.2609,0.0154,0.2182,0.428,0.7848,1.0045,0.8866,0.6642,0.4352,0.1678,0.0334,0.0498,0.1489,0.2983,0.414,0.4967,0.6965,0.8852,0.9025,1.0838,1.2472,1.4129,1.6092,1.7567,1.8536,1.9158,2.0557,-3.6006,-3.6369,-3.4657,-3.4505,-3.5457,-3.5224,-3.5627,-3.6152,-3.2946,-3.157,-3.1447,-2.8245,-2.6015,-2.4511,-2.0589,-2.0386,-2.3124,-1.9897,-1.8648,-1.883,-1.7175,-1.7474,-1.926,-1.7302,-1.7689,-1.9919,-1.7572,-1.2037,-0.4305,-0.471,0.0185,0.9468,0.7012,0.4486,0.2547,0.4738,0.8793,1.4775,1.9459,2.2467,2.3321,1.5492,0.7838,0.1043,-1.003,-1.8605,-2.4426,-3.0475,-3.4425,-3.5845,-3.6686,-3.7877,-3.9526,-3.7557,0.0,0.0,0.0,0.0,0.0,0.0,0.0,0.0,0.0,-3.6291,-3.5788,0.0,-3.3452,0.0,-3.0856,-3.0225,-3.0956,-3.0606,0.0,0.0,-3.0729,-3.0339,-2.7735,-2.8337,-2.8412,-2.6942,-2.5944,-2.3896,-1.9853,-1.7908,-1.4531,-0.8099,-0.5156,-0.3366,-0.2146,-0.0619,0.141,0.3969,0.6591,0.8437,0.7815,0.5095,0.2162,0.0504,0.0,0.0334,0.1657,0.2832,0.4009,0.5311,0.5945,0.7101,0.8675,0.885,0.9147,1.0921,1.3368,1.5521,1.6695,1.7587,1.9236,-3.5475,-3.5685,-3.4655,-3.4739,-3.5469,-3.5294,-3.5358,-3.5394,-3.31,-3.1278,-2.96,-2.4026,-2.1352,-2.0761,-1.6555,-1.7155,-2.1225,-1.8689,-1.8906,-2.1624,-2.138,-2.1729,-2.266,-2.1549,-2.1845,-2.3329,-1.8889,-1.2605,-0.4905,-0.1431,0.4676,1.3142,1.4871,1.4591,1.2715,1.2885,1.5533,2.0495,2.3327,2.4054,2.2409,1.4035,0.6323,-0.0376,-1.1761,-2.0014,-2.4555,-3.0308,-3.4143,-3.5643,-3.6411,-3.7636,-3.9174,-3.6916,-3.6072,0.0,0.0,0.0,0.0,0.0,0.0,0.0,0.0,0.0,0.0,0.0,-3.2269,-3.1271,-3.0295,-2.9871,-3.0214,-2.9692,-2.9171,-2.8607,-2.914,-2.868,-2.653,-2.6902,-2.7194,-2.6713,-2.5366,-2.3694,-2.1481,-1.9072,-1.6679,-1.3752,-0.895,-0.503,-0.3529,-0.2171,-0.0314,0.2843,0.4636,0.5492,0.5347,0.2129,-0.0496,-0.0995,-0.1504,-0.1336,0.0327,0.1327,0.2505,0.4265,0.4707,0.5173,0.6729,0.7017,0.7303,0.8773,1.1183,1.3475,1.5056,1.5913,1.7724,-3.529,-3.4931,-3.517,-3.5324,-3.5344,-3.5009,-3.4157,-3.3014,-3.2611,-3.0368,-2.6527,-1.9102,-1.6381,-1.7056,-1.476,-1.5867,-1.9709,-2.0059,-2.146,-2.3944,-2.6213,-2.635,-2.4774,-2.5968,-2.6775,-2.6858,-1.9646,-1.3768,-0.9227,0.0913,0.817,1.2791,1.8245,2.1405,2.2427,2.2601,2.3512,2.5076,2.6674,2.5082,2.0041,1.2428,0.4752,-0.2805,-1.3736,-2.1371,-2.4992,-3.0007,-3.351,-3.5156,-3.6095,-3.7118,-3.8339,-3.619,-3.5524,0.0,-3.5319,0.0,0.0,0.0,0.0,0.0,0.0,0.0,0.0,-3.1428,-3.0685,-3.0131,-2.9938,-2.9601,-2.8936,-2.857,-2.7923,-2.6983,-2.6933,-2.6487,-2.5074,-2.4933,-2.5039,-2.5126,-2.3877,-2.318,-2.2911,-1.9787,-1.7478,-1.6314,-1.1227,-0.6861,-0.5704,-0.3745,-0.11,0.1568,0.2215,0.2399,0.1619,-0.1144,-0.3114,-0.2774,-0.3309,-0.3316,-0.1447,-0.0493,0.0666,0.243,0.2989,0.3244,0.4267,0.5212,0.6192,0.6955,0.9545,1.2012,1.3776,1.5025,1.6842,-3.4643,-3.5347,-3.5313,-3.5814,-3.6729,-3.7845,-3.7477,-3.582,-3.237,-2.7088,-2.0586,-1.5567,-1.287,-1.2232,-1.3081,-1.4879,-1.7329,-1.989,-2.3512,-2.7868,-2.8447,-2.8994,-2.9574,-3.0578,-3.0347,-2.913,-2.813,-2.2125,-1.1521,-0.6351,0.126,1.1066,1.6623,2.0727,2.3499,0.0,0.0,0.0,2.9176,2.668,2.0799,1.1749,0.2967,-0.543,-1.5668,0.0,-2.7945,-3.0939,-3.2861,-3.3914,-3.4668,0.0,0.0,0.0,0.0,0.0,0.0,0.0,0.0,0.0,0.0,0.0,-2.8872,-2.875,-2.9546,-2.9246,-2.8876,-2.8567,-2.812,-2.7369,-2.6532,-2.5906,-2.5589,-2.5693,-2.5276,-2.4493,-2.3592,-2.2806,-2.2421,-2.2136,-2.147,-2.0614,-1.9594,-1.8784,-1.7458,-1.51,-1.1789,-0.9341,-0.788,-0.3169,0.0634,0.1728,0.1258,0.0634,-0.0323,-0.2582,-0.4037,-0.3412,-0.3451,-0.3118,-0.1288,-0.0822,-0.0166,0.0965,0.0829,0.1022,0.2027,0.2937,0.4236,0.566,0.8429,1.1283,1.3588,1.5568,1.7764,-3.4819,-3.6236,-3.6351,-3.6606,0.0,-3.8235,-3.6602,-3.3024,-3.1361,-2.674,-2.008,-1.5268,-1.3174,-1.3141,-1.2544,-1.468,-1.8718,-2.0283,-2.458,-3.0891,-3.0418,-3.1067,-3.2883,-3.2875,-3.2404,-3.1475,-3.1347,-2.5461,-1.4602,-0.9597,-0.1979,0.8378,1.612,2.0634,2.2054,2.6143,2.8523,2.9024,2.7082,2.2406,1.4783,0.5615,-0.3277,-1.1707,-2.0111,0.0,0.0,0.0,0.0,0.0,0.0,0.0,0.0,-3.4303,0.0,-3.4393,-3.3145,-3.2352,-3.214,-3.0785,-2.932,-2.7753,-2.6341,-2.5979,-2.6998,-2.7796,-2.7942,-2.7222,-2.717,-2.6825,-2.5878,-2.4922,-2.4509,-2.4593,-2.3079,-2.1886,-2.1675,-2.0644,-2.0099,-2.0563,-1.9508,-1.8627,-1.8864,-1.7233,-1.6147,-1.496,-1.2305,-1.0125,-0.8711,-0.43,-0.0637,0.0158,-0.0943,-0.1889,-0.2067,-0.3993,-0.5263,-0.4323,-0.4538,-0.4061,-0.1762,-0.1473,-0.1158,0.0162,0.0,-0.0169,0.1181,0.2235,0.3333,0.5117,0.7345,0.9807,1.2057,1.4179,1.6926,-3.499,-3.6504,-3.7186,-3.7216,-3.6858,-3.7385,-3.3936,-2.8054,-2.8677,0.0,0.0,-1.5634,-1.4276,-1.583,-1.3379,-1.5421,-2.1035,-2.2273,-2.6406,-3.2697,-3.1931,-3.238,-3.3952,-3.3393,-3.2904,-3.2508,-3.2126,-2.6675,-1.6866,-1.1107,-0.3473,0.6177,1.5553,2.0157,2.0431,2.4574,2.6458,2.5506,2.2716,1.6584,0.7152,-0.1697,-1.0154,-1.8364,-2.4581,-2.8831,-3.0875,-3.1474,-3.2382,-3.3885,-3.3782,-3.3984,-3.4667,-3.3514,-3.297,-3.3327,-3.1747,-3.0706,-3.0635,-2.8876,-2.7253,-2.6008,-2.4749,-2.4393,-2.5237,-2.6819,-2.7336,-2.6187,-2.6668,-2.652,-2.5452,-2.4225,-2.3448,-2.326,-2.0886,-1.9447,-1.9955,-1.8418,-1.7912,-1.8959,-1.7725,-1.7102,-1.8173,-1.6021,-1.4416,-1.5253,-1.3151,-1.0406,-0.9346,-0.6062,-0.3356,-0.2717,-0.3798,-0.4549,-0.4236,-0.584,-0.6806,-0.5513,-0.6231,-0.5796,-0.3205,-0.2435,-0.1965,-0.0323,-0.066,-0.0836,0.0,0.1024,0.2436,0.3864,0.5904,0.8171,1.0173,1.187,1.4571,-3.4401,-3.4501,-3.656,-3.7079,-3.646,-3.5655,-3.0564,-2.2985,-2.2209,-2.1486,-2.0435,-1.422,-1.3723,-1.7356,-1.6741,-1.8428,-2.2158,-2.8046,-3.1132,-3.1689,-3.2639,-3.2166,-3.0633,-3.1565,-3.1033,-2.9485,-3.1526,-2.7229,-1.746,-1.2277,-0.4337,0.621,1.3399,1.7962,2.0372,1.9071,1.6593,1.3443,1.6863,1.3144,0.1819,-0.5942,-1.4006,-2.2289,-2.6225,-2.9895,-3.3725,-3.3043,-3.2732,-3.3073,-3.3283,-3.3024,-3.2266,-3.2462,-3.2298,-3.1596,-3.1134,-3.0163,-2.8593,-2.6866,-2.5172,-2.3302,-2.3502,-2.4295,-2.5489,-2.6476,-2.6764,-2.6187,-2.5974,-2.5233,-2.3545,-2.2478,-2.1527,-2.0788,-1.9037,-1.8066,-1.8304,-1.6976,-1.6177,-1.6649,-1.6188,-1.5705,-1.5722,-1.5493,-1.5368,-1.5211,-1.3861,-1.2207,-1.0099,-0.7206,-0.5928,-0.6114,-0.667,-0.7217,-0.7505,-0.8764,-0.8774,-0.7838,-0.8063,-0.7307,-0.4097,-0.3369,-0.2912,-0.1745,-0.1628,-0.1981,-0.2957,-0.2029,-0.0519,0.0523,0.2844,0.5793,0.8344,0.9454,1.1528,-3.3717,-3.4102,-3.5109,-3.5301,-3.4585,-3.062,-2.6407,-2.2096,-1.9637,-1.8598,-1.8417,-1.6296,-1.6273,-1.774,-1.8206,-2.038,-2.4041,-2.7826,-3.0609,-3.2331,-3.2264,-3.1884,-3.1332,-3.1419,-3.1075,-3.0497,-3.2144,-2.7004,-1.6404,-1.3615,-0.6677,0.4467,0.8527,1.1832,1.4629,1.076,0.5958,0.09,0.5722,0.3004,-0.7967,-1.4209,-2.0937,-2.8236,-3.074,-3.2772,-3.4817,-3.4089,-3.3589,-3.3422,-3.2818,-3.2287,-3.2019,-3.1889,-3.1468,-3.0771,-2.9754,-2.8583,-2.7179,-2.5469,-2.4026,-2.3238,-2.3719,-2.4688,-2.6071,-2.6839,-2.6744,-2.5586,-2.5567,-2.4734,-2.2573,-2.1616,-2.0838,-2.0004,-1.8212,-1.7224,-1.7427,-1.6227,-1.5494,-1.5848,-1.6358,-1.6211,-1.5611,-1.5711,-1.5931,-1.5894,-1.4903,-1.3562,-1.2963,-1.1384,-0.9708,-0.8636,-0.8225,-0.8439,-0.9161,-0.9603,-0.9577,-0.8908,-0.9136,-0.8114,-0.5783,-0.509,-0.4177,-0.2746,-0.2949,-0.3304,-0.3304,-0.2717,-0.2074,-0.1043,0.0531,0.2875,0.4864,0.7798,1.155,-3.2655,-3.3088,-3.3557,-3.3187,-3.1826,-2.6862,-2.3635,-2.1517,-1.9103,-1.7784,-1.7464,-1.8334,-1.8906,-1.9253,-2.0153,-2.2088,-2.469,-2.724,-2.9512,-3.1289,-3.0924,-3.094,-3.1308,-3.0588,-3.0376,-3.0629,-3.0535,-2.4786,-1.5259,-1.3216,-0.7461,0.1871,0.3464,0.483,0.6648,0.1373,-0.4508,-1.0233,-0.7547,-0.9795,-1.7886,-2.2743,-2.7952,-3.3465,-3.4976,-3.5763,-3.6073,-3.5344,-3.4626,-3.3916,-3.251,-3.1761,-3.1755,-3.0871,-3.0171,-2.9662,-2.8162,-2.6794,-2.5641,-2.4258,-2.3637,-2.3917,-2.443,-2.5392,-2.6648,-2.722,-2.6819,-2.5373,-2.5275,-2.439,-2.2494,-2.1387,-2.0678,-1.997,-1.8046,-1.7145,-1.7368,-1.6125,-1.5385,-1.5904,-1.671,-1.6894,-1.6333,-1.6098,-1.6322,-1.6536,-1.5604,-1.5317,-1.5981,-1.535,-1.3632,-1.1985,-1.0808,-1.0549,-1.0603,-1.0866,-1.066,-1.0404,-1.0358,-0.9397,-0.7778,-0.6766,-0.574,-0.3888,-0.4422,-0.4612,-0.3001,-0.3578,-0.3973,-0.3124,-0.1942,-0.0358,0.2688,0.761,1.1947,-3.105,-3.0465,-3.2038,-3.1124,-2.8695,-2.7538,-2.4289,-2.0004,-2.0357,-2.0071,-1.8982,-1.8328,-2.009,-2.3009,-2.3956,-2.3602,-2.2931,-2.8876,-2.9774,-2.6842,-2.8086,-2.8717,-2.8323,-2.7482,-2.7144,-2.6917,-2.3857,-1.9333,-1.3243,-0.8723,-0.3894,0.045,-0.0088,-0.2046,-0.4342,-0.9018,-1.418,-1.9717,-2.2297,-2.4377,-2.5965,-2.9776,-3.3689,-3.7616,-3.725,-3.7687,-3.8689,-3.7196,-3.5634,-3.4479,-3.2595,-3.1123,-3.0407,-2.9156,-2.8104,-2.7414,-2.6388,-2.5093,-2.345,-2.352,-2.4016,-2.4688,-2.5294,-2.6167,-2.76,-2.7431,-2.6744,-2.5684,-2.4786,-2.3943,-2.3106,-2.1834,-2.0913,-2.063,-1.874,-1.7552,-1.7663,-1.6481,-1.5715,-1.6112,-1.6884,-1.6911,-1.6075,-1.6355,-1.6968,-1.7198,-1.7025,-1.7089,-1.831,-1.8164,-1.7577,-1.6968,-1.5868,-1.4692,-1.4034,-1.3791,-1.3675,-1.2777,-1.2463,-1.1466,-0.9676,-0.8061,-0.6755,-0.5416,-0.5299,-0.5689,-0.5937,-0.6727,-0.7097,-0.6785,-0.5283,-0.3037,0.2328,0.7411,1.1164,-2.9736,-2.9358,-2.9901,-2.9945,-2.9419,-2.87,-2.6214,-2.274,-2.1922,-2.1996,-2.2579,-2.202,-2.2011,-2.2262,-2.2725,-2.3025,-2.3413,-2.5533,-2.628,-2.555,-2.6081,-2.6176,-2.5967,-2.61,-2.628,-2.6337,-2.244,-1.7358,-1.1525,-0.5872,-0.2313,-0.1993,-0.7605,-1.1421,-1.2427,-1.9008,-2.4237,-2.7396,-3.0317,-3.2371,-3.3549,-3.4691,-3.6157,-3.7753,-3.8216,-3.8163,-3.7785,-3.6213,-3.4741,-3.3618,-3.1721,-3.0114,-2.909,-2.8336,-2.7243,-2.582,-2.4609,-2.3706,-2.3153,-2.3647,-2.4313,-2.5294,-2.5703,-2.6476,-2.7526,-2.686,-2.6071,-2.5489,-2.4492,-2.3503,-2.2772,-2.1834,-2.1228,-2.1086,-1.9694,-1.8754,-1.8758,-1.7467,-1.6621,-1.6778,-1.7907,-1.8104,-1.6664,-1.7433,-1.8419,-1.8832,-1.9653,-2.1231,-2.1642,-2.2257,-2.3154,-2.3451,-2.352,-2.1691,-1.8289,-1.7649,-1.7632,-1.7275,-1.6663,-1.5199,-1.2835,-1.1089,-0.9682,-0.7079,-0.8432,-0.8567,-0.7113,-0.9622,-1.124,-1.0631,-0.9679,-0.6941,0.0716,0.5067,0.8061,-2.8307,-2.8276,-2.8632,-2.9465,-3.0362,-2.9455,-2.7663,-2.5414,-2.3545,-2.3867,-2.5437,-2.4606,-2.3084,-2.1463,-2.1655,-2.2185,-2.2335,-2.1966,-2.1925,-2.243,-2.2222,-2.2212,-2.2312,-2.2674,-2.2989,-2.239,-1.8494,-1.3645,-0.8313,-0.4043,-0.3071,-0.7007,-1.4735,-1.92,-2.0452,-2.7326,-3.1709,-3.3386,-3.5357,-3.6894,-3.7926,-3.7688,-3.7642,-3.8218,-3.9073,-3.8958,-3.7448,-3.5958,-3.4532,-3.3277,-3.0917,-2.9068,-2.793,-2.7082,-2.5902,-2.4177,-2.3036,-2.2733,-2.3232,-2.3822,-2.4733,-2.572,-2.6108,-2.6688,-2.7051,-2.636,-2.5489,-2.5001,-2.4097,-2.3115,-2.2861,-2.2145,-2.1947,-2.2131,-2.0948,-2.0064,-1.9738,-1.8547,-1.7583,-1.7537,-1.8552,-1.9205,-1.8371,-1.9723,-2.1222,-2.1895,-2.4149,-2.6225,-2.6182,-2.7845,-2.898,-2.9186,-3.0438,-2.8558,-2.2769,-2.1986,-2.2241,-2.1167,-2.018,-1.871,-1.6524,-1.4826,-1.3349,-1.1535,-1.3389,-1.3303,-1.0694,-1.2148,-1.4358,-1.3654,-1.2372,-0.9242,-0.0537,0.2172,0.4383,-2.6764,-2.665,-2.8915,-3.0139,-3.0389,-2.9694,-2.8148,-2.6484,-2.5347,-2.5657,-2.6483,-2.4622,-2.2885,-2.154,-2.1989,-2.0843,-1.8416,-1.9154,-1.7733,-1.493,-1.5718,-1.6333,-1.6438,-1.5952,-1.5373,-1.5015,-1.0726,-0.6741,-0.3703,-0.2938,-0.6881,-1.5751,-1.9983,-2.4025,-2.796,-3.2211,-3.5396,-3.6826,-3.7229,-3.7642,-3.8287,-3.8289,-3.8512,-3.9058,-4.013,-3.9904,-3.864,-3.7446,-3.583,-3.3993,-3.0388,-2.8002,-2.6831,-2.4886,-2.3371,-2.2315,-2.1898,-2.2152,-2.3037,-2.4032,-2.5022,-2.5913,-2.6465,-2.688,-2.7051,-2.5974,-2.5099,-2.459,-2.3373,-2.2912,-2.3651,-2.2938,-2.3021,-2.3959,-2.2481,-2.1404,-2.1002,-1.956,-1.8474,-1.8378,-1.8921,-1.9915,-2.1254,-2.2953,-2.5007,-2.6692,-2.8788,-3.0676,-3.2279,-3.332,-3.3972,-3.4256,-3.4871,-3.4409,-2.8435,-2.7292,-2.6284,-2.5056,-2.4288,-2.2049,-2.0036,-1.8153,-1.674,-1.5946,-1.7279,-1.68,-1.4253,-1.4109,-1.5856,-1.5579,-1.3786,-0.9419,-0.268,-0.1259,0.0726,-2.6714,-2.7257,-2.9773,-3.1286,-3.2027,-3.2421,-3.1927,-3.073,-2.9278,-2.8981,-2.8952,-2.7085,-2.5077,-2.3043,-1.8417,-1.5367,-1.3705,-1.3383,-1.1994,-0.9997,-0.9096,-0.9125,-0.9737,-0.8557,-1.0055,-1.2299,-0.8269,-0.5848,-0.661,-0.9926,-1.4243,-1.9193,-2.5535,-2.9916,-3.2223,-3.5324,-3.7445,-3.8087,-3.8422,-3.8587,-3.8533,-3.887,-3.8858,-3.8336,-3.873,-3.8419,-3.7178,-3.5574,-3.3856,-3.199,-2.9252,-2.6948,-2.5179,-2.3122,-2.214,-2.2189,-2.1826,-2.2354,-2.3832,-2.4446,-2.5153,-2.6207,-2.633,-2.6496,-2.6476,-2.5392,-2.4313,-2.3673,-2.2894,-2.2778,-2.3368,-2.3359,-2.393,-2.5138,-2.4472,-2.3172,-2.2452,-2.1514,-2.0747,-2.0299,-2.058,-2.2248,-2.4684,-2.6301,-2.8458,-3.1914,-3.4482,-3.6142,-3.7208,-3.9109,-4.0268,-3.9897,-4.124,-4.1862,-3.9423,-3.5281,-3.2805,-3.0963,-2.9345,-2.6527,-2.4135,-2.2665,-2.1269,-1.9478,-2.0664,-2.1401,-1.9274,-1.8828,-1.9958,-1.6679,-1.4892,-1.2425,-0.5357,-0.4686,-0.2912,-2.6444,-2.7751,-2.9822,-3.1787,-3.3388,-3.4081,-3.4404,-3.3894,-3.1187,-3.0052,-2.9592,-2.5914,-2.3281,-2.1082,-1.3687,-0.8871,-0.7398,-0.6746,-0.6236,-0.5409,-0.3427,-0.3173,-0.411,-0.3485,-0.5111,-0.8329,-0.6642,-0.6691,-1.0165,-1.5176,-1.9849,-2.4379,-3.0335,-3.3928,-3.5687,-3.8003,-3.916,-3.9101,-3.9124,-3.894,-3.8618,-3.8515,-3.8459,-3.8187,-3.7841,-3.7201,-3.6381,-3.4728,-3.2901,-3.0997,-2.846,-2.5926,-2.3698,-2.2546,-2.2149,-2.2514,-2.2434,-2.2953,-2.4366,-2.4881,-2.5405,-2.6095,-2.6418,-2.6476,-2.6304,-2.5216,-2.4214,-2.3344,-2.2756,-2.2666,-2.3134,-2.3465,-2.447,-2.5904,-2.5594,-2.477,-2.3843,-2.342,-2.2593,-2.2074,-2.3182,-2.5425,-2.8397,-3.0751,-3.4064,-3.793,-4.0755,-4.2366,-4.318,-4.479,-4.6458,-4.5733,-4.6798,-4.716,-4.5573,-4.2566,-3.8668,-3.6556,-3.396,-3.1132,-2.8689,-2.7311,-2.5717,-2.3941,-2.3774,-2.498,-2.5199,-2.4459,-2.1779,-1.8321,-1.7521,-1.63,-1.1793,-0.8517,-0.6401,-2.5828,-2.7577,-2.9013,-3.139,-3.3847,-3.4294,-3.4943,-3.4835,-3.069,-2.9218,-2.8509,-2.0996,-1.8664,-1.654,-0.9552,-0.2856,-0.0576,-0.0897,-0.1084,-0.0698,0.0949,0.0937,-0.0594,-0.1508,-0.246,-0.3588,-0.4804,-0.9025,-1.4996,-1.8275,-2.3691,-3.0904,-3.3285,-3.5993,-3.945,-4.0099,-4.0637,-4.0079,-3.9441,-3.8955,-3.8363,-3.761,-3.7828,-3.8704,-3.7785,-3.7006,-3.6741,-3.5308,-3.3581,-3.1451,-2.82,-2.4925,-2.2974,-2.3099,-2.3559,-2.3317,-2.3513,-2.3973,-2.4588,-2.5351,-2.5594,-2.587,-2.6578,-2.6668,-2.6187,-2.5392,-2.4412,-2.3226,-2.274,-2.2678,-2.2955,-2.3428,-2.4547,-2.6082,-2.6049,-2.5497,-2.5246,-2.4889,-2.4367,-2.3895,-2.5912,-2.8821,-3.2129,-3.593,-4.0167,-4.382,-4.6565,-4.8486,-4.9243,-5.0326,-5.112,-5.1337,-5.1229,-5.093,-5.0326,-4.9153,-4.5304,-4.1707,-3.8728,-3.5881,-3.3608,-3.2038,-3.0507,-2.8766,-2.8665,-2.974,-2.909,-2.803,-2.4483,-2.1563,-2.1302,-1.9333,-1.4346,-1.0354,-0.9543,-2.5522,-2.6928,-2.8862,-3.0657,-3.2548,-3.4549,-3.5545,-3.5455,-3.3586,-3.1319,-2.8061,-2.4173,-2.0254,-1.5479,-0.9437,-0.4119,0.0083,0.1471,0.2406,0.2677,0.4287,0.3434,0.0902,-0.0488,-0.3922,-0.9764,-1.5715,-1.9846,-2.3028,-2.6862,-3.1217,-3.4038,-3.6525,-3.7949,-3.8883,-3.9975,-4.0235,-3.9491,-4.0024,-3.9921,-3.9113,-3.8963,-3.9171,-3.9371,-3.8308,-3.7601,-3.7438,-3.5827,-3.4042,-3.2072,-2.9328,-2.6493,-2.4207,-2.3698,-2.3865,-2.4096,-2.4324,-2.4932,-2.5548,-2.5345,-2.5655,-2.628,-2.5964,-2.5761,-2.58,-2.4824,-2.3745,-2.286,-2.2749,-2.2708,-2.2557,-2.3326,-2.4844,-2.7004,-2.7022,-2.67,-2.6874,-2.6597,-2.6177,-2.612,-2.932,-3.2892,-3.5997,-4.0085,-4.423,-4.8057,-5.0216,-5.1553,-5.3077,-5.3626,-5.417,-5.4607,-5.4433,-5.4024,-5.303,-5.2045,-4.9636,-4.6039,-4.2951,-4.0037,-3.7946,-3.5875,-3.4517,-3.3595,-3.35,-3.3272,-3.2716,-3.0453,-2.6773,-2.4163,-2.2955,-1.9223,-1.4209,-1.2006,-1.1571,-2.5134,-2.6193,-2.8373,-3.0292,-3.2061,-3.4555,-3.5747,-3.5521,-3.362,-3.0712,-2.7102,-2.2588,-1.7934,-1.2728,-0.7924,-0.3736,0.0083,0.2846,0.3613,0.314,0.4821,0.362,0.0,-0.3298,-0.8061,-1.5089,-2.1832,-2.6092,-2.8392,-3.2353,-3.5145,-3.6575,-3.8412,-3.9332,-3.9336,-4.0161,-4.0236,-3.977,-4.0599,-4.089,-4.0372,-4.0342,-4.0452,-4.0394,-3.939,-3.8636,-3.8237,-3.6961,-3.516,-3.2807,-3.0467,-2.798,-2.5599,-2.5529,-2.5628,-2.5348,-2.5579,-2.589,-2.6217,-2.5695,-2.5605,-2.6331,-2.5641,-2.5197,-2.543,-2.4424,-2.3573,-2.2756,-2.2716,-2.2743,-2.2688,-2.3521,-2.5211,-2.7626,-2.74,-2.7702,-2.8483,-2.959,-3.0255,-3.13,-3.4509,-3.7812,-4.0747,-4.4375,-4.7977,-5.1478,-5.3001,-5.4009,-5.55,-5.5925,-5.6445,-5.6831,-5.6607,-5.5993,-5.543,-5.4595,-5.3535,-5.0432,-4.7039,-4.4028,-4.1375,-3.9073,-3.7403,-3.5996,-3.5582,-3.4759,-3.4176,-3.1755,-2.8813,-2.689,-2.4224,-2.0298,-1.6341,-1.4917,-1.3795,-2.4797,-2.5604,-2.7709,-3.0182,-3.2533,-3.4126,-3.5277,-3.5485,-3.1502,-2.8323,-2.4936,-1.8851,-1.2965,-0.9049,-0.5418,-0.2225,0.0413,0.2602,0.251,0.132,0.1809,0.0723,-0.3768,-0.9265,-1.4418,-1.9084,-2.4121,-2.7837,-3.0879,-3.415,-3.6513,-3.8366,-3.9182,-3.9856,-4.039,-4.0859,-4.0936,-4.0653,-4.1272,-4.1801,-4.1971,-4.1533,-4.1479,-4.1976,-4.0795,-3.9767,-3.9082,-3.8261,-3.6594,-3.3715,-3.1495,-2.9606,-2.8049,-2.8591,-2.8226,-2.6771,-2.7059,-2.6842,-2.6519,-2.5983,-2.59,-2.6133,-2.5661,-2.5509,-2.5273,-2.4646,-2.3972,-2.3082,-2.3128,-2.3129,-2.3487,-2.4267,-2.6179,-2.825,-2.843,-2.9098,-3.1395,-3.3402,-3.4642,-3.665,-4.0189,-4.3303,-4.5335,-4.9247,-5.2174,-5.4156,-5.556,-5.6475,-5.7053,-5.7464,-5.8026,-5.8119,-5.7963,-5.7496,-5.68,-5.6054,-5.4999,-5.3421,-5.0286,-4.7447,-4.4302,-4.1921,-3.9863,-3.8523,-3.7066,-3.6292,-3.4899,-3.2523,-3.017,-2.764,-2.4885,-2.1853,-1.9211,-1.6915,-1.4517,-2.4939,-2.6218,-2.8033,-3.0076,-3.2135,-3.3517,-3.4098,-3.3984,-3.2404,-2.9057,-2.5295,-2.1099,-1.5435,-1.0479,-0.682,-0.4245,-0.195,-0.0162,0.0081,-0.1299,-0.2692,-0.6608,-1.1774,-1.6173,-2.0345,-2.4585,-2.8799,-3.1947,-3.3783,-3.6544,-3.828,-3.9007,-4.0038,-4.0353,-4.0176,-4.1108,-4.1333,-4.1054,-4.2255,-4.3109,-4.3302,-4.3073,-4.3039,-4.3056,-4.1869,-4.0813,-3.9963,-3.8646,-3.6747,-3.4185,-3.2953,-3.1673,-3.0246,-3.0265,-2.9651,-2.8243,-2.793,-2.7797,-2.7195,-2.6062,-2.586,-2.6553,-2.5315,-2.4627,-2.5254,-2.44,-2.403,-2.4,-2.4384,-2.4711,-2.511,-2.6264,-2.8247,-3.0623,-3.1891,-3.242,-3.3466,-3.5534,-3.757,-3.8908,-4.2589,-4.5893,-4.8722,-5.1463,-5.4229,-5.546,-5.6603,-5.759,-5.8119,-5.8578,-5.894,-5.912,-5.8998,-5.8546,-5.7963,-5.7244,-5.6445,-5.5508,-5.3173,-5.046,-4.7198,-4.4042,-4.2172,-4.0496,-3.8507,-3.7406,-3.5309,-3.3016,-3.0632,-2.8056,-2.5044,-2.1853,-1.9229,-1.6923,-1.4477,-2.4966,-2.6112,-2.775,-2.9685,-3.1705,-3.2893,-3.3297,-3.2962,-3.1468,-2.8456,-2.4356,-2.1223,-1.59,-0.9343,-0.7483,-0.4993,-0.2265,-0.1288,-0.161,-0.3546,-0.7785,-1.2627,-1.7328,-2.12,-2.5608,-2.9988,-3.3713,-3.5818,-3.6956,-3.8681,-3.9281,-3.9395,-4.0154,-4.0212,-3.9848,-4.0942,-4.1676,-4.1692,-4.3019,-4.4115,-4.4598,-4.4344,-4.4169,-4.3905,-4.2865,-4.1729,-4.0466,-3.9003,-3.7133,-3.5366,-3.4357,-3.3513,-3.2313,-3.1748,-3.0771,-2.9193,-2.8831,-2.864,-2.79,-2.6508,-2.5918,-2.6275,-2.4922,-2.4442,-2.4646,-2.4266,-2.4331,-2.5595,-2.5631,-2.6499,-2.8365,-3.0681,-3.3677,-3.6564,-3.7839,-3.768,-3.6329,-3.9163,-4.1564,-4.3597,-4.6664,-4.9996,-5.19,-5.4196,-5.5637,-5.6638,-5.759,-5.8363,-5.8908,-5.9387,-5.9794,-6.0054,-6.0001,-5.9531,-5.8998,-5.8363,-5.7244,-5.6449,-5.39,-5.165,-4.8292,-4.5028,-4.2506,-4.045,-3.9391,-3.783,-3.5309,-3.2762,-3.0451,-2.772,-2.4702,-2.1874,-1.9052,-1.6084,-1.3842,-2.4905,-2.5577,-2.7126,-2.9149,-3.1316,-3.2341,-3.3005,-3.2617,-3.0021,-2.6594,-2.2899,-1.9478,-1.421,-0.7025,-0.7049,-0.4638,-0.0816,-0.1455,-0.3694,-0.7399,-1.304,-1.8678,-2.1964,-2.5601,-2.9592,-3.3644,-3.7523,-3.8517,-3.8689,-3.9349,-3.9684,-3.9552,-3.9721,-3.9807,-4.0037,-4.0952,-4.18,-4.248,-4.3796,-4.4893,-4.5395,-4.5247,-4.4983,-4.4614,-4.3625,-4.2474,-4.107,-3.9613,-3.8163,-3.6748,-3.6013,-3.5037,-3.3991,-3.3255,-3.1984,-3.0457,-2.9902,-2.9582,-2.872,-2.7308,-2.6309,-2.6335,-2.5294,-2.4435,-2.4767,-2.493,-2.5693,-2.7176,-2.7008,-2.8937,-3.2341,-3.6517,-3.9755,-4.2061,-4.386,-4.3248,-4.1823,-4.3682,-4.6893,-4.8931,-5.2297,-5.4421,-5.5841,-5.6738,-5.7746,-5.8264,-5.9016,-5.9632,-6.0214,-6.0553,-6.092,-6.1201,-6.0986,-6.0515,-6.0001,-5.9387,-5.818,-5.6929,-5.3811,-5.1003,-4.7538,-4.4354,-4.1625,-3.9756,-3.9111,-3.7295,-3.4538,-3.2216,-2.9907,-2.7201,-2.4349,-2.1322,-1.8268,-1.5226,-1.261,-2.3919,-2.5186,-2.7049,-2.9032,-3.101,-3.2565,-3.2993,-3.2376,-2.962,-2.6678,-2.3336,-1.8194,-1.3893,-1.0387,-0.7133,-0.3702,-0.2473,-0.3679,-0.7196,-1.4641,-1.9521,-2.5242,-2.877,-3.0941,-3.2217,-3.5032,-3.7609,-3.8279,-3.7904,-3.8834,-3.9477,-3.909,-3.9582,-3.9959,-3.9959,-4.1572,-4.2702,-4.314,-4.4556,-4.5605,-4.5916,-4.5903,-4.5569,-4.5148,-4.4025,-4.3287,-4.2489,-4.0776,-3.9893,-3.9706,-3.8333,-3.6602,-3.5497,-3.5066,-3.3772,-3.1993,-3.1279,-3.0796,-2.9495,-2.8299,-2.7558,-2.7327,-2.6187,-2.5585,-2.5891,-2.6396,-2.7294,-2.8716,-2.9784,-3.2083,-3.6436,-4.0262,-4.3175,-4.5135,-4.6668,-4.7577,-4.7272,-4.7998,-4.9994,-5.2383,-5.4443,-5.6373,-5.8441,-5.8806,-5.9545,-6.0083,-6.0555,-6.1084,-6.1475,-6.1828,-6.2021,-6.2245,-6.1488,-6.0986,-6.0863,-5.9934,-5.8398,-5.6927,-5.3929,-5.0696,-4.7198,-4.4253,-4.1708,-4.021,-3.9111,-3.6887,-3.3965,-3.1888,-2.9745,-2.6863,-2.3812,-2.0925,-1.7814,-1.4597,-1.2022,-2.317,-2.4425,-2.5453,-2.7625,-3.0297,-3.1405,-3.1977,-3.1693,-2.9289,-2.6089,-2.2637,-1.8545,-1.5113,-1.1502,-0.9239,-0.7274,-0.623,-0.7838,-1.3252,-2.0463,-2.5125,-2.9575,-3.4095,-3.5112,-3.5613,-3.6765,-3.7611,-3.7665,-3.7617,-3.7737,-3.8167,-3.8499,-3.9227,-3.9521,-3.9908,-4.1835,-4.2891,-4.3429,-4.494,-4.6046,-4.6171,-4.601,-4.5585,-4.507,-4.4221,-4.3734,-4.3012,-4.1742,-4.1155,-4.0878,-3.9684,-3.7973,-3.6526,-3.5956,-3.4637,-3.2962,-3.2555,-3.1709,-3.0288,-2.9418,-2.8602,-2.7861,-2.6839,-2.6838,-2.7043,-2.7723,-2.9036,-3.0701,-3.2721,-3.5338,-4.1019,-4.3753,-4.631,-4.8924,-4.9764,-5.0842,-5.1958,-5.2055,-5.2397,-5.4781,-5.6588,-5.8388,-5.9834,-6.0538,-6.115,-6.1568,-6.2361,-6.2884,-6.2878,-6.3171,-6.3131,-6.2912,-6.1961,-6.1468,-6.1484,-6.0337,-5.831,-5.6506,-5.4095,-5.0844,-4.7458,-4.4717,-4.2108,-4.0435,-3.8472,-3.6158,-3.3496,-3.1564,-2.9411,-2.6719,-2.3812,-2.0702,-1.7263,-1.38,-1.1765,-2.2245,-2.3378,-2.3521,-2.5906,-2.9265,-2.9926,-3.0954,-3.1678,-2.9301,-2.5987,-2.1698,-2.0265,-1.627,-1.2576,-1.1985,-1.1351,-1.1747,-1.3588,-1.8996,-2.5808,-2.9439,-3.2967,-3.6437,-3.7471,-3.7851,-3.8818,-3.7947,-3.7491,-3.7273,-3.6961,-3.7227,-3.7881,-3.842,-3.8989,-3.9833,-4.1544,-4.2935,-4.3539,-4.509,-4.6036,-4.615,-4.5976,-4.5514,-4.4999,-4.5019,-4.461,-4.386,-4.2748,-4.2021,-4.1733,-4.067,-3.9159,-3.7625,-3.6331,-3.518,-3.3566,-3.3618,-3.2657,-3.1144,-3.0411,-2.9716,-2.807,-2.7514,-2.7717,-2.8317,-2.9246,-3.0767,-3.3192,-3.5644,-3.9483,-4.5486,-4.7486,-5.0056,-5.2762,-5.3143,-5.4013,-5.5473,-5.5296,-5.5518,-5.6424,-5.8264,-5.989,-6.1107,-6.2021,-6.2566,-6.3136,-6.3937,-6.4427,-6.4428,-6.4428,-6.4323,-6.3898,-6.293,-6.1669,-6.1432,-6.0304,-5.831,-5.6031,-5.395,-5.0685,-4.7298,-4.3992,-4.1199,-3.9126,-3.7137,-3.5111,-3.3171,-3.1302,-2.895,-2.6575,-2.3193,-1.96,-1.6325,-1.2836,-1.132,-2.0694,-2.1319,-2.285,-2.5029,-2.7498,-2.9409,-3.0812,-3.1743,-3.0388,-2.7512,-2.3412,-2.0332,-1.7357,-1.449,-1.2563,-1.3902,-1.6979,-1.9504,-2.331,-2.9265,-3.3054,-3.6501,-3.6748,-3.789,-3.8155,-3.7616,-3.7087,-3.682,-3.6679,-3.6485,-3.6562,-3.7488,-3.7898,-3.8438,-3.9695,-4.1283,-4.2787,-4.3673,-4.5064,-4.584,-4.6006,-4.6045,-4.5896,-4.5498,-4.5876,-4.5911,-4.5358,-4.4107,-4.3469,-4.3707,-4.1491,-3.9849,-3.8642,-3.7549,-3.6287,-3.4995,-3.4445,-3.3454,-3.1871,-3.1583,-3.0866,-2.9851,-2.9168,-2.9202,-2.9959,-3.1105,-3.2827,-3.5787,-3.9854,-4.4174,-4.6649,-4.8925,-5.1499,-5.3712,-5.4794,-5.5247,-5.672,-5.7439,-5.78,-5.8673,-5.9944,-6.1095,-6.2097,-6.3131,-6.3719,-6.4218,-6.4905,-6.5338,-6.5374,-6.5374,-6.5439,-6.4873,-6.4042,-6.2595,-6.139,-5.9895,-5.806,-5.5681,-5.3173,-5.02,-4.6673,-4.2834,-4.0032,-3.8442,-3.6404,-3.4419,-3.2618,-3.0836,-2.8805,-2.6523,-2.2695,-1.8496,-1.5898,-1.3282,-1.0841,-1.9849,-2.0256,-2.1661,-2.3741,-2.6082,-2.734,-2.91,-3.0715,-2.9699,-2.7651,-2.5099,-2.267,-2.0891,-1.9323,-1.8176,-1.9923,-2.2942,-2.4468,-2.7565,-3.1806,-3.5299,-3.6834,-3.6549,-3.7479,-3.7482,-3.696,-3.6301,-3.6002,-3.5926,-3.5026,-3.5745,-3.6791,-3.7426,-3.8258,-3.94,-4.1126,-4.2484,-4.3634,-4.4713,-4.5543,-4.5786,-4.5966,-4.5966,-4.5981,-4.6021,-4.6107,-4.594,-4.475,-4.4007,-4.3842,-4.2561,-4.0858,-3.9459,-3.846,-3.7405,-3.5764,-3.4893,-3.3993,-3.26,-3.2141,-3.156,-3.0557,-3.0421,-3.0762,-3.1361,-3.2581,-3.5061,-3.8856,-4.2203,-4.6491,-4.8505,-5.034,-5.2041,-5.3656,-5.4868,-5.5994,-5.7096,-5.814,-5.9242,-6.0228,-6.0857,-6.1762,-6.297,-6.3861,-6.4636,-6.5344,-6.5922,-6.6048,-6.6146,-6.6315,-6.6351,-6.5502,-6.4598,-6.3137,-6.1632,-6.0045,-5.8153,-5.5586,-5.2897,-4.989,-4.6316,-4.2628,-4.0021,-3.802,-3.5941,-3.3859,-3.2361,-3.0656,-2.8676,-2.6401,-2.2122,-1.8237,-1.6175,-1.3913,-1.1085,-1.8966,-1.9043,-2.0431,-2.2548,-2.4738,-2.5409,-2.7028,-2.8965,-2.8831,-2.7432,-2.5822,-2.5461,-2.4995,-2.4392,-2.4388,-2.5606,-2.8841,-2.8944,-3.0732,-3.3434,-3.5944,-3.6669,-3.6419,-3.6667,-3.7182,-3.6636,-3.6024,-3.5413,-3.581,-3.4871,-3.5133,-3.6666,-3.781,-3.8456,-3.9548,-4.1131,-4.2284,-4.3353,-4.4386,-4.5227,-4.5679,-4.5986,-4.6002,-4.5909,-4.5696,-4.5975,-4.5998,-4.5167,-4.4553,-4.4204,-4.3271,-4.182,-3.9787,-3.9259,-3.8186,-3.6297,-3.5306,-3.4153,-3.3056,-3.2636,-3.1962,-3.0871,-3.1457,-3.1715,-3.2671,-3.4495,-3.7619,-4.1938,-4.528,-4.7935,-5.0197,-5.1506,-5.2847,-5.4244,-5.5456,-5.6345,-5.7566,-5.8729,-6.0009,-6.0875,-6.1466,-6.244,-6.3658,-6.4181,-6.4852,-6.5419,-6.592,-6.6451,-6.6582,-6.6993,-6.6967,-6.6103,-6.4996,-6.3458,-6.2026,-6.0591,-5.846,-5.599,-5.3156,-5.0121,-4.6361,-4.2482,-4.0144,-3.7724,-3.5347,-3.3337,-3.1864,-3.0217,-2.8142,-2.5255,-2.1146,-1.8186,-1.6333,-1.3455,-1.0383,-1.7366,-1.6806,-1.9527,-2.1783,-2.3393,-2.4645,-2.5932,-2.7365,-2.8809,-2.7631,-2.5116,-2.7294,-2.7605,-2.6695,-2.7255,-2.9306,-3.1145,-3.1727,-3.257,-3.4775,-3.6287,-3.6801,-3.6635,-3.697,-3.6981,-3.6672,-3.6378,-3.6515,-3.6539,-3.5861,-3.6472,-3.8029,-3.8345,-3.8981,-4.0273,-4.1209,-4.2156,-4.3435,-4.4759,-4.5826,-4.6502,-4.6781,-4.6378,-4.6205,-4.6519,-4.6844,-4.627,-4.5654,-4.5244,-4.4836,-4.3954,-4.2099,-3.9893,-3.9266,-3.8402,-3.7186,-3.6212,-3.525,-3.3637,-3.2993,-3.2449,-3.1598,-3.1899,-3.23,-3.4015,-3.6636,-3.9988,-4.3887,-4.7016,-4.9463,-5.1514,-5.2942,-5.4452,-5.5581,-5.6454,-5.7538,-5.8726,-5.932,-6.0663,-6.1742,-6.2415,-6.3322,-6.4453,-6.4734,-6.5001,-6.5525,-6.6043,-6.6504,-6.6946,-6.7352,-6.6895,-6.5891,-6.5515,-6.418,-6.2202,-6.0789,-5.8628,-5.6183,-5.3275,-5.0339,-4.6518,-4.2809,-3.9901,-3.7408,-3.507,-3.2849,-3.1253,-2.9377,-2.7593,-2.4692,-2.1145,-1.8759,-1.6536,-1.3407,-1.0078,-1.6276,-1.681,-1.873,-2.0841,-2.2753,-2.2975,-2.4245,-2.6243,-2.7312,-2.7145,-2.658,-2.8783,-2.9525,-2.9145,-3.0104,-3.1331,-3.2633,-3.2927,-3.3391,-3.4641,-3.5711,-3.6143,-3.6003,-3.6421,-3.6637,-3.699,-3.709,-3.7334,-3.7351,-3.7153,-3.7319,-3.8553,-3.8969,-3.9465,-4.0842,-4.1375,-4.2549,-4.3862,-4.5058,-4.6025,-4.657,-4.6485,-4.6137,-4.5816,-4.6231,-4.6302,-4.6289,-4.5773,-4.541,-4.506,-4.4439,-4.3072,-4.1213,-4.0475,-3.9998,-3.8402,-3.7886,-3.6598,-3.4627,-3.3392,-3.271,-3.2576,-3.301,-3.4477,-3.6402,-3.8368,-4.1279,-4.52,-4.8226,-5.0499,-5.2125,-5.3738,-5.4794,-5.594,-5.7116,-5.8287,-5.9355,-6.0304,-6.1199,-6.2331,-6.3343,-6.4147,-6.4992,-6.561,-6.5813,-6.6102,-6.6519,-6.6915,-6.7288,-6.7605,-6.6717,-6.5396,-6.5239,-6.4952,-6.2738,-6.0828,-5.8762,-5.6231,-5.3497,-5.0306,-4.668,-4.3244,-4.0197,-3.7184,-3.4692,-3.2493,-3.0752,-2.8605,-2.676,-2.4075,-2.136,-1.8914,-1.6442,-1.3753,-1.0751,-1.5166,-1.7021,-1.8115,-1.9992,-2.1974,-2.1366,-2.232,-2.4305,-2.5056,-2.5626,-2.6967,-2.9381,-3.1242,-3.1855,-3.2555,-3.3168,-3.3857,-3.4121,-3.4358,-3.4796,-3.5323,-3.5791,-3.5852,-3.6151,-3.662,-3.7456,-3.7297,-3.7984,-3.852,-3.8405,-3.8422,-3.9158,-4.0048,-4.055,-4.1183,-4.2079,-4.3296,-4.5259,-4.5749,-4.6365,-4.6857,-4.6356,-4.5997,-4.5676,-4.551,-4.5442,-4.5836,-4.5624,-4.5272,-4.518,-4.5077,-4.3878,-4.2124,-4.1908,-4.1149,-3.9818,-3.9061,-3.8047,-3.6053,-3.4481,-3.3376,-3.3433,-3.436,-3.6071,-3.905,-3.985,-4.1555,-4.6137,-4.8663,-5.0491,-5.1999,-5.4163,-5.5194,-5.626,-5.7335,-5.8531,-5.9669,-6.0772,-6.1559,-6.2346,-6.3403,-6.4494,-6.535,-6.6354,-6.6755,-6.6842,-6.7045,-6.7378,-6.7695,-6.7992,-6.7218,-6.6057,-6.559,-6.5203,-6.3111,-6.0927,-5.8776,-5.6246,-5.3591,-5.0292,-4.6632,-4.3339,-4.0215,-3.727,-3.4376,-3.2218,-3.0246,-2.8056,-2.5898,-2.3694,-2.1202,-1.8626,-1.6124,-1.3627,-1.1202,-1.3666,-1.6743,-1.7978,-1.9163,-2.0276,-2.0665,-2.0722,-2.1219,-2.2407,-2.3607,-2.5421,-2.9136,-3.2764,-3.4218,-3.417,-3.4736,-3.6142,-3.61,-3.6091,-3.6545,-3.7172,-3.6626,-3.6331,-3.6199,-3.642,-3.7138,-3.7577,-3.871,-3.9929,-4.0136,-4.0118,-4.0383,-4.1242,-4.216,-4.2776,-4.3351,-4.4581,-4.6066,-4.6499,-4.6732,-4.7087,-4.6795,-4.62,-4.5621,-4.5281,-4.5132,-4.5148,-4.5224,-4.5477,-4.5528,-4.5331,-4.4833,-4.3396,-4.319,-4.2223,-4.1119,-4.0275,-3.9324,-3.7767,-3.587,-3.4658,-3.4601,-3.5377,-3.7164,-4.0446,-4.1207,-4.3401,-4.6976,-4.9374,-5.1111,-5.2695,-5.4405,-5.5776,-5.6895,-5.808,-5.9238,-6.0361,-6.1343,-6.2132,-6.2615,-6.3445,-6.4655,-6.5602,-6.6588,-6.7279,-6.7322,-6.7633,-6.7994,-6.833,-6.8568,-6.8084,-6.7247,-6.6508,-6.5366,-6.3318,-6.1184,-5.9045,-5.6361,-5.3468,-5.0028,-4.6341,-4.3322,-4.0273,-3.7417,-3.4423,-3.2289,-2.9973,-2.7775,-2.5701,-2.3454,-2.1191,-1.8518,-1.5775,-1.3081,-1.0611,-1.4049,-1.6285,-1.6828,-1.8276,-2.0226,-1.9905,-2.0091,-2.0729,-2.1896,-2.4638,-2.7759,-3.0594,-3.2657,-3.3963,-3.5056,-3.4923,-3.5035,-3.6028,-3.623,-3.6221,-3.6177,-3.6533,-3.6507,-3.6795,-3.7104,-3.7916,-3.843,-3.902,-4.0235,-4.1169,-4.1767,-4.2029,-4.2345,-4.2777,-4.3472,-4.4671,-4.5872,-4.6176,-4.662,-4.6798,-4.6643,-4.6247,-4.5778,-4.5738,-4.5107,-4.5469,-4.5866,-4.5039,-4.545,-4.582,-4.5431,-4.4905,-4.454,-4.4338,-4.3647,-4.2649,-4.2042,-4.0976,-3.9565,-3.7466,-3.5858,-3.5852,-3.6457,-3.8119,-4.1541,-4.2153,-4.4528,-4.7455,-5.0102,-5.1833,-5.3244,-5.5237,-5.7029,-5.8004,-5.9009,-6.0051,-6.1077,-6.2146,-6.3088,-6.3638,-6.4224,-6.5022,-6.5885,-6.6701,-6.737,-6.7834,-6.8181,-6.855,-6.9024,-6.895,-6.8428,-6.767,-6.6825,-6.5392,-6.3331,-6.1271,-5.9297,-5.6361,-5.3299,-5.0056,-4.6542,-4.3064,-4.0028,-3.7295,-3.4355,-3.1919,-2.9501,-2.7586,-2.542,-2.356,-2.097,-1.8309,-1.561,-1.2727,-1.0427,-1.4407,-1.5963,-1.5997,-1.7429,-1.9428,-1.8972,-1.9069,-1.98,-2.0705,-2.4211,-2.9302,-3.0593,-3.2064,-3.3462,-3.4637,-3.5317,-3.5151,-3.5824,-3.6112,-3.6309,-3.6492,-3.6556,-3.6775,-3.703,-3.7248,-3.8421,-3.874,-3.9059,-4.1002,-4.2039,-4.2737,-4.3138,-4.3241,-4.371,-4.4572,-4.5917,-4.6827,-4.6801,-4.6806,-4.6958,-4.674,-4.6197,-4.562,-4.5725,-4.5188,-4.5103,-4.5394,-4.4849,-4.5103,-4.563,-4.5737,-4.5572,-4.566,-4.5632,-4.5089,-4.4654,-4.4012,-4.288,-4.1146,-3.8802,-3.7175,-3.7363,-3.7599,-3.9834,-4.2294,-4.3457,-4.5555,-4.8736,-5.0816,-5.2459,-5.3836,-5.5917,-5.7735,-5.8767,-5.9847,-6.0948,-6.2,-6.3036,-6.3981,-6.486,-6.5085,-6.5079,-6.6366,-6.7216,-6.8193,-6.8519,-6.8482,-6.9087,-6.9938,-6.9595,-6.8621,-6.7777,-6.6751,-6.5091,-6.3316,-6.1068,-5.8866,-5.6177,-5.3211,-5.0234,-4.6939,-4.338,-3.9891,-3.6876,-3.4128,-3.1422,-2.9112,-2.6974,-2.5308,-2.3581,-2.0593,-1.7443,-1.5452,-1.255,-1.0654,-1.421,-1.6041,-1.6041,-1.6732,-1.7854,-1.7839,-1.7659,-1.7862,-1.9117,-2.2447,-2.7334,-2.9489,-3.1585,-3.3279,-3.4506,-3.5193,-3.5955,-3.635,-3.6648,-3.69,-3.6963,-3.6921,-3.6875,-3.6987,-3.7614,-3.7437,-3.8133,-3.964,-4.1789,-4.1865,-4.2945,-4.4251,-4.4451,-4.4869,-4.564,-4.7024,-4.7886,-4.82,-4.7942,-4.7727,-4.7261,-4.6729,-4.6282,-4.574,-4.5247,-4.508,-4.5095,-4.4506,-4.4858,-4.5769,-4.5609,-4.6186,-4.7775,-4.7048,-4.6694,-4.6755,-4.5857,-4.4666,-4.3105,-3.9762,-3.8924,-3.9321,-3.9679,-4.1559,-4.3979,-4.5332,-4.6773,-5.0229,-5.1847,-5.3296,-5.4812,-5.6611,-5.8542,-5.9814,-6.0942,-6.2,-6.3141,-6.368,-6.4622,-6.5651,-6.5198,-6.5009,-6.65,-6.7829,-6.8958,-6.9304,-6.8995,-6.9558,-7.0643,-6.9889,-6.8741,-6.8021,-6.6965,-6.5093,-6.3218,-6.0739,-5.8261,-5.573,-5.2745,-4.9575,-4.6513,-4.3235,-3.9775,-3.6453,-3.3797,-3.1338,-2.8719,-2.6414,-2.4833,-2.3054,-1.9401,-1.6442,-1.4422,-1.2556,-1.0479,-1.4117,-1.4239,-1.5654,-1.6025,-1.6,-1.7525,-1.8018,-1.8395,-2.1325,-2.5018,-2.8521,-3.0559,-3.2376,-3.4048,-3.5013,-3.5613,-3.5936,-3.6827,-3.7104,-3.7136,-3.7202,-3.7568,-3.7635,-3.784,-3.833,-3.9018,-3.942,-3.978,-4.1365,-4.172,-4.2605,-4.3849,-4.4975,-4.5747,-4.6478,-4.7306,-4.7611,-4.7498,-4.7549,-4.7542,-4.6855,-4.6783,-4.6569,-4.5958,-4.5462,-4.5339,-4.5518,-4.4811,-4.4875,-4.6055,-4.5979,-4.6771,-4.844,-4.8025,-4.8547,-4.8719,-4.8147,-4.6999,-4.5562,-4.3546,-4.2694,-4.2395,-4.2367,-4.3906,-4.6455,-4.7621,-4.9521,-5.1721,-5.3774,-5.5519,-5.7313,-5.9264,-6.0855,-6.1353,-6.2352,-6.349,-6.4397,-6.4482,-6.5046,-6.6253,-6.6476,-6.5879,-6.6579,-6.8654,-6.9954,-7.0796,-7.0675,-7.0639,-7.1442,-6.9907,-6.8545,-6.8093,-6.7139,-6.5277,-6.3228,-6.0577,-5.7733,-5.4995,-5.179,-4.8252,-4.5319,-4.2725,-3.8982,-3.541,-3.3183,-3.1081,-2.8393,-2.5971,-2.447,-2.2148,-1.8862,-1.6343,-1.4728,-1.2623,-1.0312,-1.3835,-1.4156,-1.5271,-1.569,-1.5679,-1.7226,-1.8184,-1.9151,-2.2583,-2.6012,-2.8712,-3.0454,-3.2255,-3.4008,-3.5307,-3.5671,-3.56,-3.6798,-3.6748,-3.6898,-3.73,-3.7469,-3.7906,-3.8603,-3.8617,-3.9476,-3.9994,-4.0507,-4.1285,-4.2128,-4.3037,-4.3952,-4.478,-4.5594,-4.6389,-4.6819,-4.724,-4.7265,-4.7527,-4.7636,-4.7371,-4.7327,-4.724,-4.6807,-4.643,-4.61,-4.6249,-4.5821,-4.5258,-4.6568,-4.7159,-4.7611,-4.901,-4.9783,-5.0328,-5.0545,-4.9937,-4.8771,-4.7495,-4.8098,-4.7229,-4.6421,-4.5782,-4.6314,-4.8185,-4.948,-5.1541,-5.3822,-5.6067,-5.7806,-5.9394,-6.1386,-6.2328,-6.2798,-6.3531,-6.4634,-6.5521,-6.5645,-6.6268,-6.7431,-6.7502,-6.6973,-6.708,-6.9199,-7.1127,-7.1874,-7.246,-7.2462,-7.2197,-7.044,-6.9044,-6.8734,-6.7357,-6.5205,-6.2888,-6.0202,-5.7276,-5.4497,-5.1239,-4.7976,-4.4842,-4.2348,-3.8347,-3.4785,-3.2968,-3.0935,-2.8028,-2.571,-2.4365,-2.2044,-1.8862,-1.656,-1.52,-1.2684,-1.0149,-1.3256,-1.5403,-1.5095,-1.5543,-1.6496,-1.7238,-1.8227,-1.963,-2.2183,-2.4849,-2.7357,-2.991,-3.1779,-3.3225,-3.4882,-3.5297,-3.5284,-3.6741,-3.6649,-3.6567,-3.7302,-3.7339,-3.7681,-3.836,-3.8737,-3.8623,-3.922,-4.0734,-4.1332,-4.207,-4.314,-4.4114,-4.472,-4.5405,-4.5939,-4.653,-4.7026,-4.7434,-4.8009,-4.8277,-4.8482,-4.843,-4.8392,-4.8077,-4.7726,-4.7569,-4.7434,-4.6996,-4.7613,-4.8386,-4.8841,-5.044,-5.1519,-5.1817,-5.201,-5.1856,-5.1064,-5.0453,-4.9896,-5.0922,-5.1408,-5.0322,-4.8512,-4.8616,-4.9757,-5.1629,-5.343,-5.5506,-5.7623,-5.9276,-6.0989,-6.2224,-6.3444,-6.4021,-6.4556,-6.5601,-6.6605,-6.7256,-6.7949,-6.8347,-6.8004,-6.7897,-6.8597,-7.0308,-7.2699,-7.338,-7.4048,-7.4402,-7.374,-7.1431,-7.0309,-6.9949,-6.8118,-6.5056,-6.2633,-6.0061,-5.7079,-5.4252,-5.1649,-4.8575,-4.5321,-4.1732,-3.8093,-3.5108,-3.3193,-3.1099,-2.8783,-2.637,-2.4432,-2.183,-1.9345,-1.6936,-1.5377,-1.2499,-1.0172,-1.3014,-1.2784,-1.4629,-1.5463,-1.5953,-1.8315,-2.0378,-2.2201,-2.4499,-2.7019,-2.9903,-3.1054,-3.2298,-3.3982,-3.4475,-3.4559,-3.4991,-3.5563,-3.5999,-3.6453,-3.7037,-3.7601,-3.8152,-3.8649,-3.9093,-3.9656,-4.0285,-4.0954,-4.1501,-4.2199,-4.2873,-4.3798,-4.4663,-4.5192,-4.5805,-4.651,-4.7212,-4.7907,-4.8674,-4.9315,-4.9592,-4.9582,-4.9556,-4.9492,-4.9208,-4.9097,-4.8943,-4.9099,-4.983,-5.0529,-5.0675,-5.1916,-5.4154,-5.3689,-5.3391,-5.3695,-5.3423,-5.3151,-5.2325,-5.3383,-5.4132,-5.3851,-5.2656,-5.2978,-5.3636,-5.4301,-5.5517,-5.7388,-5.903,-6.0635,-6.2064,-6.3331,-6.4294,-6.4833,-6.5566,-6.6633,-6.7576,-6.8289,-6.8976,-6.9384,-6.904,-6.9501,-7.02,-7.2418,-7.4628,-7.5169,-7.5548,-7.5846,-7.501,-7.2627,-7.1103,-7.0736,-6.8178,-6.4932,-6.2871,-6.047,-5.7259,-5.4108,-5.1393,-4.8249,-4.4106,-4.0621,-3.7787,-3.5257,-3.2996,-3.1457,-3.0003,-2.7739,-2.5295,-2.3323,-2.0824,-1.8174,-1.5337,-1.2673,-1.0591,-1.2174,-1.2443,-1.4241,-1.569,-1.7181,-1.9694,-2.1897,-2.3534,-2.5314,-2.7723,-3.0334,-3.122,-3.2517,-3.3724,-3.4097,-3.4235,-3.4413,-3.5524,-3.6023,-3.6043,-3.6653,-3.7298,-3.8059,-3.8556,-3.8917,-3.9854,-4.0577,-4.1028,-4.1588,-4.2397,-4.3146,-4.3878,-4.4656,-4.5151,-4.5937,-4.707,-4.7654,-4.8384,-4.9187,-5.0165,-5.0593,-5.0879,-5.1242,-5.121,-5.093,-5.0817,-5.0967,-5.1453,-5.2082,-5.29,-5.3006,-5.3746,-5.5427,-5.4956,-5.4842,-5.5095,-5.5208,-5.494,-5.4648,-5.5717,-5.5913,-5.5975,-5.6399,-5.7037,-5.6729,-5.6791,-5.7886,-5.9237,-6.0499,-6.1876,-6.3201,-6.4434,-6.4978,-6.5575,-6.6628,-6.7702,-6.8413,-6.906,-6.9733,-7.0358,-7.0774,-7.1255,-7.2639,-7.4842,-7.6388,-7.6679,-7.6618,-7.6387,-7.5396,-7.3251,-7.1723,-7.098,-6.7926,-6.462,-6.2718,-6.0508,-5.7081,-5.3872,-5.0725,-4.7223,-4.3042,-3.9741,-3.7217,-3.4672,-3.2255,-3.1144,-3.0464,-2.8494,-2.6268,-2.426,-2.1856,-1.8945,-1.6102,-1.3668,-1.1589,-1.1058,-1.3328,-1.4117,-1.619,-1.9259,-2.0966,-2.2593,-2.394,-2.518,-2.7088,-2.9408,-3.0507,-3.1802,-3.3017,-3.3604,-3.391,-3.442,-3.5304,-3.5774,-3.5706,-3.6565,-3.7157,-3.7357,-3.777,-3.8568,-3.9108,-3.9872,-4.0919,-4.1522,-4.2302,-4.3252,-4.4092,-4.4574,-4.515,-4.606,-4.7834,-4.8493,-4.8616,-4.9852,-5.113,-5.1813,-5.264,-5.3507,-5.3553,-5.3175,-5.2938,-5.3298,-5.3799,-5.4323,-5.5182,-5.5654,-5.5861,-5.6006,-5.6242,-5.64,-5.6483,-5.6638,-5.6539,-5.6694,-5.758,-5.7932,-5.8311,-5.9046,-5.962,-5.9279,-5.8612,-5.9421,-6.0811,-6.2146,-6.2728,-6.3861,-6.4772,-6.5444,-6.6115,-6.7008,-6.8158,-6.9192,-6.964,-6.9981,-7.0744,-7.1646,-7.2146,-7.3149,-7.5165,-7.6907,-7.7692,-7.7644,-7.7089,-7.5682,-7.3744,-7.2032,-7.088,-6.8011,-6.5041,-6.2966,-6.0537,-5.6957,-5.3669,-5.0469,-4.6784,-4.274,-3.9556,-3.6682,-3.4393,-3.2211,-3.1505,-3.0464,-2.8931,-2.7181,-2.4909,-2.2487,-1.9697,-1.7056,-1.468,-1.261,-1.1316,-1.198,-1.4986,-1.7072,-1.8329,-2.1075,-2.3121,-2.4564,-2.5881,-2.739,-2.9077,-3.0083,-3.122,-3.2471,-3.3147,-3.3475,-3.4042,-3.5029,-3.5303,-3.5399,-3.5983,-3.6743,-3.6858,-3.7451,-3.8271,-3.9304,-4.0178,-4.0795,-4.1528,-4.2301,-4.3023,-4.3652,-4.4539,-4.5631,-4.5994,-4.7964,-4.9145,-4.8919,-5.0852,-5.1971,-5.2426,-5.2535,-5.289,-5.4023,-5.444,-5.4385,-5.4861,-5.5839,-5.6579,-5.7418,-5.7041,-5.7052,-5.7163,-5.7621,-5.7904,-5.8008,-5.8045,-5.7989,-5.8165,-5.8818,-5.9139,-5.9369,-5.9917,-6.08,-6.1031,-6.0411,-6.0828,-6.2363,-6.3345,-6.3761,-6.4308,-6.5103,-6.5895,-6.6646,-6.7448,-6.869,-6.9933,-7.0197,-7.0421,-7.1347,-7.2288,-7.3176,-7.4071,-7.5408,-7.7078,-7.773,-7.7644,-7.7126,-7.585,-7.408,-7.1587,-7.0106,-6.8271,-6.5748,-6.3354,-6.0259,-5.6536,-5.3497,-5.0528,-4.6699,-4.2383,-3.8959,-3.5807,-3.4186,-3.2477,-3.1888,-3.1209,-3.0097,-2.8278,-2.5983,-2.38,-2.1414,-1.8988,-1.6587,-1.4267,-1.0712,-1.1574,-1.5245,-1.7449,-1.8859,-2.1208,-2.3057,-2.4348,-2.5812,-2.7468,-2.9002,-3.0045,-3.1151,-3.2287,-3.2916,-3.3546,-3.3996,-3.482,-3.5155,-3.5205,-3.5469,-3.6274,-3.673,-3.7218,-3.8232,-3.9305,-3.9941,-4.0618,-4.1498,-4.2009,-4.2659,-4.3674,-4.5048,-4.5814,-4.6083,-4.8161,-4.9539,-4.9365,-5.1784,-5.2786,-5.3148,-5.3615,-5.4219,-5.5419,-5.5595,-5.5628,-5.6408,-5.7377,-5.8225,-5.8797,-5.8769,-5.8376,-5.848,-5.8882,-5.9463,-5.97,-5.9736,-5.9589,-5.963,-5.9784,-6.0074,-6.0132,-6.0566,-6.138,-6.274,-6.2304,-6.2427,-6.3693,-6.3576,-6.3902,-6.4585,-6.5341,-6.6295,-6.7054,-6.8365,-6.9733,-7.0776,-7.1386,-7.2119,-7.3263,-7.4036,-7.4678,-7.5658,-7.6905,-7.8325,-7.8513,-7.8323,-7.7092,-7.5807,-7.4405,-7.196,-6.9591,-6.7871,-6.5514,-6.2816,-5.9559,-5.5867,-5.2995,-5.021,-4.5122,-4.0393,-3.7578,-3.4895,-3.3683,-3.2957,-3.2509,-3.1625,-3.087,-2.9621,-2.7511,-2.5349,-2.3204,-2.0973,-1.8511,-1.6356,-0.9932,-1.178,-1.5007,-1.7565,-1.9506,-2.139,-2.2722,-2.3863,-2.5627,-2.7191,-2.8598,-3.0034,-3.1326,-3.247,-3.3176,-3.3963,-3.4602,-3.5031,-3.5172,-3.54,-3.5579,-3.623,-3.6674,-3.7187,-3.824,-3.9194,-3.9948,-4.0712,-4.1494,-4.2011,-4.2794,-4.4009,-4.4832,-4.5505,-4.6637,-4.8226,-4.9683,-5.0456,-5.2011,-5.3231,-5.4254,-5.5258,-5.5648,-5.6032,-5.6471,-5.6839,-5.7553,-5.8375,-5.918,-5.9643,-5.9892,-5.9593,-5.9571,-5.9932,-6.0522,-6.0903,-6.12,-6.1094,-6.1041,-6.0963,-6.074,-6.0677,-6.1223,-6.2112,-6.3441,-6.3998,-6.4131,-6.4441,-6.4326,-6.4427,-6.51,-6.5858,-6.6786,-6.7736,-6.9203,-7.0622,-7.154,-7.2404,-7.3471,-7.4615,-7.5321,-7.5847,-7.7162,-7.8412,-7.8717,-7.8954,-7.8485,-7.7147,-7.5806,-7.4316,-7.2364,-6.9836,-6.7692,-6.5201,-6.2579,-5.8912,-5.5246,-5.219,-4.8981,-4.3215,-3.8679,-3.668,-3.5119,-3.3987,-3.3239,-3.2716,-3.2191,-3.1447,-2.9962,-2.8484,-2.7117,-2.5184,-2.2761,-2.0463,-1.867,-1.0106,-1.1854,-1.4679,-1.6703,-1.8541,-2.1036,-2.2819,-2.4055,-2.5767,-2.6807,-2.7601,-2.9497,-3.1331,-3.3051,-3.3208,-3.3903,-3.4811,-3.5235,-3.5574,-3.5815,-3.5739,-3.6178,-3.6765,-3.7403,-3.8317,-3.9224,-4.0201,-4.0966,-4.1528,-4.2077,-4.2766,-4.3586,-4.4609,-4.5574,-4.683,-4.8613,-5.0471,-5.1511,-5.2938,-5.4392,-5.481,-5.5401,-5.5306,-5.5806,-5.6442,-5.6926,-5.7602,-5.8474,-5.9295,-5.9893,-6.0254,-6.0233,-6.0447,-6.0793,-6.1353,-6.1676,-6.2013,-6.1974,-6.1818,-6.1518,-6.1145,-6.1156,-6.172,-6.2389,-6.3483,-6.4237,-6.474,-6.5867,-6.5764,-6.5556,-6.605,-6.6755,-6.7609,-6.8471,-6.9705,-7.1047,-7.2211,-7.2803,-7.36,-7.4629,-7.544,-7.6546,-7.8014,-7.854,-7.8132,-7.8371,-7.8598,-7.7254,-7.5555,-7.4047,-7.2624,-6.9997,-6.74,-6.543,-6.2938,-5.8346,-5.467,-5.15,-4.7727,-4.2776,-3.8887,-3.6803,-3.5383,-3.4334,-3.3394,-3.2666,-3.2137,-3.1784,-3.0561,-2.9289,-2.8727,-2.7191,-2.474,-2.2378,-2.0498]}]]